Time,TemperatureF,DewpointF,PressureIn,WindDirection,WindDirectionDegrees,WindSpeedMPH,WindSpeedGustMPH,Humidity,HourlyPrecipIn,Conditions,Clouds,dailyrainin,SoftwareType,DateUTC
2013-06-11 00:00:00,76.5,60.6,30.09,NNW,338,0.0,0.0,58,0.00,,---,0.00,VWS V14.01,2013-06-11 04:00:00,
2013-06-11 00:01:00,76.5,60.6,30.09,NNW,338,0.0,0.0,58,0.00,,---,0.00,VWS V14.01,2013-06-11 04:01:00,
2013-06-11 00:02:00,76.5,60.6,30.09,NNW,338,0.0,0.0,58,0.00,,---,0.00,VWS V14.01,2013-06-11 04:02:00,
2013-06-11 00:03:00,76.5,60.6,30.09,NNW,338,0.0,0.0,58,0.00,,---,0.00,VWS V14.01,2013-06-11 04:03:00,
2013-06-11 00:04:00,76.5,61.6,30.09,NNW,338,0.0,0.0,60,0.00,,---,0.00,VWS V14.01,2013-06-11 04:04:00,
2013-06-11 00:05:00,76.5,61.1,30.09,NNW,338,0.0,0.0,59,0.00,,---,0.00,VWS V14.01,2013-06-11 04:05:00,
2013-06-11 00:06:00,76.5,61.1,30.09,NNW,338,0.0,0.0,59,0.00,,---,0.00,VWS V14.01,2013-06-11 04:06:00,
2013-06-11 00:07:00,76.5,61.1,30.09,NNW,338,0.0,0.0,59,0.00,,---,0.00,VWS V14.01,2013-06-11 04:07:00,
2013-06-11 00:08:00,76.5,61.1,30.09,NNW,338,0.0,0.0,59,0.00,,---,0.00,VWS V14.01,2013-06-11 04:08:00,
2013-06-11 00:09:00,76.5,61.6,30.09,NNW,338,0.0,0.0,60,0.00,,---,0.00,VWS V14.01,2013-06-11 04:09:00,
2013-06-11 00:10:00,76.5,61.1,30.09,NNW,338,0.0,0.0,59,0.00,,---,0.00,VWS V14.01,2013-06-11 04:10:00,
2013-06-11 00:11:00,76.5,61.1,30.09,NNW,338,0.0,0.0,59,0.00,,---,0.00,VWS V14.01,2013-06-11 04:11:00,
2013-06-11 00:12:00,76.5,61.1,30.09,NNW,338,0.0,0.0,59,0.00,,---,0.00,VWS V14.01,2013-06-11 04:12:00,
2013-06-11 00:13:00,76.5,61.1,30.09,NNW,338,0.0,0.0,59,0.00,,---,0.00,VWS V14.01,2013-06-11 04:13:00,
2013-06-11 00:14:00,76.5,61.1,30.09,NNW,338,0.0,0.0,59,0.00,,---,0.00,VWS V14.01,2013-06-11 04:14:00,
2013-06-11 00:15:00,76.5,61.1,30.09,NNW,338,0.0,0.0,59,0.00,,---,0.00,VWS V14.01,2013-06-11 04:15:00,
2013-06-11 00:16:00,76.5,61.6,30.09,NNW,338,0.0,0.0,60,0.00,,---,0.00,VWS V14.01,2013-06-11 04:16:00,
2013-06-11 00:17:00,76.5,61.6,30.09,NNW,338,0.0,0.0,60,0.00,,---,0.00,VWS V14.01,2013-06-11 04:17:00,
2013-06-11 00:18:00,76.5,61.6,30.09,NNW,338,0.0,0.0,60,0.00,,---,0.00,VWS V14.01,2013-06-11 04:18:00,
2013-06-11 00:19:00,76.3,61.4,30.09,NNW,338,0.0,0.0,60,0.00,,---,0.00,VWS V14.01,2013-06-11 04:19:00,
2013-06-11 00:20:00,76.3,61.4,30.09,NNW,338,0.0,0.0,60,0.00,,---,0.00,VWS V14.01,2013-06-11 04:20:00,
2013-06-11 00:21:00,76.3,61.4,30.09,NNW,338,0.0,0.0,60,0.00,,---,0.00,VWS V14.01,2013-06-11 04:21:00,
2013-06-11 00:22:00,76.3,61.4,30.09,NNW,338,0.0,0.0,60,0.00,,---,0.00,VWS V14.01,2013-06-11 04:22:00,
2013-06-11 00:23:00,76.3,61.4,30.09,NNW,338,0.0,0.0,60,0.00,,---,0.00,VWS V14.01,2013-06-11 04:23:00,
2013-06-11 00:24:00,76.3,61.4,30.09,NNW,338,0.0,0.0,60,0.00,,---,0.00,VWS V14.01,2013-06-11 04:24:00,
2013-06-11 00:25:00,76.3,61.4,30.09,NNW,338,0.0,0.0,60,0.00,,---,0.00,VWS V14.01,2013-06-11 04:25:00,
2013-06-11 00:26:00,76.3,61.4,30.09,NNW,338,0.0,0.0,60,0.00,,---,0.00,VWS V14.01,2013-06-11 04:26:00,
2013-06-11 00:27:00,76.3,61.4,30.09,NNW,338,0.0,0.0,60,0.00,,---,0.00,VWS V14.01,2013-06-11 04:27:00,
2013-06-11 00:28:00,76.3,61.4,30.09,NNW,338,0.0,0.0,60,0.00,,---,0.00,VWS V14.01,2013-06-11 04:28:00,
2013-06-11 00:29:00,76.3,61.4,30.06,NNW,338,0.0,0.0,60,0.00,,---,0.00,VWS V14.01,2013-06-11 04:29:00,
2013-06-11 00:30:00,76.3,61.4,30.06,NNW,338,0.0,0.0,60,0.00,,---,0.00,VWS V14.01,2013-06-11 04:30:00,
2013-06-11 00:31:00,76.1,61.2,30.06,NNW,338,0.0,0.0,60,0.00,,---,0.00,VWS V14.01,2013-06-11 04:31:00,
2013-06-11 00:32:00,76.3,61.4,30.06,NNW,338,0.0,0.0,60,0.00,,---,0.00,VWS V14.01,2013-06-11 04:32:00,
2013-06-11 00:33:00,76.1,61.2,30.06,NNW,338,0.0,0.0,60,0.00,,---,0.00,VWS V14.01,2013-06-11 04:33:00,
2013-06-11 00:34:00,76.1,61.2,30.06,NNW,338,0.0,0.0,60,0.00,,---,0.00,VWS V14.01,2013-06-11 04:34:00,
2013-06-11 00:35:00,76.1,61.2,30.06,NNW,338,0.0,0.0,60,0.00,,---,0.00,VWS V14.01,2013-06-11 04:35:00,
2013-06-11 00:36:00,76.1,61.2,30.06,NNW,338,0.0,0.0,60,0.00,,---,0.00,VWS V14.01,2013-06-11 04:36:00,
2013-06-11 00:37:00,76.1,61.2,30.06,NNW,338,0.0,0.0,60,0.00,,---,0.00,VWS V14.01,2013-06-11 04:37:00,
2013-06-11 00:38:00,76.1,61.2,30.06,NNW,338,0.0,0.0,60,0.00,,---,0.00,VWS V14.01,2013-06-11 04:38:00,
2013-06-11 00:39:00,76.1,61.7,30.06,NNW,338,0.0,0.0,61,0.00,,---,0.00,VWS V14.01,2013-06-11 04:39:00,
2013-06-11 00:40:00,76.1,61.2,30.06,NNW,338,0.0,0.0,60,0.00,,---,0.00,VWS V14.01,2013-06-11 04:40:00,
2013-06-11 00:41:00,76.1,61.7,30.06,NNW,338,0.0,0.0,61,0.00,,---,0.00,VWS V14.01,2013-06-11 04:41:00,
2013-06-11 00:42:00,76.1,61.7,30.06,NNW,338,0.0,0.0,61,0.00,,---,0.00,VWS V14.01,2013-06-11 04:42:00,
2013-06-11 00:43:00,76.1,61.7,30.06,NNW,338,0.0,0.0,61,0.00,,---,0.00,VWS V14.01,2013-06-11 04:43:00,
2013-06-11 00:44:00,76.1,61.7,30.06,NNW,338,0.0,0.0,61,0.00,,---,0.00,VWS V14.01,2013-06-11 04:44:00,
2013-06-11 00:45:00,75.9,61.5,30.06,NNW,338,0.0,0.0,61,0.00,,---,0.00,VWS V14.01,2013-06-11 04:45:00,
2013-06-11 00:46:00,75.9,61.5,30.06,NNW,338,0.0,0.0,61,0.00,,---,0.00,VWS V14.01,2013-06-11 04:46:00,
2013-06-11 00:47:00,75.9,61.5,30.06,NNW,338,0.0,0.0,61,0.00,,---,0.00,VWS V14.01,2013-06-11 04:47:00,
2013-06-11 00:48:00,75.9,61.5,30.06,NNW,338,0.0,0.0,61,0.00,,---,0.00,VWS V14.01,2013-06-11 04:48:00,
2013-06-11 00:49:00,75.9,61.5,30.06,NNW,338,0.0,0.0,61,0.00,,---,0.00,VWS V14.01,2013-06-11 04:49:00,
2013-06-11 00:50:00,75.9,61.5,30.06,NNW,338,0.0,0.0,61,0.00,,---,0.00,VWS V14.01,2013-06-11 04:50:00,
2013-06-11 00:51:00,75.9,61.5,30.06,NNW,338,0.0,0.0,61,0.00,,---,0.00,VWS V14.01,2013-06-11 04:51:00,
2013-06-11 00:52:00,75.9,62.0,30.06,NNW,338,0.0,0.0,62,0.00,,---,0.00,VWS V14.01,2013-06-11 04:52:00,
2013-06-11 00:53:00,75.9,62.0,30.06,NNW,338,0.0,0.0,62,0.00,,---,0.00,VWS V14.01,2013-06-11 04:53:00,
2013-06-11 00:54:00,75.9,62.0,30.06,NNW,338,0.0,0.0,62,0.00,,---,0.00,VWS V14.01,2013-06-11 04:54:00,
2013-06-11 00:55:00,75.9,62.0,30.06,NNW,338,0.0,0.0,62,0.00,,---,0.00,VWS V14.01,2013-06-11 04:55:00,
2013-06-11 00:56:00,75.9,62.0,30.06,NNW,338,0.0,0.0,62,0.00,,---,0.00,VWS V14.01,2013-06-11 04:56:00,
2013-06-11 00:57:00,75.9,62.0,30.06,NNW,338,0.0,0.0,62,0.00,,---,0.00,VWS V14.01,2013-06-11 04:57:00,
2013-06-11 00:58:00,75.9,62.0,30.06,NNW,338,0.0,0.0,62,0.00,,---,0.00,VWS V14.01,2013-06-11 04:58:00,
2013-06-11 00:59:00,75.9,62.0,30.06,NNW,338,0.0,0.0,62,0.00,,---,0.00,VWS V14.01,2013-06-11 04:59:00,
2013-06-11 01:00:00,75.9,62.0,30.06,NNW,338,0.0,0.0,62,0.00,,---,0.00,VWS V14.01,2013-06-11 05:00:00,
2013-06-11 01:01:00,75.9,62.4,30.06,NNW,338,0.0,0.0,63,0.00,,---,0.00,VWS V14.01,2013-06-11 05:01:00,
2013-06-11 01:02:00,75.9,62.0,30.06,NNW,338,0.0,0.0,62,0.00,,---,0.00,VWS V14.01,2013-06-11 05:02:00,
2013-06-11 01:03:00,75.9,62.0,30.06,NNW,338,0.0,0.0,62,0.00,,---,0.00,VWS V14.01,2013-06-11 05:03:00,
2013-06-11 01:04:00,75.9,62.0,30.06,NNW,338,0.0,0.0,62,0.00,,---,0.00,VWS V14.01,2013-06-11 05:04:00,
2013-06-11 01:05:00,75.7,61.8,30.06,NNW,338,0.0,0.0,62,0.00,,---,0.00,VWS V14.01,2013-06-11 05:05:00,
2013-06-11 01:06:00,75.7,61.8,30.06,NNW,338,0.0,0.0,62,0.00,,---,0.00,VWS V14.01,2013-06-11 05:06:00,
2013-06-11 01:07:00,75.7,61.8,30.06,NNW,338,0.0,0.0,62,0.00,,---,0.00,VWS V14.01,2013-06-11 05:07:00,
2013-06-11 01:08:00,75.7,61.8,30.06,NNW,338,0.0,0.0,62,0.00,,---,0.00,VWS V14.01,2013-06-11 05:08:00,
2013-06-11 01:09:00,75.7,61.8,30.06,NNW,338,0.0,0.0,62,0.00,,---,0.00,VWS V14.01,2013-06-11 05:09:00,
2013-06-11 01:10:00,75.7,61.8,30.06,NNW,338,0.0,0.0,62,0.00,,---,0.00,VWS V14.01,2013-06-11 05:10:00,
2013-06-11 01:11:00,75.7,62.3,30.06,NNW,338,0.0,0.0,63,0.00,,---,0.00,VWS V14.01,2013-06-11 05:11:00,
2013-06-11 01:12:00,75.6,62.1,30.06,NNW,338,0.0,0.0,63,0.00,,---,0.00,VWS V14.01,2013-06-11 05:12:00,
2013-06-11 01:13:00,75.7,62.3,30.06,NNW,338,0.0,0.0,63,0.00,,---,0.00,VWS V14.01,2013-06-11 05:13:00,
2013-06-11 01:14:00,75.6,62.1,30.06,NNW,338,0.0,0.0,63,0.00,,---,0.00,VWS V14.01,2013-06-11 05:14:00,
2013-06-11 01:15:00,75.6,62.1,30.06,NNW,338,0.0,0.0,63,0.00,,---,0.00,VWS V14.01,2013-06-11 05:15:00,
2013-06-11 01:16:00,75.6,62.1,30.06,NNW,338,0.0,0.0,63,0.00,,---,0.00,VWS V14.01,2013-06-11 05:16:00,
2013-06-11 01:17:00,75.6,62.1,30.06,NNW,338,0.0,0.0,63,0.00,,---,0.00,VWS V14.01,2013-06-11 05:17:00,
2013-06-11 01:18:00,75.6,62.1,30.06,NNW,338,0.0,0.0,63,0.00,,---,0.00,VWS V14.01,2013-06-11 05:18:00,
2013-06-11 01:19:00,75.6,62.1,30.06,NNW,338,0.0,0.0,63,0.00,,---,0.00,VWS V14.01,2013-06-11 05:19:00,
2013-06-11 01:20:00,75.4,61.9,30.06,NNW,338,0.0,0.0,63,0.00,,---,0.00,VWS V14.01,2013-06-11 05:20:00,
2013-06-11 01:21:00,75.4,61.9,30.06,NNW,338,0.0,0.0,63,0.00,,---,0.00,VWS V14.01,2013-06-11 05:21:00,
2013-06-11 01:22:00,75.4,62.4,30.06,NNW,338,0.0,0.0,64,0.00,,---,0.00,VWS V14.01,2013-06-11 05:22:00,
2013-06-11 01:23:00,75.4,62.4,30.06,NNW,338,0.0,0.0,64,0.00,,---,0.00,VWS V14.01,2013-06-11 05:23:00,
2013-06-11 01:24:00,75.4,62.4,30.06,NNW,338,0.0,0.0,64,0.00,,---,0.00,VWS V14.01,2013-06-11 05:24:00,
2013-06-11 01:25:00,75.4,62.4,30.06,NNW,338,0.0,0.0,64,0.00,,---,0.00,VWS V14.01,2013-06-11 05:25:00,
2013-06-11 01:26:00,75.4,62.4,30.06,NNW,338,0.0,0.0,64,0.00,,---,0.00,VWS V14.01,2013-06-11 05:26:00,
2013-06-11 01:27:00,75.4,62.4,30.06,NNW,338,0.0,0.0,64,0.00,,---,0.00,VWS V14.01,2013-06-11 05:27:00,
2013-06-11 01:28:00,75.4,62.4,30.06,NNW,338,0.0,0.0,64,0.00,,---,0.00,VWS V14.01,2013-06-11 05:28:00,
2013-06-11 01:29:00,75.4,62.4,30.06,NNW,338,0.0,0.0,64,0.00,,---,0.00,VWS V14.01,2013-06-11 05:29:00,
2013-06-11 01:30:00,75.4,62.4,30.06,NNW,338,0.0,0.0,64,0.00,,---,0.00,VWS V14.01,2013-06-11 05:30:00,
2013-06-11 01:31:00,75.4,62.4,30.06,NNW,338,0.0,0.0,64,0.00,,---,0.00,VWS V14.01,2013-06-11 05:31:00,
2013-06-11 01:32:00,75.4,62.8,30.06,NNW,338,0.0,0.0,65,0.00,,---,0.00,VWS V14.01,2013-06-11 05:32:00,
2013-06-11 01:33:00,75.4,62.8,30.06,NNW,338,0.0,0.0,65,0.00,,---,0.00,VWS V14.01,2013-06-11 05:33:00,
2013-06-11 01:34:00,75.4,62.8,30.06,NNW,338,0.0,0.0,65,0.00,,---,0.00,VWS V14.01,2013-06-11 05:34:00,
2013-06-11 01:35:00,75.2,62.6,30.06,NNW,338,0.0,0.0,65,0.00,,---,0.00,VWS V14.01,2013-06-11 05:35:00,
2013-06-11 01:36:00,75.2,62.6,30.06,NNW,338,0.0,0.0,65,0.00,,---,0.00,VWS V14.01,2013-06-11 05:36:00,
2013-06-11 01:37:00,75.2,62.6,30.06,NNW,338,0.0,0.0,65,0.00,,---,0.00,VWS V14.01,2013-06-11 05:37:00,
2013-06-11 01:38:00,75.2,62.6,30.06,NNW,338,0.0,0.0,65,0.00,,---,0.00,VWS V14.01,2013-06-11 05:38:00,
2013-06-11 01:39:00,75.2,62.6,30.06,NNW,338,0.0,0.0,65,0.00,,---,0.00,VWS V14.01,2013-06-11 05:39:00,
2013-06-11 01:40:00,75.2,62.6,30.06,NNW,338,0.0,0.0,65,0.00,,---,0.00,VWS V14.01,2013-06-11 05:40:00,
2013-06-11 01:41:00,75.2,62.6,30.06,NNW,338,0.0,0.0,65,0.00,,---,0.00,VWS V14.01,2013-06-11 05:41:00,
2013-06-11 01:42:00,75.2,62.6,30.09,NNW,338,0.0,0.0,65,0.00,,---,0.00,VWS V14.01,2013-06-11 05:42:00,
2013-06-11 01:43:00,75.2,62.6,30.06,NNW,338,0.0,0.0,65,0.00,,---,0.00,VWS V14.01,2013-06-11 05:43:00,
2013-06-11 01:44:00,75.2,62.6,30.09,NNW,338,0.0,0.0,65,0.00,,---,0.00,VWS V14.01,2013-06-11 05:44:00,
2013-06-11 01:45:00,75.2,63.1,30.09,NNW,338,0.0,0.0,66,0.00,,---,0.00,VWS V14.01,2013-06-11 05:45:00,
2013-06-11 01:46:00,75.2,63.1,30.09,NNW,338,0.0,0.0,66,0.00,,---,0.00,VWS V14.01,2013-06-11 05:46:00,
2013-06-11 01:47:00,75.2,63.1,30.09,NNW,338,0.0,0.0,66,0.00,,---,0.00,VWS V14.01,2013-06-11 05:47:00,
2013-06-11 01:48:00,75.2,63.1,30.09,NNW,338,0.0,0.0,66,0.00,,---,0.00,VWS V14.01,2013-06-11 05:48:00,
2013-06-11 01:49:00,75.2,63.1,30.09,NNW,338,0.0,0.0,66,0.00,,---,0.00,VWS V14.01,2013-06-11 05:49:00,
2013-06-11 01:50:00,75.2,63.1,30.09,NNW,338,0.0,0.0,66,0.00,,---,0.00,VWS V14.01,2013-06-11 05:50:00,
2013-06-11 01:51:00,75.2,63.1,30.09,NNW,338,0.0,0.0,66,0.00,,---,0.00,VWS V14.01,2013-06-11 05:51:00,
2013-06-11 01:52:00,75.0,63.3,30.09,NNW,338,0.0,0.0,67,0.00,,---,0.00,VWS V14.01,2013-06-11 05:52:00,
2013-06-11 01:53:00,75.0,63.3,30.09,NNW,338,0.0,0.0,67,0.00,,---,0.00,VWS V14.01,2013-06-11 05:53:00,
2013-06-11 01:54:00,75.0,63.3,30.09,NNW,338,0.0,0.0,67,0.00,,---,0.00,VWS V14.01,2013-06-11 05:54:00,
2013-06-11 01:55:00,75.0,63.3,30.09,NNW,338,0.0,0.0,67,0.00,,---,0.00,VWS V14.01,2013-06-11 05:55:00,
2013-06-11 01:56:00,75.0,63.3,30.09,NNW,338,0.0,0.0,67,0.00,,---,0.00,VWS V14.01,2013-06-11 05:56:00,
2013-06-11 01:57:00,75.0,63.3,30.06,NNW,338,0.0,0.0,67,0.00,,---,0.00,VWS V14.01,2013-06-11 05:57:00,
2013-06-11 01:58:00,75.0,63.3,30.09,NNW,338,0.0,0.0,67,0.00,,---,0.00,VWS V14.01,2013-06-11 05:58:00,
2013-06-11 01:59:00,75.0,63.3,30.06,NNW,338,0.0,0.0,67,0.00,,---,0.00,VWS V14.01,2013-06-11 05:59:00,
2013-06-11 02:00:00,75.0,63.8,30.06,NNW,338,0.0,0.0,68,0.00,,---,0.00,VWS V14.01,2013-06-11 06:00:00,
2013-06-11 02:01:00,74.8,63.6,30.06,NNW,338,0.0,0.0,68,0.00,,---,0.00,VWS V14.01,2013-06-11 06:01:00,
2013-06-11 02:02:00,74.8,63.6,30.06,NNW,338,0.0,0.0,68,0.00,,---,0.00,VWS V14.01,2013-06-11 06:02:00,
2013-06-11 02:03:00,74.8,63.6,30.06,NNW,338,0.0,0.0,68,0.00,,---,0.00,VWS V14.01,2013-06-11 06:03:00,
2013-06-11 02:04:00,74.8,63.6,30.06,NNW,338,0.0,0.0,68,0.00,,---,0.00,VWS V14.01,2013-06-11 06:04:00,
2013-06-11 02:05:00,74.8,63.6,30.06,NNW,338,0.0,0.0,68,0.00,,---,0.00,VWS V14.01,2013-06-11 06:05:00,
2013-06-11 02:06:00,74.8,63.6,30.06,NNW,338,0.0,0.0,68,0.00,,---,0.00,VWS V14.01,2013-06-11 06:06:00,
2013-06-11 02:07:00,74.7,63.4,30.06,NNW,338,0.0,0.0,68,0.00,,---,0.00,VWS V14.01,2013-06-11 06:07:00,
2013-06-11 02:08:00,74.8,63.2,30.06,NNW,338,0.0,0.0,67,0.00,,---,0.00,VWS V14.01,2013-06-11 06:08:00,
2013-06-11 02:09:00,74.7,63.4,30.06,NNW,338,0.0,0.0,68,0.00,,---,0.00,VWS V14.01,2013-06-11 06:09:00,
2013-06-11 02:10:00,74.8,63.6,30.06,NNW,338,0.0,0.0,68,0.00,,---,0.00,VWS V14.01,2013-06-11 06:10:00,
2013-06-11 02:11:00,74.7,63.4,30.06,NNW,338,0.0,0.0,68,0.00,,---,0.00,VWS V14.01,2013-06-11 06:11:00,
2013-06-11 02:12:00,74.7,63.4,30.06,NNW,338,0.0,0.0,68,0.00,,---,0.00,VWS V14.01,2013-06-11 06:12:00,
2013-06-11 02:13:00,74.7,63.4,30.06,NNW,338,0.0,0.0,68,0.00,,---,0.00,VWS V14.01,2013-06-11 06:13:00,
2013-06-11 02:14:00,74.7,63.4,30.06,NNW,338,0.0,0.0,68,0.00,,---,0.00,VWS V14.01,2013-06-11 06:14:00,
2013-06-11 02:15:00,74.7,63.4,30.06,NNW,338,0.0,0.0,68,0.00,,---,0.00,VWS V14.01,2013-06-11 06:15:00,
2013-06-11 02:16:00,74.7,63.4,30.06,NNW,338,0.0,0.0,68,0.00,,---,0.00,VWS V14.01,2013-06-11 06:16:00,
2013-06-11 02:17:00,74.7,63.4,30.06,NNW,338,0.0,0.0,68,0.00,,---,0.00,VWS V14.01,2013-06-11 06:17:00,
2013-06-11 02:18:00,74.7,63.4,30.06,NNW,338,0.0,0.0,68,0.00,,---,0.00,VWS V14.01,2013-06-11 06:18:00,
2013-06-11 02:19:00,74.7,63.4,30.06,NNW,338,0.0,0.0,68,0.00,,---,0.00,VWS V14.01,2013-06-11 06:19:00,
2013-06-11 02:20:00,74.7,63.4,30.06,NNW,338,0.0,0.0,68,0.00,,---,0.00,VWS V14.01,2013-06-11 06:20:00,
2013-06-11 02:21:00,74.7,63.4,30.06,NNW,338,0.0,0.0,68,0.00,,---,0.00,VWS V14.01,2013-06-11 06:21:00,
2013-06-11 02:22:00,74.5,63.7,30.06,NNW,338,0.0,0.0,69,0.00,,---,0.00,VWS V14.01,2013-06-11 06:22:00,
2013-06-11 02:23:00,74.5,63.7,30.06,NNW,338,0.0,0.0,69,0.00,,---,0.00,VWS V14.01,2013-06-11 06:23:00,
2013-06-11 02:24:00,74.5,63.7,30.06,NNW,338,0.0,0.0,69,0.00,,---,0.00,VWS V14.01,2013-06-11 06:24:00,
2013-06-11 02:25:00,74.5,63.7,30.06,NNW,338,0.0,0.0,69,0.00,,---,0.00,VWS V14.01,2013-06-11 06:25:00,
2013-06-11 02:26:00,74.5,63.7,30.06,NNW,338,0.0,0.0,69,0.00,,---,0.00,VWS V14.01,2013-06-11 06:26:00,
2013-06-11 02:27:00,74.5,63.7,30.06,NNW,338,0.0,0.0,69,0.00,,---,0.00,VWS V14.01,2013-06-11 06:27:00,
2013-06-11 02:28:00,74.5,63.7,30.06,NNW,338,0.0,0.0,69,0.00,,---,0.00,VWS V14.01,2013-06-11 06:28:00,
2013-06-11 02:29:00,74.5,63.7,30.06,NNW,338,0.0,0.0,69,0.00,,---,0.00,VWS V14.01,2013-06-11 06:29:00,
2013-06-11 02:30:00,74.5,63.7,30.06,NNW,338,0.0,0.0,69,0.00,,---,0.00,VWS V14.01,2013-06-11 06:30:00,
2013-06-11 02:31:00,74.5,63.7,30.06,NNW,338,0.0,0.0,69,0.00,,---,0.00,VWS V14.01,2013-06-11 06:31:00,
2013-06-11 02:32:00,74.3,63.5,30.06,NNW,338,0.0,0.0,69,0.00,,---,0.00,VWS V14.01,2013-06-11 06:32:00,
2013-06-11 02:33:00,74.3,63.5,30.06,NNW,338,0.0,0.0,69,0.00,,---,0.00,VWS V14.01,2013-06-11 06:33:00,
2013-06-11 02:34:00,74.3,63.5,30.06,NNW,338,0.0,0.0,69,0.00,,---,0.00,VWS V14.01,2013-06-11 06:34:00,
2013-06-11 02:35:00,74.3,63.5,30.06,NNW,338,0.0,0.0,69,0.00,,---,0.00,VWS V14.01,2013-06-11 06:35:00,
2013-06-11 02:36:00,74.3,63.5,30.06,NNW,338,0.0,0.0,69,0.00,,---,0.00,VWS V14.01,2013-06-11 06:36:00,
2013-06-11 02:37:00,74.1,63.3,30.06,NNW,338,0.0,0.0,69,0.00,,---,0.00,VWS V14.01,2013-06-11 06:37:00,
2013-06-11 02:38:00,74.3,63.9,30.06,NNW,338,0.0,0.0,70,0.00,,---,0.00,VWS V14.01,2013-06-11 06:38:00,
2013-06-11 02:39:00,74.1,63.3,30.06,NNW,338,0.0,0.0,69,0.00,,---,0.00,VWS V14.01,2013-06-11 06:39:00,
2013-06-11 02:40:00,74.1,63.3,30.06,NNW,338,0.0,0.0,69,0.00,,---,0.00,VWS V14.01,2013-06-11 06:40:00,
2013-06-11 02:41:00,74.1,63.3,30.06,NNW,338,0.0,0.0,69,0.00,,---,0.00,VWS V14.01,2013-06-11 06:41:00,
2013-06-11 02:42:00,74.1,63.3,30.06,NNW,338,0.0,0.0,69,0.00,,---,0.00,VWS V14.01,2013-06-11 06:42:00,
2013-06-11 02:43:00,74.1,63.3,30.06,NNW,338,0.0,0.0,69,0.00,,---,0.00,VWS V14.01,2013-06-11 06:43:00,
2013-06-11 02:44:00,74.1,63.7,30.06,NNW,338,0.0,0.0,70,0.00,,---,0.00,VWS V14.01,2013-06-11 06:44:00,
2013-06-11 02:45:00,74.1,63.7,30.06,NNW,338,0.0,0.0,70,0.00,,---,0.00,VWS V14.01,2013-06-11 06:45:00,
2013-06-11 02:46:00,74.1,63.7,30.06,NNW,338,0.0,0.0,70,0.00,,---,0.00,VWS V14.01,2013-06-11 06:46:00,
2013-06-11 02:47:00,74.1,63.7,30.06,NNW,338,0.0,0.0,70,0.00,,---,0.00,VWS V14.01,2013-06-11 06:47:00,
2013-06-11 02:48:00,74.1,63.7,30.06,NNW,338,0.0,0.0,70,0.00,,---,0.00,VWS V14.01,2013-06-11 06:48:00,
2013-06-11 02:49:00,74.1,63.7,30.06,NNW,338,0.0,0.0,70,0.00,,---,0.00,VWS V14.01,2013-06-11 06:49:00,
2013-06-11 02:50:00,74.1,63.7,30.06,NNW,338,0.0,0.0,70,0.00,,---,0.00,VWS V14.01,2013-06-11 06:50:00,
2013-06-11 02:51:00,74.1,64.1,30.06,NNW,338,0.0,0.0,71,0.00,,---,0.00,VWS V14.01,2013-06-11 06:51:00,
2013-06-11 02:52:00,74.1,64.1,30.06,NNW,338,0.0,0.0,71,0.00,,---,0.00,VWS V14.01,2013-06-11 06:52:00,
2013-06-11 02:53:00,74.1,63.7,30.06,NNW,338,0.0,0.0,70,0.00,,---,0.00,VWS V14.01,2013-06-11 06:53:00,
2013-06-11 02:54:00,74.1,64.1,30.06,NNW,338,0.0,0.0,71,0.00,,---,0.00,VWS V14.01,2013-06-11 06:54:00,
2013-06-11 02:55:00,74.1,64.1,30.06,NNW,338,0.0,0.0,71,0.00,,---,0.00,VWS V14.01,2013-06-11 06:55:00,
2013-06-11 02:56:00,74.1,64.1,30.06,NNW,338,0.0,0.0,71,0.00,,---,0.00,VWS V14.01,2013-06-11 06:56:00,
2013-06-11 02:57:00,74.1,64.1,30.06,NNW,338,0.0,0.0,71,0.00,,---,0.00,VWS V14.01,2013-06-11 06:57:00,
2013-06-11 02:58:00,74.1,64.1,30.06,NNW,338,0.0,0.0,71,0.00,,---,0.00,VWS V14.01,2013-06-11 06:58:00,
2013-06-11 02:59:00,74.1,64.1,30.06,NNW,338,0.0,0.0,71,0.00,,---,0.00,VWS V14.01,2013-06-11 06:59:00,
2013-06-11 03:00:00,74.1,64.1,30.06,NNW,338,0.0,0.0,71,0.00,,---,0.00,VWS V14.01,2013-06-11 07:00:00,
2013-06-11 03:01:00,73.9,64.0,30.06,NNW,338,0.0,0.0,71,0.00,,---,0.00,VWS V14.01,2013-06-11 07:01:00,
2013-06-11 03:02:00,73.9,64.3,30.06,NNW,338,0.0,0.0,72,0.00,,---,0.00,VWS V14.01,2013-06-11 07:02:00,
2013-06-11 03:03:00,73.9,64.3,30.06,NNW,338,0.0,0.0,72,0.00,,---,0.00,VWS V14.01,2013-06-11 07:03:00,
2013-06-11 03:04:00,73.9,64.3,30.06,NNW,338,0.0,0.0,72,0.00,,---,0.00,VWS V14.01,2013-06-11 07:04:00,
2013-06-11 03:05:00,73.9,64.3,30.06,NNW,338,0.0,0.0,72,0.00,,---,0.00,VWS V14.01,2013-06-11 07:05:00,
2013-06-11 03:06:00,73.9,64.3,30.06,NNW,338,0.0,0.0,72,0.00,,---,0.00,VWS V14.01,2013-06-11 07:06:00,
2013-06-11 03:07:00,73.9,64.3,30.06,NNW,338,0.0,0.0,72,0.00,,---,0.00,VWS V14.01,2013-06-11 07:07:00,
2013-06-11 03:08:00,73.9,64.3,30.06,NNW,338,0.0,0.0,72,0.00,,---,0.00,VWS V14.01,2013-06-11 07:08:00,
2013-06-11 03:09:00,73.9,64.3,30.06,NNW,338,0.0,0.0,72,0.00,,---,0.00,VWS V14.01,2013-06-11 07:09:00,
2013-06-11 03:10:00,73.9,64.3,30.06,NNW,338,0.0,0.0,72,0.00,,---,0.00,VWS V14.01,2013-06-11 07:10:00,
2013-06-11 03:11:00,73.9,64.3,30.06,NNW,338,0.0,0.0,72,0.00,,---,0.00,VWS V14.01,2013-06-11 07:11:00,
2013-06-11 03:12:00,73.8,64.2,30.06,NNW,338,0.0,0.0,72,0.00,,---,0.00,VWS V14.01,2013-06-11 07:12:00,
2013-06-11 03:13:00,73.9,64.3,30.06,NNW,338,0.0,0.0,72,0.00,,---,0.00,VWS V14.01,2013-06-11 07:13:00,
2013-06-11 03:14:00,73.8,64.2,30.06,NNW,338,0.0,0.0,72,0.00,,---,0.00,VWS V14.01,2013-06-11 07:14:00,
2013-06-11 03:15:00,73.8,63.8,30.06,NNW,338,0.0,0.0,71,0.00,,---,0.00,VWS V14.01,2013-06-11 07:15:00,
2013-06-11 03:16:00,73.8,63.8,30.06,NNW,338,0.0,0.0,71,0.00,,---,0.00,VWS V14.01,2013-06-11 07:16:00,
2013-06-11 03:17:00,73.8,63.8,30.06,NNW,338,0.0,0.0,71,0.00,,---,0.00,VWS V14.01,2013-06-11 07:17:00,
2013-06-11 03:18:00,73.8,63.8,30.06,NNW,338,0.0,0.0,71,0.00,,---,0.00,VWS V14.01,2013-06-11 07:18:00,
2013-06-11 03:19:00,73.8,63.8,30.06,NNW,338,0.0,0.0,71,0.00,,---,0.00,VWS V14.01,2013-06-11 07:19:00,
2013-06-11 03:20:00,73.8,64.2,30.06,NNW,338,0.0,0.0,72,0.00,,---,0.00,VWS V14.01,2013-06-11 07:20:00,
2013-06-11 03:21:00,73.8,64.2,30.06,NNW,338,0.0,0.0,72,0.00,,---,0.00,VWS V14.01,2013-06-11 07:21:00,
2013-06-11 03:22:00,73.8,64.2,30.06,NNW,338,0.0,0.0,72,0.00,,---,0.00,VWS V14.01,2013-06-11 07:22:00,
2013-06-11 03:23:00,73.8,64.2,30.06,NNW,338,0.0,0.0,72,0.00,,---,0.00,VWS V14.01,2013-06-11 07:23:00,
2013-06-11 03:24:00,73.8,64.2,30.06,NNW,338,0.0,0.0,72,0.00,,---,0.00,VWS V14.01,2013-06-11 07:24:00,
2013-06-11 03:25:00,73.9,64.3,30.06,NNW,338,0.0,0.0,72,0.00,,---,0.00,VWS V14.01,2013-06-11 07:25:00,
2013-06-11 03:26:00,73.9,64.8,30.06,NNW,338,0.0,0.0,73,0.00,,---,0.00,VWS V14.01,2013-06-11 07:26:00,
2013-06-11 03:27:00,73.8,64.2,30.06,NNW,338,0.0,0.0,72,0.00,,---,0.00,VWS V14.01,2013-06-11 07:27:00,
2013-06-11 03:28:00,73.8,64.2,30.06,NNW,338,0.0,0.0,72,0.00,,---,0.00,VWS V14.01,2013-06-11 07:28:00,
2013-06-11 03:29:00,73.8,64.2,30.06,NNW,338,0.0,0.0,72,0.00,,---,0.00,VWS V14.01,2013-06-11 07:29:00,
2013-06-11 03:30:00,73.8,64.2,30.06,NNW,338,0.0,0.0,72,0.00,,---,0.00,VWS V14.01,2013-06-11 07:30:00,
2013-06-11 03:31:00,73.8,64.2,30.06,NNW,338,0.0,0.0,72,0.00,,---,0.00,VWS V14.01,2013-06-11 07:31:00,
2013-06-11 03:32:00,73.8,64.6,30.06,NNW,338,0.0,0.0,73,0.00,,---,0.00,VWS V14.01,2013-06-11 07:32:00,
2013-06-11 03:33:00,73.8,64.6,30.06,NNW,338,0.0,0.0,73,0.00,,---,0.00,VWS V14.01,2013-06-11 07:33:00,
2013-06-11 03:34:00,73.8,64.6,30.06,NNW,338,0.0,0.0,73,0.00,,---,0.00,VWS V14.01,2013-06-11 07:34:00,
2013-06-11 03:35:00,73.8,64.6,30.06,NNW,338,0.0,0.0,73,0.00,,---,0.00,VWS V14.01,2013-06-11 07:35:00,
2013-06-11 03:36:00,73.8,64.6,30.06,NNW,338,0.0,0.0,73,0.00,,---,0.00,VWS V14.01,2013-06-11 07:36:00,
2013-06-11 03:37:00,73.8,64.6,30.06,NNW,338,0.0,0.0,73,0.00,,---,0.00,VWS V14.01,2013-06-11 07:37:00,
2013-06-11 03:38:00,73.8,64.6,30.06,NNW,338,0.0,0.0,73,0.00,,---,0.00,VWS V14.01,2013-06-11 07:38:00,
2013-06-11 03:39:00,73.8,64.6,30.06,NNW,338,0.0,0.0,73,0.00,,---,0.00,VWS V14.01,2013-06-11 07:39:00,
2013-06-11 03:40:00,73.8,64.6,30.06,NNW,338,0.0,0.0,73,0.00,,---,0.00,VWS V14.01,2013-06-11 07:40:00,
2013-06-11 03:41:00,73.8,64.6,30.06,NNW,338,0.0,0.0,73,0.00,,---,0.00,VWS V14.01,2013-06-11 07:41:00,
2013-06-11 03:42:00,73.8,64.6,30.06,NNW,338,0.0,0.0,73,0.00,,---,0.00,VWS V14.01,2013-06-11 07:42:00,
2013-06-11 03:43:00,73.8,64.6,30.06,NNW,338,0.0,0.0,73,0.00,,---,0.00,VWS V14.01,2013-06-11 07:43:00,
2013-06-11 03:44:00,73.8,64.6,30.06,NNW,338,0.0,0.0,73,0.00,,---,0.00,VWS V14.01,2013-06-11 07:44:00,
2013-06-11 03:45:00,73.8,64.6,30.06,NNW,338,0.0,0.0,73,0.00,,---,0.00,VWS V14.01,2013-06-11 07:45:00,
2013-06-11 03:46:00,73.8,64.6,30.06,NNW,338,0.0,0.0,73,0.00,,---,0.00,VWS V14.01,2013-06-11 07:46:00,
2013-06-11 03:47:00,73.8,65.0,30.06,NNW,338,0.0,0.0,74,0.00,,---,0.00,VWS V14.01,2013-06-11 07:47:00,
2013-06-11 03:48:00,73.8,65.0,30.06,NNW,338,0.0,0.0,74,0.00,,---,0.00,VWS V14.01,2013-06-11 07:48:00,
2013-06-11 03:49:00,73.8,65.0,30.06,NNW,338,0.0,0.0,74,0.00,,---,0.00,VWS V14.01,2013-06-11 07:49:00,
2013-06-11 03:50:00,73.8,65.0,30.06,NNW,338,0.0,0.0,74,0.00,,---,0.00,VWS V14.01,2013-06-11 07:50:00,
2013-06-11 03:51:00,73.8,65.0,30.06,NNW,338,0.0,0.0,74,0.00,,---,0.00,VWS V14.01,2013-06-11 07:51:00,
2013-06-11 03:52:00,73.8,65.0,30.06,NNW,338,0.0,0.0,74,0.00,,---,0.00,VWS V14.01,2013-06-11 07:52:00,
2013-06-11 03:53:00,73.8,65.0,30.06,NNW,338,0.0,0.0,74,0.00,,---,0.00,VWS V14.01,2013-06-11 07:53:00,
2013-06-11 03:54:00,73.8,65.0,30.06,NNW,338,0.0,0.0,74,0.00,,---,0.00,VWS V14.01,2013-06-11 07:54:00,
2013-06-11 03:55:00,73.8,65.0,30.06,NNW,338,0.0,0.0,74,0.00,,---,0.00,VWS V14.01,2013-06-11 07:55:00,
2013-06-11 03:56:00,73.8,65.0,30.06,NNW,338,0.0,0.0,74,0.00,,---,0.00,VWS V14.01,2013-06-11 07:56:00,
2013-06-11 03:57:00,73.8,65.0,30.06,NNW,338,0.0,0.0,74,0.00,,---,0.00,VWS V14.01,2013-06-11 07:57:00,
2013-06-11 03:58:00,73.8,65.0,30.06,NNW,338,0.0,0.0,74,0.00,,---,0.00,VWS V14.01,2013-06-11 07:58:00,
2013-06-11 03:59:00,73.8,65.0,30.06,NNW,338,0.0,0.0,74,0.00,,---,0.00,VWS V14.01,2013-06-11 07:59:00,
2013-06-11 04:00:00,73.8,65.0,30.06,NNW,338,0.0,0.0,74,0.00,,---,0.00,VWS V14.01,2013-06-11 08:00:00,
2013-06-11 04:01:00,73.8,65.0,30.06,NNW,338,0.0,0.0,74,0.00,,---,0.00,VWS V14.01,2013-06-11 08:01:00,
2013-06-11 04:02:00,73.8,65.3,30.06,NNW,338,0.0,0.0,75,0.00,,---,0.00,VWS V14.01,2013-06-11 08:02:00,
2013-06-11 04:03:00,73.8,65.3,30.06,NNW,338,0.0,0.0,75,0.00,,---,0.00,VWS V14.01,2013-06-11 08:03:00,
2013-06-11 04:04:00,73.8,65.3,30.06,NNW,338,0.0,0.0,75,0.00,,---,0.00,VWS V14.01,2013-06-11 08:04:00,
2013-06-11 04:05:00,73.8,65.3,30.06,NNW,338,0.0,0.0,75,0.00,,---,0.00,VWS V14.01,2013-06-11 08:05:00,
2013-06-11 04:06:00,73.6,65.2,30.06,NNW,338,0.0,0.0,75,0.00,,---,0.00,VWS V14.01,2013-06-11 08:06:00,
2013-06-11 04:07:00,73.6,65.2,30.06,NNW,338,0.0,0.0,75,0.00,,---,0.00,VWS V14.01,2013-06-11 08:07:00,
2013-06-11 04:08:00,73.6,65.2,30.06,NNW,338,0.0,0.0,75,0.00,,---,0.00,VWS V14.01,2013-06-11 08:08:00,
2013-06-11 04:09:00,73.6,65.2,30.06,NNW,338,0.0,0.0,75,0.00,,---,0.00,VWS V14.01,2013-06-11 08:09:00,
2013-06-11 04:10:00,73.6,65.2,30.06,NNW,338,0.0,0.0,75,0.00,,---,0.00,VWS V14.01,2013-06-11 08:10:00,
2013-06-11 04:11:00,73.8,65.3,30.06,NNW,338,0.0,0.0,75,0.00,,---,0.00,VWS V14.01,2013-06-11 08:11:00,
2013-06-11 04:12:00,73.8,65.3,30.06,NNW,338,0.0,0.0,75,0.00,,---,0.00,VWS V14.01,2013-06-11 08:12:00,
2013-06-11 04:13:00,73.8,65.3,30.06,NNW,338,0.0,0.0,75,0.00,,---,0.00,VWS V14.01,2013-06-11 08:13:00,
2013-06-11 04:14:00,73.8,65.3,30.06,NNW,338,0.0,0.0,75,0.00,,---,0.00,VWS V14.01,2013-06-11 08:14:00,
2013-06-11 04:15:00,73.8,65.3,30.06,NNW,338,0.0,0.0,75,0.00,,---,0.00,VWS V14.01,2013-06-11 08:15:00,
2013-06-11 04:16:00,73.8,65.3,30.06,NNW,338,0.0,0.0,75,0.00,,---,0.00,VWS V14.01,2013-06-11 08:16:00,
2013-06-11 04:17:00,73.8,65.3,30.06,NNW,338,0.0,0.0,75,0.00,,---,0.00,VWS V14.01,2013-06-11 08:17:00,
2013-06-11 04:18:00,73.8,65.3,30.06,NNW,338,0.0,0.0,75,0.00,,---,0.00,VWS V14.01,2013-06-11 08:18:00,
2013-06-11 04:19:00,73.8,65.3,30.06,NNW,338,0.0,0.0,75,0.00,,---,0.00,VWS V14.01,2013-06-11 08:19:00,
2013-06-11 04:20:00,73.8,65.3,30.06,NNW,338,0.0,0.0,75,0.00,,---,0.00,VWS V14.01,2013-06-11 08:20:00,
2013-06-11 04:21:00,73.8,65.0,30.06,NNW,338,0.0,0.0,74,0.00,,---,0.00,VWS V14.01,2013-06-11 08:21:00,
2013-06-11 04:22:00,73.8,65.3,30.06,NNW,338,0.0,0.0,75,0.00,,---,0.00,VWS V14.01,2013-06-11 08:22:00,
2013-06-11 04:23:00,73.8,65.3,30.06,NNW,338,0.0,0.0,75,0.00,,---,0.00,VWS V14.01,2013-06-11 08:23:00,
2013-06-11 04:24:00,73.8,65.3,30.06,NNW,338,0.0,0.0,75,0.00,,---,0.00,VWS V14.01,2013-06-11 08:24:00,
2013-06-11 04:25:00,73.6,64.8,30.06,NNW,338,0.0,0.0,74,0.00,,---,0.00,VWS V14.01,2013-06-11 08:25:00,
2013-06-11 04:26:00,73.6,64.8,30.06,NNW,338,0.0,0.0,74,0.00,,---,0.00,VWS V14.01,2013-06-11 08:26:00,
2013-06-11 04:27:00,73.6,64.8,30.06,NNW,338,0.0,0.0,74,0.00,,---,0.00,VWS V14.01,2013-06-11 08:27:00,
2013-06-11 04:28:00,73.6,64.8,30.06,NNW,338,0.0,0.0,74,0.00,,---,0.00,VWS V14.01,2013-06-11 08:28:00,
2013-06-11 04:29:00,73.6,64.8,30.06,NNW,338,0.0,0.0,74,0.00,,---,0.00,VWS V14.01,2013-06-11 08:29:00,
2013-06-11 04:30:00,73.6,65.2,30.06,NNW,338,0.0,0.0,75,0.00,,---,0.00,VWS V14.01,2013-06-11 08:30:00,
2013-06-11 04:31:00,73.6,65.2,30.06,NNW,338,0.0,0.0,75,0.00,,---,0.00,VWS V14.01,2013-06-11 08:31:00,
2013-06-11 04:32:00,73.6,65.2,30.06,NNW,338,0.0,0.0,75,0.00,,---,0.00,VWS V14.01,2013-06-11 08:32:00,
2013-06-11 04:33:00,73.6,65.2,30.06,NNW,338,0.0,0.0,75,0.00,,---,0.00,VWS V14.01,2013-06-11 08:33:00,
2013-06-11 04:34:00,73.6,65.2,30.06,NNW,338,0.0,0.0,75,0.00,,---,0.00,VWS V14.01,2013-06-11 08:34:00,
2013-06-11 04:35:00,73.6,65.2,30.06,NNW,338,0.0,0.0,75,0.00,,---,0.00,VWS V14.01,2013-06-11 08:35:00,
2013-06-11 04:36:00,73.6,65.2,30.06,NNW,338,0.0,0.0,75,0.00,,---,0.00,VWS V14.01,2013-06-11 08:36:00,
2013-06-11 04:37:00,73.8,65.3,30.06,NNW,338,0.0,0.0,75,0.00,,---,0.00,VWS V14.01,2013-06-11 08:37:00,
2013-06-11 04:38:00,73.8,65.3,30.06,NNW,338,0.0,0.0,75,0.00,,---,0.00,VWS V14.01,2013-06-11 08:38:00,
2013-06-11 04:39:00,73.8,65.3,30.06,NNW,338,0.0,0.0,75,0.00,,---,0.00,VWS V14.01,2013-06-11 08:39:00,
2013-06-11 04:40:00,73.8,65.3,30.06,NNW,338,0.0,0.0,75,0.00,,---,0.00,VWS V14.01,2013-06-11 08:40:00,
2013-06-11 04:41:00,73.8,65.3,30.06,NNW,338,0.0,0.0,75,0.00,,---,0.00,VWS V14.01,2013-06-11 08:41:00,
2013-06-11 04:42:00,73.8,65.3,30.06,NNW,338,0.0,0.0,75,0.00,,---,0.00,VWS V14.01,2013-06-11 08:42:00,
2013-06-11 04:43:00,73.8,65.3,30.06,NNW,338,0.0,0.0,75,0.00,,---,0.00,VWS V14.01,2013-06-11 08:43:00,
2013-06-11 04:44:00,73.8,65.3,30.06,NNW,338,0.0,0.0,75,0.00,,---,0.00,VWS V14.01,2013-06-11 08:44:00,
2013-06-11 04:45:00,73.8,65.3,30.06,NNW,338,0.0,0.0,75,0.00,,---,0.00,VWS V14.01,2013-06-11 08:45:00,
2013-06-11 04:46:00,73.8,65.3,30.06,NNW,338,0.0,0.0,75,0.00,,---,0.00,VWS V14.01,2013-06-11 08:46:00,
2013-06-11 04:47:00,73.8,65.3,30.06,NNW,338,0.0,0.0,75,0.00,,---,0.00,VWS V14.01,2013-06-11 08:47:00,
2013-06-11 04:48:00,73.8,65.3,30.06,NNW,338,0.0,0.0,75,0.00,,---,0.00,VWS V14.01,2013-06-11 08:48:00,
2013-06-11 04:49:00,73.8,65.3,30.06,NNW,338,0.0,0.0,75,0.00,,---,0.00,VWS V14.01,2013-06-11 08:49:00,
2013-06-11 04:50:00,73.8,65.3,30.06,NNW,338,0.0,0.0,75,0.00,,---,0.00,VWS V14.01,2013-06-11 08:50:00,
2013-06-11 04:51:00,73.8,65.3,30.06,NNW,338,0.0,0.0,75,0.00,,---,0.00,VWS V14.01,2013-06-11 08:51:00,
2013-06-11 04:52:00,73.8,65.3,30.06,NNW,338,0.0,0.0,75,0.00,,---,0.00,VWS V14.01,2013-06-11 08:52:00,
2013-06-11 04:53:00,73.8,65.3,30.06,NNW,338,0.0,0.0,75,0.00,,---,0.00,VWS V14.01,2013-06-11 08:53:00,
2013-06-11 04:54:00,73.8,65.3,30.06,NNW,338,0.0,0.0,75,0.00,,---,0.00,VWS V14.01,2013-06-11 08:54:00,
2013-06-11 04:55:00,73.8,65.3,30.06,NNW,338,0.0,0.0,75,0.00,,---,0.00,VWS V14.01,2013-06-11 08:55:00,
2013-06-11 04:56:00,73.8,65.3,30.06,NNW,338,0.0,0.0,75,0.00,,---,0.00,VWS V14.01,2013-06-11 08:56:00,
2013-06-11 04:57:00,73.8,65.3,30.06,NNW,338,0.0,0.0,75,0.00,,---,0.00,VWS V14.01,2013-06-11 08:57:00,
2013-06-11 04:58:00,73.8,65.3,30.06,NNW,338,0.0,0.0,75,0.00,,---,0.00,VWS V14.01,2013-06-11 08:58:00,
2013-06-11 04:59:00,73.8,65.3,30.06,NNW,338,0.0,0.0,75,0.00,,---,0.00,VWS V14.01,2013-06-11 08:59:00,
2013-06-11 05:00:00,73.8,65.3,30.06,NNW,338,0.0,0.0,75,0.00,,---,0.00,VWS V14.01,2013-06-11 09:00:00,
2013-06-11 05:01:00,73.8,65.3,30.06,NNW,338,0.0,0.0,75,0.00,,---,0.00,VWS V14.01,2013-06-11 09:01:00,
2013-06-11 05:02:00,73.8,65.3,30.06,NNW,338,0.0,0.0,75,0.00,,---,0.00,VWS V14.01,2013-06-11 09:02:00,
2013-06-11 05:03:00,73.8,65.3,30.06,NNW,338,0.0,0.0,75,0.00,,---,0.00,VWS V14.01,2013-06-11 09:03:00,
2013-06-11 05:04:00,73.8,65.3,30.06,NNW,338,0.0,0.0,75,0.00,,---,0.00,VWS V14.01,2013-06-11 09:04:00,
2013-06-11 05:05:00,73.8,65.3,30.06,NNW,338,0.0,0.0,75,0.00,,---,0.00,VWS V14.01,2013-06-11 09:05:00,
2013-06-11 05:06:00,73.8,65.3,30.06,NNW,338,0.0,0.0,75,0.00,,---,0.00,VWS V14.01,2013-06-11 09:06:00,
2013-06-11 05:07:00,73.8,65.3,30.06,NNW,338,0.0,0.0,75,0.00,,---,0.00,VWS V14.01,2013-06-11 09:07:00,
2013-06-11 05:08:00,73.8,65.3,30.06,NNW,338,0.0,0.0,75,0.00,,---,0.00,VWS V14.01,2013-06-11 09:08:00,
2013-06-11 05:09:00,73.8,65.3,30.06,NNW,338,0.0,0.0,75,0.00,,---,0.00,VWS V14.01,2013-06-11 09:09:00,
2013-06-11 05:10:00,73.8,65.3,30.06,NNW,338,0.0,0.0,75,0.00,,---,0.00,VWS V14.01,2013-06-11 09:10:00,
2013-06-11 05:11:00,73.8,65.3,30.06,NNW,338,0.0,0.0,75,0.00,,---,0.00,VWS V14.01,2013-06-11 09:11:00,
2013-06-11 05:12:00,73.8,65.7,30.06,NNW,338,0.0,0.0,76,0.00,,---,0.00,VWS V14.01,2013-06-11 09:12:00,
2013-06-11 05:13:00,73.8,65.3,30.06,NNW,338,0.0,0.0,75,0.00,,---,0.00,VWS V14.01,2013-06-11 09:13:00,
2013-06-11 05:14:00,73.8,65.7,30.06,NNW,338,0.0,0.0,76,0.00,,---,0.00,VWS V14.01,2013-06-11 09:14:00,
2013-06-11 05:15:00,73.8,65.7,30.06,NNW,338,0.0,0.0,76,0.00,,---,0.00,VWS V14.01,2013-06-11 09:15:00,
2013-06-11 05:16:00,73.8,65.7,30.06,NNW,338,0.0,0.0,76,0.00,,---,0.00,VWS V14.01,2013-06-11 09:16:00,
2013-06-11 05:17:00,73.9,65.9,30.06,NNW,338,0.0,0.0,76,0.00,,---,0.00,VWS V14.01,2013-06-11 09:17:00,
2013-06-11 05:18:00,73.8,65.7,30.06,NNW,338,0.0,0.0,76,0.00,,---,0.00,VWS V14.01,2013-06-11 09:18:00,
2013-06-11 05:19:00,73.9,65.9,30.06,NNW,338,0.0,0.0,76,0.00,,---,0.00,VWS V14.01,2013-06-11 09:19:00,
2013-06-11 05:20:00,73.8,65.7,30.06,NNW,338,0.0,0.0,76,0.00,,---,0.00,VWS V14.01,2013-06-11 09:20:00,
2013-06-11 05:21:00,73.8,65.7,30.06,NNW,338,0.0,0.0,76,0.00,,---,0.00,VWS V14.01,2013-06-11 09:21:00,
2013-06-11 05:22:00,73.9,65.9,30.06,NNW,338,0.0,0.0,76,0.00,,---,0.00,VWS V14.01,2013-06-11 09:22:00,
2013-06-11 05:23:00,73.9,65.9,30.06,NNW,338,0.0,0.0,76,0.00,,---,0.00,VWS V14.01,2013-06-11 09:23:00,
2013-06-11 05:24:00,73.9,65.9,30.06,NNW,338,0.0,0.0,76,0.00,,---,0.00,VWS V14.01,2013-06-11 09:24:00,
2013-06-11 05:25:00,73.9,65.9,30.06,NNW,338,0.0,0.0,76,0.00,,---,0.00,VWS V14.01,2013-06-11 09:25:00,
2013-06-11 05:26:00,73.9,65.9,30.06,NNW,338,0.0,0.0,76,0.00,,---,0.00,VWS V14.01,2013-06-11 09:26:00,
2013-06-11 05:27:00,73.9,65.9,30.06,NNW,338,0.0,0.0,76,0.00,,---,0.00,VWS V14.01,2013-06-11 09:27:00,
2013-06-11 05:28:00,73.9,65.9,30.06,NNW,338,0.0,0.0,76,0.00,,---,0.00,VWS V14.01,2013-06-11 09:28:00,
2013-06-11 05:29:00,73.9,65.9,30.06,NNW,338,0.0,0.0,76,0.00,,---,0.00,VWS V14.01,2013-06-11 09:29:00,
2013-06-11 05:30:00,73.9,65.9,30.06,NNW,338,0.0,0.0,76,0.00,,---,0.00,VWS V14.01,2013-06-11 09:30:00,
2013-06-11 05:31:00,73.9,65.9,30.06,NNW,338,0.0,0.0,76,0.00,,---,0.00,VWS V14.01,2013-06-11 09:31:00,
2013-06-11 05:32:00,73.9,65.9,30.06,NNW,338,0.0,0.0,76,0.00,,---,0.00,VWS V14.01,2013-06-11 09:32:00,
2013-06-11 05:33:00,73.9,65.9,30.06,NNW,338,0.0,0.0,76,0.00,,---,0.00,VWS V14.01,2013-06-11 09:33:00,
2013-06-11 05:34:00,73.9,65.9,30.06,NNW,338,0.0,0.0,76,0.00,,---,0.00,VWS V14.01,2013-06-11 09:34:00,
2013-06-11 05:35:00,73.9,65.9,30.06,NNW,338,0.0,0.0,76,0.00,,---,0.00,VWS V14.01,2013-06-11 09:35:00,
2013-06-11 05:36:00,73.9,65.9,30.06,NNW,338,0.0,0.0,76,0.00,,---,0.00,VWS V14.01,2013-06-11 09:36:00,
2013-06-11 05:37:00,73.9,65.9,30.06,NNW,338,0.0,0.0,76,0.00,,---,0.00,VWS V14.01,2013-06-11 09:37:00,
2013-06-11 05:38:00,73.8,65.3,30.06,NNW,338,0.0,0.0,75,0.00,,---,0.00,VWS V14.01,2013-06-11 09:38:00,
2013-06-11 05:39:00,73.9,65.5,30.06,NNW,338,0.0,0.0,75,0.00,,---,0.00,VWS V14.01,2013-06-11 09:39:00,
2013-06-11 05:40:00,73.8,65.3,30.06,NNW,338,0.0,0.0,75,0.00,,---,0.00,VWS V14.01,2013-06-11 09:40:00,
2013-06-11 05:41:00,73.8,65.3,30.06,NNW,338,0.0,0.0,75,0.00,,---,0.00,VWS V14.01,2013-06-11 09:41:00,
2013-06-11 05:42:00,73.8,65.3,30.06,NNW,338,0.0,0.0,75,0.00,,---,0.00,VWS V14.01,2013-06-11 09:42:00,
2013-06-11 05:43:00,73.8,65.3,30.06,NNW,338,0.0,0.0,75,0.00,,---,0.00,VWS V14.01,2013-06-11 09:43:00,
2013-06-11 05:44:00,73.8,65.3,30.06,NNW,338,0.0,0.0,75,0.00,,---,0.00,VWS V14.01,2013-06-11 09:44:00,
2013-06-11 05:45:00,73.8,65.3,30.06,NNW,338,0.0,0.0,75,0.00,,---,0.00,VWS V14.01,2013-06-11 09:45:00,
2013-06-11 05:46:00,73.8,65.7,30.06,NNW,338,0.0,0.0,76,0.00,,---,0.00,VWS V14.01,2013-06-11 09:46:00,
2013-06-11 05:47:00,73.8,65.7,30.06,NNW,338,0.0,0.0,76,0.00,,---,0.00,VWS V14.01,2013-06-11 09:47:00,
2013-06-11 05:48:00,73.8,65.7,30.06,NNW,338,0.0,0.0,76,0.00,,---,0.00,VWS V14.01,2013-06-11 09:48:00,
2013-06-11 05:49:00,73.8,65.7,30.06,NNW,338,0.0,0.0,76,0.00,,---,0.00,VWS V14.01,2013-06-11 09:49:00,
2013-06-11 05:50:00,73.8,65.7,30.06,NNW,338,0.0,0.0,76,0.00,,---,0.00,VWS V14.01,2013-06-11 09:50:00,
2013-06-11 05:51:00,73.8,65.7,30.06,NNW,338,0.0,0.0,76,0.00,,---,0.00,VWS V14.01,2013-06-11 09:51:00,
2013-06-11 05:52:00,73.6,65.6,30.06,NNW,338,0.0,0.0,76,0.00,,---,0.00,VWS V14.01,2013-06-11 09:52:00,
2013-06-11 05:53:00,73.6,65.6,30.06,NNW,338,0.0,0.0,76,0.00,,---,0.00,VWS V14.01,2013-06-11 09:53:00,
2013-06-11 05:54:00,73.6,65.6,30.06,NNW,338,0.0,0.0,76,0.00,,---,0.00,VWS V14.01,2013-06-11 09:54:00,
2013-06-11 05:55:00,73.6,65.6,30.06,NNW,338,0.0,0.0,76,0.00,,---,0.00,VWS V14.01,2013-06-11 09:55:00,
2013-06-11 05:56:00,73.6,65.6,30.06,NNW,338,0.0,0.0,76,0.00,,---,0.00,VWS V14.01,2013-06-11 09:56:00,
2013-06-11 05:57:00,73.6,65.6,30.06,NNW,338,0.0,0.0,76,0.00,,---,0.00,VWS V14.01,2013-06-11 09:57:00,
2013-06-11 05:58:00,73.6,65.6,30.06,NNW,338,0.0,0.0,76,0.00,,---,0.00,VWS V14.01,2013-06-11 09:58:00,
2013-06-11 05:59:00,73.8,66.1,30.06,NNW,338,0.0,0.0,77,0.00,,---,0.00,VWS V14.01,2013-06-11 09:59:00,
2013-06-11 06:00:00,73.6,65.9,30.06,NNW,338,0.0,0.0,77,0.00,,---,0.00,VWS V14.01,2013-06-11 10:00:00,
2013-06-11 06:01:00,73.8,66.1,30.06,NNW,338,0.0,0.0,77,0.00,,---,0.00,VWS V14.01,2013-06-11 10:01:00,
2013-06-11 06:02:00,73.8,66.1,30.06,NNW,338,0.0,0.0,77,0.00,,---,0.00,VWS V14.01,2013-06-11 10:02:00,
2013-06-11 06:03:00,73.8,66.1,30.06,NNW,338,0.0,0.0,77,0.00,,---,0.00,VWS V14.01,2013-06-11 10:03:00,
2013-06-11 06:04:00,73.8,66.1,30.06,NNW,338,0.0,0.0,77,0.00,,---,0.00,VWS V14.01,2013-06-11 10:04:00,
2013-06-11 06:05:00,73.8,66.1,30.06,NNW,338,0.0,0.0,77,0.00,,---,0.00,VWS V14.01,2013-06-11 10:05:00,
2013-06-11 06:06:00,73.8,66.1,30.06,NNW,338,0.0,0.0,77,0.00,,---,0.00,VWS V14.01,2013-06-11 10:06:00,
2013-06-11 06:07:00,73.8,66.1,30.06,NNW,338,0.0,0.0,77,0.00,,---,0.00,VWS V14.01,2013-06-11 10:07:00,
2013-06-11 06:08:00,73.8,66.1,30.06,NNW,338,0.0,0.0,77,0.00,,---,0.00,VWS V14.01,2013-06-11 10:08:00,
2013-06-11 06:09:00,73.9,66.7,30.06,NNW,338,0.0,0.0,78,0.00,,---,0.00,VWS V14.01,2013-06-11 10:09:00,
2013-06-11 06:10:00,73.9,66.7,30.06,NNW,338,0.0,0.0,78,0.00,,---,0.00,VWS V14.01,2013-06-11 10:10:00,
2013-06-11 06:11:00,73.9,66.7,30.06,NNW,338,0.0,0.0,78,0.00,,---,0.00,VWS V14.01,2013-06-11 10:11:00,
2013-06-11 06:12:00,73.9,66.7,30.06,NNW,338,0.0,0.0,78,0.00,,---,0.00,VWS V14.01,2013-06-11 10:12:00,
2013-06-11 06:13:00,73.9,66.3,30.06,NNW,338,0.0,0.0,77,0.00,,---,0.00,VWS V14.01,2013-06-11 10:13:00,
2013-06-11 06:14:00,73.9,66.7,30.06,NNW,338,0.0,0.0,78,0.00,,---,0.00,VWS V14.01,2013-06-11 10:14:00,
2013-06-11 06:15:00,73.9,66.7,30.06,NNW,338,0.0,0.0,78,0.00,,---,0.00,VWS V14.01,2013-06-11 10:15:00,
2013-06-11 06:16:00,73.9,66.7,30.06,NNW,338,0.0,0.0,78,0.00,,---,0.00,VWS V14.01,2013-06-11 10:16:00,
2013-06-11 06:17:00,73.9,66.7,30.06,NNW,338,0.0,0.0,78,0.00,,---,0.00,VWS V14.01,2013-06-11 10:17:00,
2013-06-11 06:18:00,73.9,66.7,30.06,NNW,338,0.0,0.0,78,0.00,,---,0.00,VWS V14.01,2013-06-11 10:18:00,
2013-06-11 06:19:00,73.9,66.7,30.06,NNW,338,0.0,0.0,78,0.00,,---,0.00,VWS V14.01,2013-06-11 10:19:00,
2013-06-11 06:20:00,73.9,66.7,30.06,NNW,338,0.0,0.0,78,0.00,,---,0.00,VWS V14.01,2013-06-11 10:20:00,
2013-06-11 06:21:00,73.9,66.7,30.06,NNW,338,0.0,0.0,78,0.00,,---,0.00,VWS V14.01,2013-06-11 10:21:00,
2013-06-11 06:22:00,73.9,66.7,30.06,NNW,338,0.0,0.0,78,0.00,,---,0.00,VWS V14.01,2013-06-11 10:22:00,
2013-06-11 06:23:00,73.9,66.7,30.06,NNW,338,0.0,0.0,78,0.00,,---,0.00,VWS V14.01,2013-06-11 10:23:00,
2013-06-11 06:24:00,73.9,66.7,30.06,NNW,338,0.0,0.0,78,0.00,,---,0.00,VWS V14.01,2013-06-11 10:24:00,
2013-06-11 06:25:00,73.9,66.7,30.06,NNW,338,0.0,0.0,78,0.00,,---,0.00,VWS V14.01,2013-06-11 10:25:00,
2013-06-11 06:26:00,73.9,66.7,30.06,NNW,338,0.0,0.0,78,0.00,,---,0.00,VWS V14.01,2013-06-11 10:26:00,
2013-06-11 06:27:00,73.9,66.7,30.06,NNW,338,0.0,0.0,78,0.00,,---,0.00,VWS V14.01,2013-06-11 10:27:00,
2013-06-11 06:28:00,73.9,66.7,30.06,NNW,338,0.0,0.0,78,0.00,,---,0.00,VWS V14.01,2013-06-11 10:28:00,
2013-06-11 06:29:00,73.9,66.7,30.06,NNW,338,0.0,0.0,78,0.00,,---,0.00,VWS V14.01,2013-06-11 10:29:00,
2013-06-11 06:30:00,73.9,66.7,30.06,NNW,338,0.0,0.0,78,0.00,,---,0.00,VWS V14.01,2013-06-11 10:30:00,
2013-06-11 06:31:00,73.9,66.7,30.06,NNW,338,0.0,0.0,78,0.00,,---,0.00,VWS V14.01,2013-06-11 10:31:00,
2013-06-11 06:32:00,73.9,66.7,30.06,NNW,338,0.0,0.0,78,0.00,,---,0.00,VWS V14.01,2013-06-11 10:32:00,
2013-06-11 06:33:00,73.9,66.7,30.06,NNW,338,0.0,0.0,78,0.00,,---,0.00,VWS V14.01,2013-06-11 10:33:00,
2013-06-11 06:34:00,73.9,66.7,30.06,NNW,338,0.0,0.0,78,0.00,,---,0.00,VWS V14.01,2013-06-11 10:34:00,
2013-06-11 06:35:00,73.9,66.7,30.06,NNW,338,0.0,0.0,78,0.00,,---,0.00,VWS V14.01,2013-06-11 10:35:00,
2013-06-11 06:36:00,73.9,66.7,30.06,NNW,338,0.0,0.0,78,0.00,,---,0.00,VWS V14.01,2013-06-11 10:36:00,
2013-06-11 06:37:00,73.9,66.7,30.06,NNW,338,0.0,0.0,78,0.00,,---,0.00,VWS V14.01,2013-06-11 10:37:00,
2013-06-11 06:38:00,73.9,66.7,30.06,NNW,338,0.0,0.0,78,0.00,,---,0.00,VWS V14.01,2013-06-11 10:38:00,
2013-06-11 06:39:00,73.9,66.7,30.06,NNW,338,0.0,0.0,78,0.00,,---,0.00,VWS V14.01,2013-06-11 10:39:00,
2013-06-11 06:40:00,73.9,66.7,30.06,NNW,338,0.0,0.0,78,0.00,,---,0.00,VWS V14.01,2013-06-11 10:40:00,
2013-06-11 06:41:00,73.9,66.7,30.06,NNW,338,0.0,0.0,78,0.00,,---,0.00,VWS V14.01,2013-06-11 10:41:00,
2013-06-11 06:42:00,73.9,66.7,30.06,NNW,338,0.0,0.0,78,0.00,,---,0.00,VWS V14.01,2013-06-11 10:42:00,
2013-06-11 06:43:00,73.9,67.0,30.06,NNW,338,0.0,0.0,79,0.00,,---,0.00,VWS V14.01,2013-06-11 10:43:00,
2013-06-11 06:44:00,73.9,67.0,30.06,NNW,338,0.0,0.0,79,0.00,,---,0.00,VWS V14.01,2013-06-11 10:44:00,
2013-06-11 06:45:00,73.9,67.0,30.06,NNW,338,0.0,0.0,79,0.00,,---,0.00,VWS V14.01,2013-06-11 10:45:00,
2013-06-11 06:46:00,73.9,67.0,30.06,NNW,338,0.0,0.0,79,0.00,,---,0.00,VWS V14.01,2013-06-11 10:46:00,
2013-06-11 06:47:00,73.9,67.0,30.06,NNW,338,0.0,0.0,79,0.00,,---,0.00,VWS V14.01,2013-06-11 10:47:00,
2013-06-11 06:48:00,73.9,67.0,30.06,NNW,338,0.0,0.0,79,0.00,,---,0.00,VWS V14.01,2013-06-11 10:48:00,
2013-06-11 06:49:00,73.9,67.0,30.06,NNW,338,0.0,0.0,79,0.00,,---,0.00,VWS V14.01,2013-06-11 10:49:00,
2013-06-11 06:50:00,73.9,67.0,30.06,NNW,338,0.0,0.0,79,0.00,,---,0.00,VWS V14.01,2013-06-11 10:50:00,
2013-06-11 06:51:00,73.9,67.0,30.06,NNW,338,0.0,0.0,79,0.00,,---,0.00,VWS V14.01,2013-06-11 10:51:00,
2013-06-11 06:52:00,73.9,67.0,30.06,NNW,338,0.0,0.0,79,0.00,,---,0.00,VWS V14.01,2013-06-11 10:52:00,
2013-06-11 06:53:00,73.9,67.0,30.06,NNW,338,0.0,0.0,79,0.00,,---,0.00,VWS V14.01,2013-06-11 10:53:00,
2013-06-11 06:54:00,74.1,67.2,30.06,NNW,338,0.0,0.0,79,0.00,,---,0.00,VWS V14.01,2013-06-11 10:54:00,
2013-06-11 06:55:00,74.1,67.2,30.06,NNW,338,0.0,0.0,79,0.00,,---,0.00,VWS V14.01,2013-06-11 10:55:00,
2013-06-11 06:56:00,74.1,67.2,30.06,NNW,338,0.0,0.0,79,0.00,,---,0.00,VWS V14.01,2013-06-11 10:56:00,
2013-06-11 06:57:00,74.1,67.2,30.06,NNW,338,0.0,0.0,79,0.00,,---,0.00,VWS V14.01,2013-06-11 10:57:00,
2013-06-11 06:58:00,74.3,67.4,30.06,NNW,338,0.0,0.0,79,0.00,,---,0.00,VWS V14.01,2013-06-11 10:58:00,
2013-06-11 06:59:00,74.5,67.6,30.06,NNW,338,0.0,0.0,79,0.00,,---,0.00,VWS V14.01,2013-06-11 10:59:00,
2013-06-11 07:00:00,74.3,67.4,30.06,NNW,338,0.0,0.0,79,0.00,,---,0.00,VWS V14.01,2013-06-11 11:00:00,
2013-06-11 07:01:00,74.3,67.4,30.06,NNW,338,0.0,0.0,79,0.00,,---,0.00,VWS V14.01,2013-06-11 11:01:00,
2013-06-11 07:02:00,74.5,67.9,30.06,NNW,338,0.0,0.0,80,0.00,,---,0.00,VWS V14.01,2013-06-11 11:02:00,
2013-06-11 07:03:00,74.5,67.9,30.06,NNW,338,0.0,0.0,80,0.00,,---,0.00,VWS V14.01,2013-06-11 11:03:00,
2013-06-11 07:04:00,74.7,68.1,30.06,NNW,338,0.0,0.0,80,0.00,,---,0.00,VWS V14.01,2013-06-11 11:04:00,
2013-06-11 07:05:00,74.7,68.1,30.06,NNW,338,0.0,0.0,80,0.00,,---,0.00,VWS V14.01,2013-06-11 11:05:00,
2013-06-11 07:06:00,74.7,68.1,30.06,NNW,338,0.0,0.0,80,0.00,,---,0.00,VWS V14.01,2013-06-11 11:06:00,
2013-06-11 07:07:00,74.7,68.1,30.06,NNW,338,0.0,0.0,80,0.00,,---,0.00,VWS V14.01,2013-06-11 11:07:00,
2013-06-11 07:08:00,74.8,68.3,30.06,NNW,338,0.0,0.0,80,0.00,,---,0.00,VWS V14.01,2013-06-11 11:08:00,
2013-06-11 07:09:00,75.0,68.4,30.06,NNW,338,0.0,0.0,80,0.00,,---,0.00,VWS V14.01,2013-06-11 11:09:00,
2013-06-11 07:10:00,74.8,68.3,30.06,NNW,338,0.0,0.0,80,0.00,,---,0.00,VWS V14.01,2013-06-11 11:10:00,
2013-06-11 07:11:00,75.0,68.4,30.06,NNW,338,0.0,0.0,80,0.00,,---,0.00,VWS V14.01,2013-06-11 11:11:00,
2013-06-11 07:12:00,75.0,68.4,30.06,NNW,338,0.0,0.0,80,0.00,,---,0.00,VWS V14.01,2013-06-11 11:12:00,
2013-06-11 07:13:00,75.0,68.4,30.06,NNW,338,0.0,0.0,80,0.00,,---,0.00,VWS V14.01,2013-06-11 11:13:00,
2013-06-11 07:14:00,75.2,68.2,30.06,NNW,338,0.0,0.0,79,0.00,,---,0.00,VWS V14.01,2013-06-11 11:14:00,
2013-06-11 07:15:00,75.2,68.2,30.06,NNW,338,0.0,0.0,79,0.00,,---,0.00,VWS V14.01,2013-06-11 11:15:00,
2013-06-11 07:16:00,75.2,68.2,30.06,NNW,338,0.0,0.0,79,0.00,,---,0.00,VWS V14.01,2013-06-11 11:16:00,
2013-06-11 07:17:00,75.4,68.4,30.06,NNW,338,0.0,0.0,79,0.00,,---,0.00,VWS V14.01,2013-06-11 11:17:00,
2013-06-11 07:18:00,75.4,68.4,30.06,NNW,338,0.0,0.0,79,0.00,,---,0.00,VWS V14.01,2013-06-11 11:18:00,
2013-06-11 07:19:00,75.6,68.6,30.06,NNW,338,0.0,0.0,79,0.00,,---,0.00,VWS V14.01,2013-06-11 11:19:00,
2013-06-11 07:20:00,75.6,68.6,30.06,NNW,338,0.0,0.0,79,0.00,,---,0.00,VWS V14.01,2013-06-11 11:20:00,
2013-06-11 07:21:00,75.6,68.6,30.06,NNW,338,0.0,0.0,79,0.00,,---,0.00,VWS V14.01,2013-06-11 11:21:00,
2013-06-11 07:23:00,75.7,68.8,30.06,NNW,338,0.0,0.0,79,0.00,,---,0.00,VWS V14.01,2013-06-11 11:23:00,
2013-06-11 07:24:00,75.9,68.9,30.06,NNW,338,0.0,0.0,79,0.00,,---,0.00,VWS V14.01,2013-06-11 11:24:00,
2013-06-11 07:25:00,75.9,68.9,30.06,NNW,338,0.0,0.0,79,0.00,,---,0.00,VWS V14.01,2013-06-11 11:25:00,
2013-06-11 07:26:00,75.9,68.9,30.06,NNW,338,0.0,0.0,79,0.00,,---,0.00,VWS V14.01,2013-06-11 11:26:00,
2013-06-11 07:27:00,76.1,69.1,30.06,NNW,338,0.0,0.0,79,0.00,,---,0.00,VWS V14.01,2013-06-11 11:27:00,
2013-06-11 07:28:00,76.1,69.1,30.06,NNW,338,0.0,0.0,79,0.00,,---,0.00,VWS V14.01,2013-06-11 11:28:00,
2013-06-11 07:29:00,76.3,69.3,30.06,NNW,338,0.0,0.0,79,0.00,,---,0.00,VWS V14.01,2013-06-11 11:29:00,
2013-06-11 07:30:00,76.1,69.1,30.06,NNW,338,0.0,0.0,79,0.00,,---,0.00,VWS V14.01,2013-06-11 11:30:00,
2013-06-11 07:31:00,76.3,69.3,30.06,NNW,338,0.0,0.0,79,0.00,,---,0.00,VWS V14.01,2013-06-11 11:31:00,
2013-06-11 07:32:00,76.3,69.3,30.06,NNW,338,0.0,0.0,79,0.00,,---,0.00,VWS V14.01,2013-06-11 11:32:00,
2013-06-11 07:33:00,76.5,69.5,30.06,NNW,338,0.0,0.0,79,0.00,,---,0.00,VWS V14.01,2013-06-11 11:33:00,
2013-06-11 07:34:00,76.6,69.6,30.06,NNW,338,0.0,0.0,79,0.00,,---,0.00,VWS V14.01,2013-06-11 11:34:00,
2013-06-11 07:35:00,76.5,69.5,30.06,NNW,338,0.0,0.0,79,0.00,,---,0.00,VWS V14.01,2013-06-11 11:35:00,
2013-06-11 07:36:00,76.6,69.6,30.06,NNW,338,0.0,0.0,79,0.00,,---,0.00,VWS V14.01,2013-06-11 11:36:00,
2013-06-11 07:37:00,76.6,69.6,30.06,NNW,338,0.0,0.0,79,0.00,,---,0.00,VWS V14.01,2013-06-11 11:37:00,
2013-06-11 07:38:00,76.8,69.8,30.06,NNW,338,0.0,0.0,79,0.00,,---,0.00,VWS V14.01,2013-06-11 11:38:00,
2013-06-11 07:39:00,77.0,69.6,30.06,NNW,338,0.0,0.0,78,0.00,,---,0.00,VWS V14.01,2013-06-11 11:39:00,
2013-06-11 07:40:00,76.8,69.4,30.06,NNW,338,0.0,0.0,78,0.00,,---,0.00,VWS V14.01,2013-06-11 11:40:00,
2013-06-11 07:41:00,77.0,69.6,30.06,NNW,338,0.0,0.0,78,0.00,,---,0.00,VWS V14.01,2013-06-11 11:41:00,
2013-06-11 07:42:00,77.0,69.6,30.06,NNW,338,0.0,0.0,78,0.00,,---,0.00,VWS V14.01,2013-06-11 11:42:00,
2013-06-11 07:43:00,77.2,69.8,30.06,NNW,338,0.0,0.0,78,0.00,,---,0.00,VWS V14.01,2013-06-11 11:43:00,
2013-06-11 07:44:00,77.4,69.6,30.06,NNW,338,0.0,0.0,77,0.00,,---,0.00,VWS V14.01,2013-06-11 11:44:00,
2013-06-11 07:45:00,77.4,69.6,30.06,NNW,338,0.0,0.0,77,0.00,,---,0.00,VWS V14.01,2013-06-11 11:45:00,
2013-06-11 07:46:00,77.4,69.6,30.06,NNW,338,0.0,0.0,77,0.00,,---,0.00,VWS V14.01,2013-06-11 11:46:00,
2013-06-11 07:47:00,77.7,69.9,30.06,NNW,338,0.0,0.0,77,0.00,,---,0.00,VWS V14.01,2013-06-11 11:47:00,
2013-06-11 07:48:00,77.7,69.9,30.06,NNW,338,0.0,0.0,77,0.00,,---,0.00,VWS V14.01,2013-06-11 11:48:00,
2013-06-11 07:49:00,78.1,70.3,30.06,NNW,338,0.0,0.0,77,0.00,,---,0.00,VWS V14.01,2013-06-11 11:49:00,
2013-06-11 07:50:00,77.9,70.1,30.06,NNW,338,0.0,0.0,77,0.00,,---,0.00,VWS V14.01,2013-06-11 11:50:00,
2013-06-11 07:51:00,77.9,70.1,30.06,NNW,338,0.0,0.0,77,0.00,,---,0.00,VWS V14.01,2013-06-11 11:51:00,
2013-06-11 07:52:00,78.1,70.3,30.06,NNW,338,0.0,0.0,77,0.00,,---,0.00,VWS V14.01,2013-06-11 11:52:00,
2013-06-11 07:53:00,78.3,70.5,30.06,NNW,338,0.0,0.0,77,0.00,,---,0.00,VWS V14.01,2013-06-11 11:53:00,
2013-06-11 07:54:00,78.3,70.5,30.06,NNW,338,0.0,0.0,77,0.00,,---,0.00,VWS V14.01,2013-06-11 11:54:00,
2013-06-11 07:55:00,78.6,70.4,30.06,NNW,338,0.0,0.0,76,0.00,,---,0.00,VWS V14.01,2013-06-11 11:55:00,
2013-06-11 07:56:00,78.6,70.4,30.06,NNW,338,0.0,0.0,76,0.00,,---,0.00,VWS V14.01,2013-06-11 11:56:00,
2013-06-11 07:57:00,78.6,70.4,30.06,NNW,338,0.0,0.0,76,0.00,,---,0.00,VWS V14.01,2013-06-11 11:57:00,
2013-06-11 07:58:00,78.6,70.4,30.06,NNW,338,0.0,0.0,76,0.00,,---,0.00,VWS V14.01,2013-06-11 11:58:00,
2013-06-11 07:59:00,78.8,70.6,30.09,NNW,338,0.0,0.0,76,0.00,,---,0.00,VWS V14.01,2013-06-11 11:59:00,
2013-06-11 08:00:00,79.0,70.4,30.09,NNW,338,0.0,0.0,75,0.00,,---,0.00,VWS V14.01,2013-06-11 12:00:00,
2013-06-11 08:01:00,78.8,70.2,30.09,NNW,338,0.0,0.0,75,0.00,,---,0.00,VWS V14.01,2013-06-11 12:01:00,
2013-06-11 08:02:00,79.0,70.4,30.09,NNW,338,0.0,0.0,75,0.00,,---,0.00,VWS V14.01,2013-06-11 12:02:00,
2013-06-11 08:03:00,79.2,70.6,30.09,NNW,338,0.0,0.0,75,0.00,,---,0.00,VWS V14.01,2013-06-11 12:03:00,
2013-06-11 08:04:00,79.2,70.6,30.09,NNW,338,0.0,0.0,75,0.00,,---,0.00,VWS V14.01,2013-06-11 12:04:00,
2013-06-11 08:05:00,79.7,70.7,30.09,NNW,338,0.0,0.0,74,0.00,,---,0.00,VWS V14.01,2013-06-11 12:05:00,
2013-06-11 08:06:00,79.2,70.6,30.09,NNW,338,0.0,0.0,75,0.00,,---,0.00,VWS V14.01,2013-06-11 12:06:00,
2013-06-11 08:07:00,79.7,70.7,30.09,NNW,338,0.0,0.0,74,0.00,,---,0.00,VWS V14.01,2013-06-11 12:07:00,
2013-06-11 08:08:00,79.9,70.9,30.09,NNW,338,0.0,0.0,74,0.00,,---,0.00,VWS V14.01,2013-06-11 12:08:00,
2013-06-11 08:09:00,80.1,71.0,30.09,NNW,338,0.0,0.0,74,0.00,,---,0.00,VWS V14.01,2013-06-11 12:09:00,
2013-06-11 08:10:00,80.2,70.8,30.09,NNW,338,0.0,0.0,73,0.00,,---,0.00,VWS V14.01,2013-06-11 12:10:00,
2013-06-11 08:11:00,80.2,70.8,30.09,NNW,338,0.0,0.0,73,0.00,,---,0.00,VWS V14.01,2013-06-11 12:11:00,
2013-06-11 08:12:00,80.2,70.8,30.09,NNW,338,0.0,0.0,73,0.00,,---,0.00,VWS V14.01,2013-06-11 12:12:00,
2013-06-11 08:13:00,80.4,71.0,30.09,NNW,338,0.0,0.0,73,0.00,,---,0.00,VWS V14.01,2013-06-11 12:13:00,
2013-06-11 08:14:00,80.6,70.8,30.09,NNW,338,0.0,0.0,72,0.00,,---,0.00,VWS V14.01,2013-06-11 12:14:00,
2013-06-11 08:15:00,81.0,70.7,30.09,NNW,338,0.0,0.0,71,0.00,,---,0.00,VWS V14.01,2013-06-11 12:15:00,
2013-06-11 08:16:00,80.8,70.9,30.09,NNW,338,0.0,0.0,72,0.00,,---,0.00,VWS V14.01,2013-06-11 12:16:00,
2013-06-11 08:17:00,81.0,70.7,30.09,NNW,338,0.0,0.0,71,0.00,,---,0.00,VWS V14.01,2013-06-11 12:17:00,
2013-06-11 08:18:00,81.1,70.8,30.09,NNW,338,0.0,0.0,71,0.00,,---,0.00,VWS V14.01,2013-06-11 12:18:00,
2013-06-11 08:19:00,81.1,70.8,30.09,NNW,338,0.0,0.0,71,0.00,,---,0.00,VWS V14.01,2013-06-11 12:19:00,
2013-06-11 08:20:00,81.5,70.8,30.09,NNW,338,0.0,0.0,70,0.00,,---,0.00,VWS V14.01,2013-06-11 12:20:00,
2013-06-11 08:21:00,81.3,70.6,30.09,NNW,338,0.0,0.0,70,0.00,,---,0.00,VWS V14.01,2013-06-11 12:21:00,
2013-06-11 08:22:00,81.5,70.8,30.09,NNW,338,0.0,0.0,70,0.00,,---,0.00,VWS V14.01,2013-06-11 12:22:00,
2013-06-11 08:23:00,81.5,70.8,30.09,NNW,338,0.0,0.0,70,0.00,,---,0.00,VWS V14.01,2013-06-11 12:23:00,
2013-06-11 08:24:00,81.5,70.4,30.09,NNW,338,0.0,0.0,69,0.00,,---,0.00,VWS V14.01,2013-06-11 12:24:00,
2013-06-11 08:25:00,81.5,69.9,30.09,NNW,338,0.0,0.0,68,0.00,,---,0.00,VWS V14.01,2013-06-11 12:25:00,
2013-06-11 08:26:00,81.7,70.1,30.09,NNW,338,0.0,0.0,68,0.00,,---,0.00,VWS V14.01,2013-06-11 12:26:00,
2013-06-11 08:27:00,81.5,69.9,30.09,NNW,338,0.0,0.0,68,0.00,,---,0.00,VWS V14.01,2013-06-11 12:27:00,
2013-06-11 08:28:00,81.5,69.5,30.09,NNW,338,0.0,0.0,67,0.00,,---,0.00,VWS V14.01,2013-06-11 12:28:00,
2013-06-11 08:29:00,81.5,69.5,30.09,NNW,338,0.0,0.0,67,0.00,,---,0.00,VWS V14.01,2013-06-11 12:29:00,
2013-06-11 08:30:00,81.5,69.1,30.09,NNW,338,0.0,0.0,66,0.00,,---,0.00,VWS V14.01,2013-06-11 12:30:00,
2013-06-11 08:31:00,81.5,69.5,30.09,NNW,338,0.0,0.0,67,0.00,,---,0.00,VWS V14.01,2013-06-11 12:31:00,
2013-06-11 08:32:00,81.3,68.9,30.09,NNW,338,0.0,0.0,66,0.00,,---,0.00,VWS V14.01,2013-06-11 12:32:00,
2013-06-11 08:33:00,81.5,69.1,30.09,NNW,338,0.0,0.0,66,0.00,,---,0.00,VWS V14.01,2013-06-11 12:33:00,
2013-06-11 08:34:00,81.3,68.4,30.09,NNW,338,0.0,0.0,65,0.00,,---,0.00,VWS V14.01,2013-06-11 12:34:00,
2013-06-11 08:35:00,81.5,68.2,30.09,NNW,338,0.0,0.0,64,0.00,,---,0.00,VWS V14.01,2013-06-11 12:35:00,
2013-06-11 08:36:00,81.3,68.0,30.09,NNW,338,0.0,0.0,64,0.00,,---,0.00,VWS V14.01,2013-06-11 12:36:00,
2013-06-11 08:37:00,81.5,68.2,30.09,NNW,338,0.0,0.0,64,0.00,,---,0.00,VWS V14.01,2013-06-11 12:37:00,
2013-06-11 08:38:00,81.5,68.2,30.09,NNW,338,0.0,0.0,64,0.00,,---,0.00,VWS V14.01,2013-06-11 12:38:00,
2013-06-11 08:39:00,81.5,68.2,30.09,NNW,338,0.0,0.0,64,0.00,,---,0.00,VWS V14.01,2013-06-11 12:39:00,
2013-06-11 08:40:00,82.2,69.3,30.09,NNW,338,0.0,0.0,65,0.00,,---,0.00,VWS V14.01,2013-06-11 12:40:00,
2013-06-11 08:41:00,81.9,68.5,30.09,NNW,338,0.0,0.0,64,0.00,,---,0.00,VWS V14.01,2013-06-11 12:41:00,
2013-06-11 08:42:00,82.2,69.3,30.09,NNW,338,0.0,0.0,65,0.00,,---,0.00,VWS V14.01,2013-06-11 12:42:00,
2013-06-11 08:43:00,82.4,69.0,30.09,NNW,338,0.0,0.0,64,0.00,,---,0.00,VWS V14.01,2013-06-11 12:43:00,
2013-06-11 08:44:00,82.4,69.0,30.09,NNW,338,0.0,0.0,64,0.00,,---,0.00,VWS V14.01,2013-06-11 12:44:00,
2013-06-11 08:45:00,82.9,69.1,30.09,NNW,338,0.0,0.0,63,0.00,,---,0.00,VWS V14.01,2013-06-11 12:45:00,
2013-06-11 08:46:00,82.8,69.3,30.09,NNW,338,0.0,0.0,64,0.00,,---,0.00,VWS V14.01,2013-06-11 12:46:00,
2013-06-11 08:47:00,82.9,69.1,30.09,NNW,338,0.0,0.0,63,0.00,,---,0.00,VWS V14.01,2013-06-11 12:47:00,
2013-06-11 08:48:00,82.9,69.1,30.09,NNW,338,0.0,0.0,63,0.00,,---,0.00,VWS V14.01,2013-06-11 12:48:00,
2013-06-11 08:49:00,83.1,69.2,30.09,NNW,338,0.0,0.0,63,0.00,,---,0.00,VWS V14.01,2013-06-11 12:49:00,
2013-06-11 08:50:00,83.5,69.1,30.09,NNW,338,0.0,0.0,62,0.00,,---,0.00,VWS V14.01,2013-06-11 12:50:00,
2013-06-11 08:51:00,83.5,69.1,30.09,NNW,338,0.0,0.0,62,0.00,,---,0.00,VWS V14.01,2013-06-11 12:51:00,
2013-06-11 08:52:00,83.5,69.1,30.09,NNW,338,0.0,0.0,62,0.00,,---,0.00,VWS V14.01,2013-06-11 12:52:00,
2013-06-11 08:53:00,83.7,68.8,30.09,NNW,338,0.0,0.0,61,0.00,,---,0.00,VWS V14.01,2013-06-11 12:53:00,
2013-06-11 08:54:00,83.7,68.8,30.09,NNW,338,0.0,0.0,61,0.00,,---,0.00,VWS V14.01,2013-06-11 12:54:00,
2013-06-11 08:55:00,83.7,66.8,30.09,NNW,338,0.0,0.0,57,0.00,,---,0.00,VWS V14.01,2013-06-11 12:55:00,
2013-06-11 08:56:00,83.7,66.8,30.09,NNW,338,0.0,0.0,57,0.00,,---,0.00,VWS V14.01,2013-06-11 12:56:00,
2013-06-11 08:57:00,83.7,66.8,30.09,NNW,338,0.0,0.0,57,0.00,,---,0.00,VWS V14.01,2013-06-11 12:57:00,
2013-06-11 08:58:00,83.7,66.8,30.09,NNW,338,0.0,0.0,57,0.00,,---,0.00,VWS V14.01,2013-06-11 12:58:00,
2013-06-11 08:59:00,83.8,67.0,30.12,NNW,338,0.0,0.0,57,0.00,,---,0.00,VWS V14.01,2013-06-11 12:59:00,
2013-06-11 09:00:00,84.0,67.2,30.12,NNW,338,0.0,0.0,57,0.00,,---,0.00,VWS V14.01,2013-06-11 13:00:00,
2013-06-11 09:01:00,83.8,67.0,30.12,NNW,338,0.0,0.0,57,0.00,,---,0.00,VWS V14.01,2013-06-11 13:01:00,
2013-06-11 09:02:00,84.0,67.2,30.12,NNW,338,0.0,0.0,57,0.00,,---,0.00,VWS V14.01,2013-06-11 13:02:00,
2013-06-11 09:03:00,84.7,67.3,30.12,NNW,338,0.0,0.0,56,0.00,,---,0.00,VWS V14.01,2013-06-11 13:03:00,
2013-06-11 09:04:00,84.9,67.5,30.12,NNW,338,0.0,0.0,56,0.00,,---,0.00,VWS V14.01,2013-06-11 13:04:00,
2013-06-11 09:05:00,84.9,66.4,30.12,NNW,338,0.0,0.0,54,0.00,,---,0.00,VWS V14.01,2013-06-11 13:05:00,
2013-06-11 09:06:00,84.7,66.8,30.12,NNW,338,0.0,0.0,55,0.00,,---,0.00,VWS V14.01,2013-06-11 13:06:00,
2013-06-11 09:07:00,84.9,66.4,30.12,NNW,338,0.0,0.0,54,0.00,,---,0.00,VWS V14.01,2013-06-11 13:07:00,
2013-06-11 09:08:00,85.1,66.6,30.12,NNW,338,0.0,0.0,54,0.00,,---,0.00,VWS V14.01,2013-06-11 13:08:00,
2013-06-11 09:09:00,85.3,66.8,30.12,NNW,338,0.0,0.0,54,0.00,,---,0.00,VWS V14.01,2013-06-11 13:09:00,
2013-06-11 09:10:00,85.6,66.6,30.12,NNW,338,0.0,0.0,53,0.00,,---,0.00,VWS V14.01,2013-06-11 13:10:00,
2013-06-11 09:11:00,85.6,66.6,30.12,NNW,338,0.0,0.0,53,0.00,,---,0.00,VWS V14.01,2013-06-11 13:11:00,
2013-06-11 09:12:00,85.6,66.6,30.12,NNW,338,0.0,0.0,53,0.00,,---,0.00,VWS V14.01,2013-06-11 13:12:00,
2013-06-11 09:13:00,86.0,66.9,30.12,NNW,338,0.0,0.0,53,0.00,,---,0.00,VWS V14.01,2013-06-11 13:13:00,
2013-06-11 09:14:00,86.2,67.1,30.09,NNW,338,0.0,0.0,53,0.00,,---,0.00,VWS V14.01,2013-06-11 13:14:00,
2013-06-11 09:15:00,86.9,66.6,30.09,NNW,338,0.0,0.0,51,0.00,,---,0.00,VWS V14.01,2013-06-11 13:15:00,
2013-06-11 09:16:00,86.7,66.4,30.09,NNW,338,0.0,0.0,51,0.00,,---,0.00,VWS V14.01,2013-06-11 13:16:00,
2013-06-11 09:17:00,86.9,66.6,30.09,NNW,338,0.0,0.0,51,0.00,,---,0.00,VWS V14.01,2013-06-11 13:17:00,
2013-06-11 09:18:00,86.9,66.6,30.09,NNW,338,0.0,0.0,51,0.00,,---,0.00,VWS V14.01,2013-06-11 13:18:00,
2013-06-11 09:19:00,86.9,66.0,30.09,NNW,338,0.0,0.0,50,0.00,,---,0.00,VWS V14.01,2013-06-11 13:19:00,
2013-06-11 09:20:00,87.1,66.2,30.09,NNW,338,0.0,0.0,50,0.00,,---,0.00,VWS V14.01,2013-06-11 13:20:00,
2013-06-11 09:21:00,87.1,66.2,30.09,NNW,338,0.0,0.0,50,0.00,,---,0.00,VWS V14.01,2013-06-11 13:21:00,
2013-06-11 09:22:00,87.1,66.2,30.09,NNW,338,0.0,0.0,50,0.00,,---,0.00,VWS V14.01,2013-06-11 13:22:00,
2013-06-11 09:23:00,87.1,66.2,30.09,NNW,338,0.0,0.0,50,0.00,,---,0.00,VWS V14.01,2013-06-11 13:23:00,
2013-06-11 09:24:00,87.1,64.4,30.09,NNW,338,0.0,0.0,47,0.00,,---,0.00,VWS V14.01,2013-06-11 13:24:00,
2013-06-11 09:25:00,87.3,64.0,30.09,NNW,338,0.0,0.0,46,0.00,,---,0.00,VWS V14.01,2013-06-11 13:25:00,
2013-06-11 09:26:00,87.1,63.8,30.09,NNW,338,0.0,0.0,46,0.00,,---,0.00,VWS V14.01,2013-06-11 13:26:00,
2013-06-11 09:27:00,87.3,64.0,30.09,NNW,338,0.0,0.0,46,0.00,,---,0.00,VWS V14.01,2013-06-11 13:27:00,
2013-06-11 09:28:00,87.3,64.0,30.09,NNW,338,0.0,0.0,46,0.00,,---,0.00,VWS V14.01,2013-06-11 13:28:00,
2013-06-11 09:29:00,87.6,64.9,30.09,NNW,338,0.0,0.0,47,0.00,,---,0.00,VWS V14.01,2013-06-11 13:29:00,
2013-06-11 09:30:00,87.6,64.9,30.09,NNW,338,0.0,0.0,47,0.00,,---,0.00,VWS V14.01,2013-06-11 13:30:00,
2013-06-11 09:31:00,87.4,64.1,30.09,NNW,338,0.0,0.0,46,0.00,,---,0.00,VWS V14.01,2013-06-11 13:31:00,
2013-06-11 09:32:00,87.6,64.9,30.09,NNW,338,0.0,0.0,47,0.00,,---,0.00,VWS V14.01,2013-06-11 13:32:00,
2013-06-11 09:33:00,87.6,62.4,30.09,NNW,338,0.0,0.0,43,0.00,,---,0.00,VWS V14.01,2013-06-11 13:33:00,
2013-06-11 09:34:00,87.3,62.7,30.09,NNW,338,0.0,0.0,44,0.00,,---,0.00,VWS V14.01,2013-06-11 13:34:00,
2013-06-11 09:35:00,88.0,64.6,30.09,NNW,338,0.0,0.0,46,0.00,,---,0.00,VWS V14.01,2013-06-11 13:35:00,
2013-06-11 09:36:00,87.4,63.5,30.09,NNW,338,0.0,0.0,45,0.00,,---,0.00,VWS V14.01,2013-06-11 13:36:00,
2013-06-11 09:37:00,88.0,64.6,30.09,NNW,338,0.0,0.0,46,0.00,,---,0.00,VWS V14.01,2013-06-11 13:37:00,
2013-06-11 09:38:00,88.0,64.6,30.09,NNW,338,0.0,0.0,46,0.00,,---,0.00,VWS V14.01,2013-06-11 13:38:00,
2013-06-11 09:39:00,88.0,63.4,30.09,NNW,338,0.0,0.0,44,0.00,,---,0.00,VWS V14.01,2013-06-11 13:39:00,
2013-06-11 09:40:00,88.0,63.4,30.09,NNW,338,0.0,0.0,44,0.00,,---,0.00,VWS V14.01,2013-06-11 13:40:00,
2013-06-11 09:41:00,88.0,63.4,30.09,NNW,338,0.0,0.0,44,0.00,,---,0.00,VWS V14.01,2013-06-11 13:41:00,
2013-06-11 09:42:00,88.0,63.4,30.09,NNW,338,0.0,0.0,44,0.00,,---,0.00,VWS V14.01,2013-06-11 13:42:00,
2013-06-11 09:43:00,88.0,63.4,30.09,NNW,338,0.0,0.0,44,0.00,,---,0.00,VWS V14.01,2013-06-11 13:43:00,
2013-06-11 09:44:00,88.0,63.4,30.09,NNW,338,0.0,0.0,44,0.00,,---,0.00,VWS V14.01,2013-06-11 13:44:00,
2013-06-11 09:45:00,87.8,61.9,30.09,NNW,338,0.0,0.0,42,0.00,,---,0.00,VWS V14.01,2013-06-11 13:45:00,
2013-06-11 09:46:00,87.8,61.9,30.09,NNW,338,0.0,0.0,42,0.00,,---,0.00,VWS V14.01,2013-06-11 13:46:00,
2013-06-11 09:47:00,87.8,61.9,30.09,NNW,338,0.0,0.0,42,0.00,,---,0.00,VWS V14.01,2013-06-11 13:47:00,
2013-06-11 09:48:00,88.5,62.5,30.09,NNW,338,0.0,0.0,42,0.00,,---,0.00,VWS V14.01,2013-06-11 13:48:00,
2013-06-11 09:49:00,88.3,61.7,30.09,NNW,338,0.0,0.0,41,0.00,,---,0.00,VWS V14.01,2013-06-11 13:49:00,
2013-06-11 09:50:00,88.2,61.5,30.09,NNW,338,0.0,0.0,41,0.00,,---,0.00,VWS V14.01,2013-06-11 13:50:00,
2013-06-11 09:51:00,87.8,60.5,30.09,NNW,338,0.0,0.0,40,0.00,,---,0.00,VWS V14.01,2013-06-11 13:51:00,
2013-06-11 09:52:00,88.2,61.5,30.09,NNW,338,0.0,0.0,41,0.00,,---,0.00,VWS V14.01,2013-06-11 13:52:00,
2013-06-11 09:53:00,88.2,61.5,30.09,NNW,338,0.0,0.0,41,0.00,,---,0.00,VWS V14.01,2013-06-11 13:53:00,
2013-06-11 09:54:00,88.5,62.5,30.09,NNW,338,0.0,0.0,42,0.00,,---,0.00,VWS V14.01,2013-06-11 13:54:00,
2013-06-11 09:55:00,88.7,62.0,30.09,NNW,338,0.0,0.0,41,0.00,,---,0.00,VWS V14.01,2013-06-11 13:55:00,
2013-06-11 09:56:00,88.5,61.1,30.09,NNW,338,0.0,0.0,40,0.00,,---,0.00,VWS V14.01,2013-06-11 13:56:00,
2013-06-11 09:57:00,88.7,62.0,30.09,NNW,338,0.0,0.0,41,0.00,,---,0.00,VWS V14.01,2013-06-11 13:57:00,
2013-06-11 09:58:00,89.1,62.3,30.09,NNW,338,0.0,0.0,41,0.00,,---,0.00,VWS V14.01,2013-06-11 13:58:00,
2013-06-11 09:59:00,89.4,62.6,30.09,NNW,338,0.0,0.0,41,0.00,,---,0.00,VWS V14.01,2013-06-11 13:59:00,
2013-06-11 10:00:00,89.8,62.3,30.09,NNW,338,0.0,0.0,40,0.00,,---,0.00,VWS V14.01,2013-06-11 14:00:00,
2013-06-11 10:01:00,89.6,61.4,30.09,NNW,338,0.0,0.0,39,0.00,,---,0.00,VWS V14.01,2013-06-11 14:01:00,
2013-06-11 10:02:00,89.8,62.3,30.09,NNW,338,0.0,0.0,40,0.00,,---,0.00,VWS V14.01,2013-06-11 14:02:00,
2013-06-11 10:03:00,89.8,62.3,30.09,NNW,338,0.0,0.0,40,0.00,,---,0.00,VWS V14.01,2013-06-11 14:03:00,
2013-06-11 10:04:00,90.0,61.7,30.09,NNW,338,0.0,0.0,39,0.00,,---,0.00,VWS V14.01,2013-06-11 14:04:00,
2013-06-11 10:05:00,89.8,61.5,30.09,NNW,338,0.0,0.0,39,0.00,,---,0.00,VWS V14.01,2013-06-11 14:05:00,
2013-06-11 10:06:00,89.8,61.5,30.09,NNW,338,0.0,0.0,39,0.00,,---,0.00,VWS V14.01,2013-06-11 14:06:00,
2013-06-11 10:07:00,89.8,61.5,30.09,NNW,338,0.0,0.0,39,0.00,,---,0.00,VWS V14.01,2013-06-11 14:07:00,
2013-06-11 10:08:00,90.0,61.7,30.09,NNW,338,0.0,0.0,39,0.00,,---,0.00,VWS V14.01,2013-06-11 14:08:00,
2013-06-11 10:09:00,90.1,61.9,30.09,NNW,338,0.0,0.0,39,0.00,,---,0.00,VWS V14.01,2013-06-11 14:09:00,
2013-06-11 10:10:00,90.7,62.3,30.09,NNW,338,0.0,0.0,39,0.00,,---,0.00,VWS V14.01,2013-06-11 14:10:00,
2013-06-11 10:11:00,90.7,62.3,30.09,NNW,338,0.0,0.0,39,0.00,,---,0.00,VWS V14.01,2013-06-11 14:11:00,
2013-06-11 10:12:00,90.7,62.3,30.09,NNW,338,0.0,0.0,39,0.00,,---,0.00,VWS V14.01,2013-06-11 14:12:00,
2013-06-11 10:13:00,90.5,61.5,30.09,NNW,338,0.0,0.0,38,0.00,,---,0.00,VWS V14.01,2013-06-11 14:13:00,
2013-06-11 10:14:00,90.7,61.6,30.09,NNW,338,0.0,0.0,38,0.00,,---,0.00,VWS V14.01,2013-06-11 14:14:00,
2013-06-11 10:15:00,91.0,61.2,30.09,NNW,338,0.0,0.0,37,0.00,,---,0.00,VWS V14.01,2013-06-11 14:15:00,
2013-06-11 10:16:00,91.0,61.2,30.09,NNW,338,0.0,0.0,37,0.00,,---,0.00,VWS V14.01,2013-06-11 14:16:00,
2013-06-11 10:17:00,91.0,61.2,30.09,NNW,338,0.0,0.0,37,0.00,,---,0.00,VWS V14.01,2013-06-11 14:17:00,
2013-06-11 10:18:00,91.2,61.3,30.09,NNW,338,0.0,0.0,37,0.00,,---,0.00,VWS V14.01,2013-06-11 14:18:00,
2013-06-11 10:19:00,91.4,61.5,30.09,NNW,338,0.0,0.0,37,0.00,,---,0.00,VWS V14.01,2013-06-11 14:19:00,
2013-06-11 10:20:00,92.1,60.6,30.09,NNW,338,0.0,0.0,35,0.00,,---,0.00,VWS V14.01,2013-06-11 14:20:00,
2013-06-11 10:21:00,91.8,60.2,30.09,NNW,338,0.0,0.0,35,0.00,,---,0.00,VWS V14.01,2013-06-11 14:21:00,
2013-06-11 10:22:00,92.1,60.6,30.09,NNW,338,0.0,0.0,35,0.00,,---,0.00,VWS V14.01,2013-06-11 14:22:00,
2013-06-11 10:23:00,92.5,60.9,30.09,NNW,338,0.0,0.0,35,0.00,,---,0.00,VWS V14.01,2013-06-11 14:23:00,
2013-06-11 10:24:00,92.5,60.9,30.09,NNW,338,0.0,0.0,35,0.00,,---,0.00,VWS V14.01,2013-06-11 14:24:00,
2013-06-11 10:25:00,92.7,59.4,30.09,NNW,338,0.0,0.0,33,0.00,,---,0.00,VWS V14.01,2013-06-11 14:25:00,
2013-06-11 10:26:00,92.7,59.4,30.09,NNW,338,0.0,0.0,33,0.00,,---,0.00,VWS V14.01,2013-06-11 14:26:00,
2013-06-11 10:27:00,92.8,58.7,30.09,NNW,338,0.0,0.0,32,0.00,,---,0.00,VWS V14.01,2013-06-11 14:27:00,
2013-06-11 10:28:00,92.7,59.4,30.09,NNW,338,0.0,0.0,33,0.00,,---,0.00,VWS V14.01,2013-06-11 14:28:00,
2013-06-11 10:29:00,92.7,58.5,30.09,NNW,338,0.0,0.0,32,0.00,,---,0.00,VWS V14.01,2013-06-11 14:29:00,
2013-06-11 10:30:00,92.7,57.6,30.09,NNW,338,0.0,0.0,31,0.00,,---,0.00,VWS V14.01,2013-06-11 14:30:00,
2013-06-11 10:31:00,92.8,58.7,30.09,NNW,338,0.0,0.0,32,0.00,,---,0.00,VWS V14.01,2013-06-11 14:31:00,
2013-06-11 10:32:00,92.7,57.6,30.09,NNW,338,0.0,0.0,31,0.00,,---,0.00,VWS V14.01,2013-06-11 14:32:00,
2013-06-11 10:33:00,92.7,58.5,30.09,NNW,338,0.0,0.0,32,0.00,,---,0.00,VWS V14.01,2013-06-11 14:33:00,
2013-06-11 10:34:00,93.0,59.7,30.09,NNW,338,0.0,0.0,33,0.00,,---,0.00,VWS V14.01,2013-06-11 14:34:00,
2013-06-11 10:35:00,92.3,58.2,30.09,NNW,338,0.0,0.0,32,0.00,,---,0.00,VWS V14.01,2013-06-11 14:35:00,
2013-06-11 10:36:00,92.5,57.5,30.09,NNW,338,0.0,0.0,31,0.00,,---,0.00,VWS V14.01,2013-06-11 14:36:00,
2013-06-11 10:37:00,92.3,58.2,30.09,NNW,338,0.0,0.0,32,0.00,,---,0.00,VWS V14.01,2013-06-11 14:37:00,
2013-06-11 10:38:00,92.1,57.2,30.09,NNW,338,0.0,0.0,31,0.00,,---,0.00,VWS V14.01,2013-06-11 14:38:00,
2013-06-11 10:39:00,92.3,58.2,30.09,NNW,338,0.0,0.0,32,0.00,,---,0.00,VWS V14.01,2013-06-11 14:39:00,
2013-06-11 10:40:00,92.1,58.0,30.09,NNW,338,0.0,0.0,32,0.00,,---,0.00,VWS V14.01,2013-06-11 14:40:00,
2013-06-11 10:41:00,92.1,58.0,30.09,NNW,338,0.0,0.0,32,0.00,,---,0.00,VWS V14.01,2013-06-11 14:41:00,
2013-06-11 10:42:00,91.9,57.0,30.09,NNW,338,0.0,0.0,31,0.00,,---,0.00,VWS V14.01,2013-06-11 14:42:00,
2013-06-11 10:43:00,91.8,56.8,30.09,NNW,338,0.0,0.0,31,0.00,,---,0.00,VWS V14.01,2013-06-11 14:43:00,
2013-06-11 10:44:00,92.1,57.2,30.12,NNW,338,0.0,0.0,31,0.00,,---,0.00,VWS V14.01,2013-06-11 14:44:00,
2013-06-11 10:45:00,93.0,58.8,30.12,NNW,338,0.0,0.0,32,0.00,,---,0.00,VWS V14.01,2013-06-11 14:45:00,
2013-06-11 10:46:00,92.7,58.5,30.12,NNW,338,0.0,0.0,32,0.00,,---,0.00,VWS V14.01,2013-06-11 14:46:00,
2013-06-11 10:47:00,93.0,58.8,30.12,NNW,338,0.0,0.0,32,0.00,,---,0.00,VWS V14.01,2013-06-11 14:47:00,
2013-06-11 10:48:00,93.2,57.2,30.12,NNW,338,0.0,0.0,30,0.00,,---,0.00,VWS V14.01,2013-06-11 14:48:00,
2013-06-11 10:49:00,93.7,57.7,30.12,NNW,338,0.0,0.0,30,0.00,,---,0.00,VWS V14.01,2013-06-11 14:49:00,
2013-06-11 10:50:00,94.1,57.0,30.12,NNW,338,0.0,0.0,29,0.00,,---,0.00,VWS V14.01,2013-06-11 14:50:00,
2013-06-11 10:51:00,94.1,58.0,30.12,NNW,338,0.0,0.0,30,0.00,,---,0.00,VWS V14.01,2013-06-11 14:51:00,
2013-06-11 10:52:00,94.1,57.0,30.12,NNW,338,0.0,0.0,29,0.00,,---,0.00,VWS V14.01,2013-06-11 14:52:00,
2013-06-11 10:53:00,94.5,58.3,30.12,NNW,338,0.0,0.0,30,0.00,,---,0.00,VWS V14.01,2013-06-11 14:53:00,
2013-06-11 10:54:00,94.6,57.5,30.12,NNW,338,0.0,0.0,29,0.00,,---,0.00,VWS V14.01,2013-06-11 14:54:00,
2013-06-11 10:55:00,93.9,56.9,30.12,NNW,338,0.0,0.0,29,0.00,,---,0.00,VWS V14.01,2013-06-11 14:55:00,
2013-06-11 10:56:00,94.6,57.5,30.12,NNW,338,0.0,0.0,29,0.00,,---,0.00,VWS V14.01,2013-06-11 14:56:00,
2013-06-11 10:57:00,93.4,56.4,30.12,NNW,338,0.0,0.0,29,0.00,,---,0.00,VWS V14.01,2013-06-11 14:57:00,
2013-06-11 10:58:00,93.0,56.1,30.12,NNW,338,0.0,0.0,29,0.00,,---,0.00,VWS V14.01,2013-06-11 14:58:00,
2013-06-11 10:59:00,92.5,55.6,30.09,NNW,338,0.0,0.0,29,0.00,,---,0.00,VWS V14.01,2013-06-11 14:59:00,
2013-06-11 11:00:00,91.6,54.9,30.09,NNW,338,0.0,0.0,29,0.00,,---,0.00,VWS V14.01,2013-06-11 15:00:00,
2013-06-11 11:01:00,91.8,55.0,30.09,NNW,338,0.0,0.0,29,0.00,,---,0.00,VWS V14.01,2013-06-11 15:01:00,
2013-06-11 11:02:00,91.6,54.9,30.09,NNW,338,0.0,0.0,29,0.00,,---,0.00,VWS V14.01,2013-06-11 15:02:00,
2013-06-11 11:03:00,91.4,55.6,30.09,NNW,338,0.0,0.0,30,0.00,,---,0.00,VWS V14.01,2013-06-11 15:03:00,
2013-06-11 11:04:00,91.0,55.3,30.09,NNW,338,0.0,0.0,30,0.00,,---,0.00,VWS V14.01,2013-06-11 15:04:00,
2013-06-11 11:05:00,90.5,54.9,30.09,NNW,338,0.0,0.0,30,0.00,,---,0.00,VWS V14.01,2013-06-11 15:05:00,
2013-06-11 11:06:00,90.7,55.0,30.09,NNW,338,0.0,0.0,30,0.00,,---,0.00,VWS V14.01,2013-06-11 15:06:00,
2013-06-11 11:07:00,90.5,54.9,30.09,NNW,338,0.0,0.0,30,0.00,,---,0.00,VWS V14.01,2013-06-11 15:07:00,
2013-06-11 11:08:00,90.3,55.6,30.09,NNW,338,0.0,0.0,31,0.00,,---,0.00,VWS V14.01,2013-06-11 15:08:00,
2013-06-11 11:09:00,90.3,55.6,30.09,NNW,338,0.0,0.0,31,0.00,,---,0.00,VWS V14.01,2013-06-11 15:09:00,
2013-06-11 11:10:00,89.4,54.8,30.09,NNW,338,0.0,0.0,31,0.00,,---,0.00,VWS V14.01,2013-06-11 15:10:00,
2013-06-11 11:11:00,89.6,54.1,30.09,NNW,338,0.0,0.0,30,0.00,,---,0.00,VWS V14.01,2013-06-11 15:11:00,
2013-06-11 11:12:00,89.1,54.5,30.09,NNW,338,0.0,0.0,31,0.00,,---,0.00,VWS V14.01,2013-06-11 15:12:00,
2013-06-11 11:13:00,88.9,54.4,30.09,NNW,338,0.0,0.0,31,0.00,,---,0.00,VWS V14.01,2013-06-11 15:13:00,
2013-06-11 11:14:00,88.5,54.1,30.12,NNW,338,0.0,0.0,31,0.00,,---,0.00,VWS V14.01,2013-06-11 15:14:00,
2013-06-11 11:15:00,87.1,54.5,30.12,NNW,338,0.0,0.0,33,0.00,,---,0.00,VWS V14.01,2013-06-11 15:15:00,
2013-06-11 11:16:00,87.6,54.2,30.12,NNW,338,0.0,0.0,32,0.00,,---,0.00,VWS V14.01,2013-06-11 15:16:00,
2013-06-11 11:17:00,87.1,54.5,30.12,NNW,338,0.0,0.0,33,0.00,,---,0.00,VWS V14.01,2013-06-11 15:17:00,
2013-06-11 11:18:00,87.1,54.5,30.12,NNW,338,0.0,0.0,33,0.00,,---,0.00,VWS V14.01,2013-06-11 15:18:00,
2013-06-11 11:19:00,86.5,54.9,30.12,NNW,338,0.0,0.0,34,0.00,,---,0.00,VWS V14.01,2013-06-11 15:19:00,
2013-06-11 11:20:00,85.6,55.7,30.12,NNW,338,0.0,0.0,36,0.00,,---,0.00,VWS V14.01,2013-06-11 15:20:00,
2013-06-11 11:21:00,85.6,55.7,30.12,NNW,338,0.0,0.0,36,0.00,,---,0.00,VWS V14.01,2013-06-11 15:21:00,
2013-06-11 11:22:00,85.6,55.7,30.12,NNW,338,0.0,0.0,36,0.00,,---,0.00,VWS V14.01,2013-06-11 15:22:00,
2013-06-11 11:23:00,85.6,55.7,30.12,NNW,338,0.0,0.0,36,0.00,,---,0.00,VWS V14.01,2013-06-11 15:23:00,
2013-06-11 11:24:00,85.6,55.7,30.12,NNW,338,0.0,0.0,36,0.00,,---,0.00,VWS V14.01,2013-06-11 15:24:00,
2013-06-11 11:25:00,85.6,55.7,30.12,NNW,338,0.0,0.0,36,0.00,,---,0.00,VWS V14.01,2013-06-11 15:25:00,
2013-06-11 11:26:00,85.6,55.7,30.12,NNW,338,0.0,0.0,36,0.00,,---,0.00,VWS V14.01,2013-06-11 15:26:00,
2013-06-11 11:27:00,85.6,55.7,30.12,NNW,338,0.0,0.0,36,0.00,,---,0.00,VWS V14.01,2013-06-11 15:27:00,
2013-06-11 11:28:00,85.6,55.7,30.12,NNW,338,0.0,0.0,36,0.00,,---,0.00,VWS V14.01,2013-06-11 15:28:00,
2013-06-11 11:29:00,85.6,55.7,30.09,NNW,338,0.0,0.0,36,0.00,,---,0.00,VWS V14.01,2013-06-11 15:29:00,
2013-06-11 11:30:00,85.6,55.7,30.09,NNW,338,0.0,0.0,36,0.00,,---,0.00,VWS V14.01,2013-06-11 15:30:00,
2013-06-11 11:31:00,85.6,55.7,30.09,NNW,338,0.0,0.0,36,0.00,,---,0.00,VWS V14.01,2013-06-11 15:31:00,
2013-06-11 11:32:00,85.6,55.7,30.09,NNW,338,0.0,0.0,36,0.00,,---,0.00,VWS V14.01,2013-06-11 15:32:00,
2013-06-11 11:33:00,85.6,55.7,30.09,NNW,338,0.0,0.0,36,0.00,,---,0.00,VWS V14.01,2013-06-11 15:33:00,
2013-06-11 11:34:00,85.6,55.7,30.09,NNW,338,0.0,0.0,36,0.00,,---,0.00,VWS V14.01,2013-06-11 15:34:00,
2013-06-11 11:35:00,85.6,55.7,30.09,NNW,338,0.0,0.0,36,0.00,,---,0.00,VWS V14.01,2013-06-11 15:35:00,
2013-06-11 11:36:00,85.6,55.7,30.09,NNW,338,0.0,0.0,36,0.00,,---,0.00,VWS V14.01,2013-06-11 15:36:00,
2013-06-11 11:37:00,85.6,55.7,30.09,NNW,338,0.0,0.0,36,0.00,,---,0.00,VWS V14.01,2013-06-11 15:37:00,
2013-06-11 11:38:00,85.6,55.7,30.09,NNW,338,0.0,0.0,36,0.00,,---,0.00,VWS V14.01,2013-06-11 15:38:00,
2013-06-11 11:39:00,85.6,55.7,30.09,NNW,338,0.0,0.0,36,0.00,,---,0.00,VWS V14.01,2013-06-11 15:39:00,
2013-06-11 11:40:00,85.6,55.7,30.09,NNW,338,0.0,0.0,36,0.00,,---,0.00,VWS V14.01,2013-06-11 15:40:00,
2013-06-11 11:41:00,85.6,55.7,30.09,NNW,338,0.0,0.0,36,0.00,,---,0.00,VWS V14.01,2013-06-11 15:41:00,
2013-06-11 11:42:00,85.6,55.7,30.09,NNW,338,0.0,0.0,36,0.00,,---,0.00,VWS V14.01,2013-06-11 15:42:00,
2013-06-11 11:43:00,85.6,55.7,30.09,NNW,338,0.0,0.0,36,0.00,,---,0.00,VWS V14.01,2013-06-11 15:43:00,
2013-06-11 11:44:00,85.6,55.7,30.09,NNW,338,0.0,0.0,36,0.00,,---,0.00,VWS V14.01,2013-06-11 15:44:00,
2013-06-11 11:45:00,85.6,55.7,30.09,NNW,338,0.0,0.0,36,0.00,,---,0.00,VWS V14.01,2013-06-11 15:45:00,
2013-06-11 11:46:00,85.6,55.7,30.09,NNW,338,0.0,0.0,36,0.00,,---,0.00,VWS V14.01,2013-06-11 15:46:00,
2013-06-11 11:47:00,85.6,55.7,30.09,NNW,338,0.0,0.0,36,0.00,,---,0.00,VWS V14.01,2013-06-11 15:47:00,
2013-06-11 11:48:00,85.6,55.7,30.09,NNW,338,0.0,0.0,36,0.00,,---,0.00,VWS V14.01,2013-06-11 15:48:00,
2013-06-11 11:49:00,79.3,63.3,30.09,NNW,338,0.0,0.0,58,0.00,,---,0.00,VWS V14.01,2013-06-11 15:49:00,
2013-06-11 11:50:00,79.3,63.3,30.09,NNW,338,0.0,0.0,58,0.00,,---,0.00,VWS V14.01,2013-06-11 15:50:00,
2013-06-11 11:51:00,79.3,63.3,30.09,NNW,338,0.0,0.0,58,0.00,,---,0.00,VWS V14.01,2013-06-11 15:51:00,
2013-06-11 11:52:00,79.3,63.3,30.09,NNW,338,0.0,0.0,58,0.00,,---,0.00,VWS V14.01,2013-06-11 15:52:00,
2013-06-11 11:53:00,79.3,63.3,30.09,NNW,338,0.0,0.0,58,0.00,,---,0.00,VWS V14.01,2013-06-11 15:53:00,
2013-06-11 11:54:00,79.3,63.8,30.09,NNW,338,0.0,0.0,59,0.00,,---,0.00,VWS V14.01,2013-06-11 15:54:00,
2013-06-11 11:55:00,80.1,65.9,30.09,NNW,338,0.0,0.0,62,0.00,,---,0.00,VWS V14.01,2013-06-11 15:55:00,
2013-06-11 11:56:00,79.5,64.9,30.09,NNW,338,0.0,0.0,61,0.00,,---,0.00,VWS V14.01,2013-06-11 15:56:00,
2013-06-11 11:57:00,80.6,66.4,30.09,NNW,338,0.0,0.0,62,0.00,,---,0.00,VWS V14.01,2013-06-11 15:57:00,
2013-06-11 11:58:00,81.1,66.9,30.09,NNW,338,0.0,0.0,62,0.00,,---,0.00,VWS V14.01,2013-06-11 15:58:00,
2013-06-11 11:59:00,82.2,67.9,30.09,NNW,338,0.0,0.0,62,0.00,,---,0.00,VWS V14.01,2013-06-11 15:59:00,
2013-06-11 12:00:00,83.1,68.3,30.09,NNW,338,0.0,0.0,61,0.00,,---,0.00,VWS V14.01,2013-06-11 16:00:00,
2013-06-11 12:01:00,82.4,67.6,30.09,NNW,338,0.0,0.0,61,0.00,,---,0.00,VWS V14.01,2013-06-11 16:01:00,
2013-06-11 12:02:00,83.1,68.3,30.09,NNW,338,0.0,0.0,61,0.00,,---,0.00,VWS V14.01,2013-06-11 16:02:00,
2013-06-11 12:03:00,83.8,68.5,30.09,NNW,338,0.0,0.0,60,0.00,,---,0.00,VWS V14.01,2013-06-11 16:03:00,
2013-06-11 12:04:00,84.4,69.0,30.09,NNW,338,0.0,0.0,60,0.00,,---,0.00,VWS V14.01,2013-06-11 16:04:00,
2013-06-11 12:05:00,86.5,69.5,30.09,NNW,338,0.0,0.0,57,0.00,,---,0.00,VWS V14.01,2013-06-11 16:05:00,
2013-06-11 12:06:00,86.2,69.7,30.09,NNW,338,0.0,0.0,58,0.00,,---,0.00,VWS V14.01,2013-06-11 16:06:00,
2013-06-11 12:07:00,86.5,69.5,30.09,NNW,338,0.0,0.0,57,0.00,,---,0.00,VWS V14.01,2013-06-11 16:07:00,
2013-06-11 12:08:00,86.7,69.7,30.09,NNW,338,0.0,0.0,57,0.00,,---,0.00,VWS V14.01,2013-06-11 16:08:00,
2013-06-11 12:09:00,86.9,69.8,30.09,NNW,338,0.0,0.0,57,0.00,,---,0.00,VWS V14.01,2013-06-11 16:09:00,
2013-06-11 12:10:00,88.0,69.8,30.09,NNW,338,0.0,0.0,55,0.00,,---,0.00,VWS V14.01,2013-06-11 16:10:00,
2013-06-11 12:11:00,87.1,69.0,30.09,NNW,338,0.0,0.0,55,0.00,,---,0.00,VWS V14.01,2013-06-11 16:11:00,
2013-06-11 12:12:00,88.3,69.6,30.09,NNW,338,0.0,0.0,54,0.00,,---,0.00,VWS V14.01,2013-06-11 16:12:00,
2013-06-11 12:13:00,88.7,69.4,30.09,NNW,338,0.0,0.0,53,0.00,,---,0.00,VWS V14.01,2013-06-11 16:13:00,
2013-06-11 12:14:00,88.9,68.4,30.09,NNW,338,0.0,0.0,51,0.00,,---,0.00,VWS V14.01,2013-06-11 16:14:00,
2013-06-11 12:15:00,89.8,66.9,30.09,NNW,338,0.0,0.0,47,0.00,,---,0.00,VWS V14.01,2013-06-11 16:15:00,
2013-06-11 12:16:00,89.4,67.8,30.09,NNW,338,0.0,0.0,49,0.00,,---,0.00,VWS V14.01,2013-06-11 16:16:00,
2013-06-11 12:17:00,89.8,66.9,30.09,NNW,338,0.0,0.0,47,0.00,,---,0.00,VWS V14.01,2013-06-11 16:17:00,
2013-06-11 12:18:00,90.1,67.2,30.09,NNW,338,0.0,0.0,47,0.00,,---,0.00,VWS V14.01,2013-06-11 16:18:00,
2013-06-11 12:19:00,90.5,67.5,30.09,NNW,338,0.0,0.0,47,0.00,,---,0.00,VWS V14.01,2013-06-11 16:19:00,
2013-06-11 12:20:00,91.8,66.1,30.09,NNW,338,0.0,0.0,43,0.00,,---,0.00,VWS V14.01,2013-06-11 16:20:00,
2013-06-11 12:21:00,91.2,65.6,30.09,NNW,338,0.0,0.0,43,0.00,,---,0.00,VWS V14.01,2013-06-11 16:21:00,
2013-06-11 12:22:00,91.8,66.1,30.09,NNW,338,0.0,0.0,43,0.00,,---,0.00,VWS V14.01,2013-06-11 16:22:00,
2013-06-11 12:23:00,91.8,63.3,30.09,NNW,338,0.0,0.0,39,0.00,,---,0.00,VWS V14.01,2013-06-11 16:23:00,
2013-06-11 12:24:00,91.9,62.7,30.09,NNW,338,0.0,0.0,38,0.00,,---,0.00,VWS V14.01,2013-06-11 16:24:00,
2013-06-11 12:25:00,92.1,61.3,30.09,NNW,338,0.0,0.0,36,0.00,,---,0.00,VWS V14.01,2013-06-11 16:25:00,
2013-06-11 12:26:00,91.8,60.2,30.09,NNW,338,0.0,0.0,35,0.00,,---,0.00,VWS V14.01,2013-06-11 16:26:00,
2013-06-11 12:27:00,92.3,60.7,30.09,NNW,338,0.0,0.0,35,0.00,,---,0.00,VWS V14.01,2013-06-11 16:27:00,
2013-06-11 12:28:00,92.7,60.2,30.09,NNW,338,0.0,0.0,34,0.00,,---,0.00,VWS V14.01,2013-06-11 16:28:00,
2013-06-11 12:29:00,93.0,60.5,30.09,NNW,338,0.0,0.0,34,0.00,,---,0.00,VWS V14.01,2013-06-11 16:29:00,
2013-06-11 12:30:00,93.7,58.6,30.09,NNW,338,0.0,0.0,31,0.00,,---,0.00,VWS V14.01,2013-06-11 16:30:00,
2013-06-11 12:31:00,93.6,59.3,30.09,NNW,338,0.0,0.0,32,0.00,,---,0.00,VWS V14.01,2013-06-11 16:31:00,
2013-06-11 12:32:00,93.7,58.6,30.09,NNW,338,0.0,0.0,31,0.00,,---,0.00,VWS V14.01,2013-06-11 16:32:00,
2013-06-11 12:33:00,93.9,59.6,30.09,NNW,338,0.0,0.0,32,0.00,,---,0.00,VWS V14.01,2013-06-11 16:33:00,
2013-06-11 12:34:00,94.3,59.0,30.09,NNW,338,0.0,0.0,31,0.00,,---,0.00,VWS V14.01,2013-06-11 16:34:00,
2013-06-11 12:35:00,94.8,57.6,30.09,NNW,338,0.0,0.0,29,0.00,,---,0.00,VWS V14.01,2013-06-11 16:35:00,
2013-06-11 12:36:00,94.8,58.6,30.09,NNW,338,0.0,0.0,30,0.00,,---,0.00,VWS V14.01,2013-06-11 16:36:00,
2013-06-11 12:37:00,94.8,57.6,30.09,NNW,338,0.0,0.0,29,0.00,,---,0.00,VWS V14.01,2013-06-11 16:37:00,
2013-06-11 12:38:00,95.0,58.7,30.09,NNW,338,0.0,0.0,30,0.00,,---,0.00,VWS V14.01,2013-06-11 16:38:00,
2013-06-11 12:39:00,95.4,59.0,30.09,NNW,338,0.0,0.0,30,0.00,,---,0.00,VWS V14.01,2013-06-11 16:39:00,
2013-06-11 12:40:00,94.8,56.7,30.09,NNW,338,0.0,0.0,28,0.00,,---,0.00,VWS V14.01,2013-06-11 16:40:00,
2013-06-11 12:41:00,95.5,58.2,30.09,NNW,338,0.0,0.0,29,0.00,,---,0.00,VWS V14.01,2013-06-11 16:41:00,
2013-06-11 12:42:00,94.8,56.7,30.09,NNW,338,0.0,0.0,28,0.00,,---,0.00,VWS V14.01,2013-06-11 16:42:00,
2013-06-11 12:43:00,94.5,56.3,30.09,NNW,338,0.0,0.0,28,0.00,,---,0.00,VWS V14.01,2013-06-11 16:43:00,
2013-06-11 12:44:00,94.3,57.2,30.09,NNW,338,0.0,0.0,29,0.00,,---,0.00,VWS V14.01,2013-06-11 16:44:00,
2013-06-11 12:45:00,95.0,55.8,30.09,NNW,338,0.0,0.0,27,0.00,,---,0.00,VWS V14.01,2013-06-11 16:45:00,
2013-06-11 12:46:00,94.8,56.7,30.09,NNW,338,0.0,0.0,28,0.00,,---,0.00,VWS V14.01,2013-06-11 16:46:00,
2013-06-11 12:47:00,95.0,55.8,30.09,NNW,338,0.0,0.0,27,0.00,,---,0.00,VWS V14.01,2013-06-11 16:47:00,
2013-06-11 12:48:00,95.2,56.0,30.09,NNW,338,0.0,0.0,27,0.00,,---,0.00,VWS V14.01,2013-06-11 16:48:00,
2013-06-11 12:49:00,95.5,56.3,30.09,NNW,338,0.0,0.0,27,0.00,,---,0.00,VWS V14.01,2013-06-11 16:49:00,
2013-06-11 12:50:00,96.6,57.2,30.09,NNW,338,0.0,0.0,27,0.00,,---,0.00,VWS V14.01,2013-06-11 16:50:00,
2013-06-11 12:51:00,96.4,57.0,30.09,NNW,338,0.0,0.0,27,0.00,,---,0.00,VWS V14.01,2013-06-11 16:51:00,
2013-06-11 12:52:00,96.6,57.2,30.09,NNW,338,0.0,0.0,27,0.00,,---,0.00,VWS V14.01,2013-06-11 16:52:00,
2013-06-11 12:53:00,97.0,57.5,30.09,NNW,338,0.0,0.0,27,0.00,,---,0.00,VWS V14.01,2013-06-11 16:53:00,
2013-06-11 12:54:00,97.2,57.6,30.09,NNW,338,0.0,0.0,27,0.00,,---,0.00,VWS V14.01,2013-06-11 16:54:00,
2013-06-11 12:55:00,97.2,56.6,30.09,NNW,338,0.0,0.0,26,0.00,,---,0.00,VWS V14.01,2013-06-11 16:55:00,
2013-06-11 12:56:00,96.8,56.3,30.09,NNW,338,0.0,0.0,26,0.00,,---,0.00,VWS V14.01,2013-06-11 16:56:00,
2013-06-11 12:57:00,97.2,56.6,30.09,NNW,338,0.0,0.0,26,0.00,,---,0.00,VWS V14.01,2013-06-11 16:57:00,
2013-06-11 12:58:00,97.2,56.6,30.09,NNW,338,0.0,0.0,26,0.00,,---,0.00,VWS V14.01,2013-06-11 16:58:00,
2013-06-11 12:59:00,97.2,56.6,30.06,NNW,338,0.0,0.0,26,0.00,,---,0.00,VWS V14.01,2013-06-11 16:59:00,
2013-06-11 13:00:00,93.7,55.7,30.06,NNW,338,0.0,0.0,28,0.00,,---,0.00,VWS V14.01,2013-06-11 17:00:00,
2013-06-11 13:01:00,97.2,56.6,30.06,NNW,338,0.0,0.0,26,0.00,,---,0.00,VWS V14.01,2013-06-11 17:01:00,
2013-06-11 13:02:00,97.2,56.6,30.06,NNW,338,0.0,0.0,26,0.00,,---,0.00,VWS V14.01,2013-06-11 17:02:00,
2013-06-11 13:03:00,93.7,55.7,30.06,NNW,338,0.0,0.0,28,0.00,,---,0.00,VWS V14.01,2013-06-11 17:03:00,
2013-06-11 13:04:00,93.7,55.7,30.06,NNW,338,0.0,0.0,28,0.00,,---,0.00,VWS V14.01,2013-06-11 17:04:00,
2013-06-11 13:05:00,94.1,56.0,30.06,NNW,338,0.0,0.0,28,0.00,,---,0.00,VWS V14.01,2013-06-11 17:05:00,
2013-06-11 13:06:00,94.3,55.2,30.06,NNW,338,0.0,0.0,27,0.00,,---,0.00,VWS V14.01,2013-06-11 17:06:00,
2013-06-11 13:07:00,94.1,56.0,30.06,NNW,338,0.0,0.0,28,0.00,,---,0.00,VWS V14.01,2013-06-11 17:07:00,
2013-06-11 13:08:00,93.7,55.7,30.06,NNW,338,0.0,0.0,28,0.00,,---,0.00,VWS V14.01,2013-06-11 17:08:00,
2013-06-11 13:09:00,93.4,55.4,30.06,NNW,338,0.0,0.0,28,0.00,,---,0.00,VWS V14.01,2013-06-11 17:09:00,
2013-06-11 13:10:00,92.8,55.0,30.06,NNW,338,0.0,0.0,28,0.00,,---,0.00,VWS V14.01,2013-06-11 17:10:00,
2013-06-11 13:11:00,92.8,55.0,30.06,NNW,338,0.0,0.0,28,0.00,,---,0.00,VWS V14.01,2013-06-11 17:11:00,
2013-06-11 13:12:00,92.8,55.0,30.06,NNW,338,0.0,0.0,28,0.00,,---,0.00,VWS V14.01,2013-06-11 17:12:00,
2013-06-11 13:13:00,92.8,55.0,30.06,NNW,338,0.0,0.0,28,0.00,,---,0.00,VWS V14.01,2013-06-11 17:13:00,
2013-06-11 13:14:00,92.8,55.0,30.09,NNW,338,0.0,0.0,28,0.00,,---,0.00,VWS V14.01,2013-06-11 17:14:00,
2013-06-11 13:15:00,94.1,55.0,30.09,NNW,338,0.0,0.0,27,0.00,,---,0.00,VWS V14.01,2013-06-11 17:15:00,
2013-06-11 13:16:00,93.7,55.7,30.09,NNW,338,0.0,0.0,28,0.00,,---,0.00,VWS V14.01,2013-06-11 17:16:00,
2013-06-11 13:17:00,94.1,55.0,30.09,NNW,338,0.0,0.0,27,0.00,,---,0.00,VWS V14.01,2013-06-11 17:17:00,
2013-06-11 13:18:00,94.1,55.0,30.09,NNW,338,0.0,0.0,27,0.00,,---,0.00,VWS V14.01,2013-06-11 17:18:00,
2013-06-11 13:19:00,94.1,55.0,30.09,NNW,338,0.0,0.0,27,0.00,,---,0.00,VWS V14.01,2013-06-11 17:19:00,
2013-06-11 13:20:00,95.0,55.8,30.09,NNW,338,0.0,0.0,27,0.00,,---,0.00,VWS V14.01,2013-06-11 17:20:00,
2013-06-11 13:21:00,95.0,55.8,30.09,NNW,338,0.0,0.0,27,0.00,,---,0.00,VWS V14.01,2013-06-11 17:21:00,
2013-06-11 13:22:00,95.0,55.8,30.09,NNW,338,0.0,0.0,27,0.00,,---,0.00,VWS V14.01,2013-06-11 17:22:00,
2013-06-11 13:23:00,94.6,56.5,30.09,NNW,338,0.0,0.0,28,0.00,,---,0.00,VWS V14.01,2013-06-11 17:23:00,
2013-06-11 13:24:00,95.0,56.8,30.09,NNW,338,0.0,0.0,28,0.00,,---,0.00,VWS V14.01,2013-06-11 17:24:00,
2013-06-11 13:25:00,95.4,57.1,30.09,NNW,338,0.0,0.0,28,0.00,,---,0.00,VWS V14.01,2013-06-11 17:25:00,
2013-06-11 13:26:00,95.4,57.1,30.09,NNW,338,0.0,0.0,28,0.00,,---,0.00,VWS V14.01,2013-06-11 17:26:00,
2013-06-11 13:27:00,95.5,57.3,30.09,NNW,338,0.0,0.0,28,0.00,,---,0.00,VWS V14.01,2013-06-11 17:27:00,
2013-06-11 13:28:00,95.7,57.4,30.09,NNW,338,0.0,0.0,28,0.00,,---,0.00,VWS V14.01,2013-06-11 17:28:00,
2013-06-11 13:29:00,96.3,57.9,30.06,NNW,338,0.0,0.0,28,0.00,,---,0.00,VWS V14.01,2013-06-11 17:29:00,
2013-06-11 13:30:00,96.3,57.9,30.06,NNW,338,0.0,0.0,28,0.00,,---,0.00,VWS V14.01,2013-06-11 17:30:00,
2013-06-11 13:31:00,97.7,58.1,30.06,NNW,338,0.0,0.0,27,0.00,,---,0.00,VWS V14.01,2013-06-11 17:31:00,
2013-06-11 13:32:00,97.5,58.0,30.06,NNW,338,0.0,0.0,27,0.00,,---,0.00,VWS V14.01,2013-06-11 17:32:00,
2013-06-11 13:33:00,97.7,58.1,30.06,NNW,338,0.0,0.0,27,0.00,,---,0.00,VWS V14.01,2013-06-11 17:33:00,
2013-06-11 13:35:00,97.7,58.1,30.06,NNW,338,0.0,0.0,27,0.00,,---,0.00,VWS V14.01,2013-06-11 17:35:00,
2013-06-11 13:36:00,97.7,58.1,30.06,NNW,338,0.0,0.0,27,0.00,,---,0.00,VWS V14.01,2013-06-11 17:36:00,
2013-06-11 13:37:00,97.7,58.1,30.06,NNW,338,0.0,0.0,27,0.00,,---,0.00,VWS V14.01,2013-06-11 17:37:00,
2013-06-11 13:38:00,97.7,58.1,30.06,NNW,338,0.0,0.0,27,0.00,,---,0.00,VWS V14.01,2013-06-11 17:38:00,
2013-06-11 13:39:00,97.7,58.1,30.06,NNW,338,0.0,0.0,27,0.00,,---,0.00,VWS V14.01,2013-06-11 17:39:00,
2013-06-11 13:40:00,97.7,58.1,30.06,NNW,338,0.0,0.0,27,0.00,,---,0.00,VWS V14.01,2013-06-11 17:40:00,
2013-06-11 13:41:00,97.7,58.1,30.06,NNW,338,0.0,0.0,27,0.00,,---,0.00,VWS V14.01,2013-06-11 17:41:00,
2013-06-11 13:42:00,97.7,58.1,30.06,NNW,338,0.0,0.0,27,0.00,,---,0.00,VWS V14.01,2013-06-11 17:42:00,
2013-06-11 13:43:00,97.7,58.1,30.06,NNW,338,0.0,0.0,27,0.00,,---,0.00,VWS V14.01,2013-06-11 17:43:00,
2013-06-11 13:44:00,97.7,58.1,30.06,NNW,338,0.0,0.0,27,0.00,,---,0.00,VWS V14.01,2013-06-11 17:44:00,
2013-06-11 13:45:00,91.0,55.3,30.06,NNW,338,0.0,0.0,30,0.00,,---,0.00,VWS V14.01,2013-06-11 17:45:00,
2013-06-11 13:46:00,90.5,55.8,30.06,NNW,338,0.0,0.0,31,0.00,,---,0.00,VWS V14.01,2013-06-11 17:46:00,
2013-06-11 13:47:00,91.0,55.3,30.06,NNW,338,0.0,0.0,30,0.00,,---,0.00,VWS V14.01,2013-06-11 17:47:00,
2013-06-11 13:48:00,91.0,55.3,30.06,NNW,338,0.0,0.0,30,0.00,,---,0.00,VWS V14.01,2013-06-11 17:48:00,
2013-06-11 13:49:00,90.5,55.8,30.06,NNW,338,0.0,0.0,31,0.00,,---,0.00,VWS V14.01,2013-06-11 17:49:00,
2013-06-11 13:50:00,90.5,55.8,30.06,NNW,338,0.0,0.0,31,0.00,,---,0.00,VWS V14.01,2013-06-11 17:50:00,
2013-06-11 13:51:00,90.5,55.8,30.06,NNW,338,0.0,0.0,31,0.00,,---,0.00,VWS V14.01,2013-06-11 17:51:00,
2013-06-11 13:52:00,90.5,55.8,30.06,NNW,338,0.0,0.0,31,0.00,,---,0.00,VWS V14.01,2013-06-11 17:52:00,
2013-06-11 13:53:00,90.5,55.8,30.06,NNW,338,0.0,0.0,31,0.00,,---,0.00,VWS V14.01,2013-06-11 17:53:00,
2013-06-11 13:54:00,90.1,55.5,30.06,NNW,338,0.0,0.0,31,0.00,,---,0.00,VWS V14.01,2013-06-11 17:54:00,
2013-06-11 13:55:00,90.1,55.5,30.06,NNW,338,0.0,0.0,31,0.00,,---,0.00,VWS V14.01,2013-06-11 17:55:00,
2013-06-11 13:56:00,91.2,56.4,30.06,NNW,338,0.0,0.0,31,0.00,,---,0.00,VWS V14.01,2013-06-11 17:56:00,
2013-06-11 13:57:00,90.1,55.5,30.06,NNW,338,0.0,0.0,31,0.00,,---,0.00,VWS V14.01,2013-06-11 17:57:00,
2013-06-11 13:58:00,91.2,56.4,30.06,NNW,338,0.0,0.0,31,0.00,,---,0.00,VWS V14.01,2013-06-11 17:58:00,
2013-06-11 13:59:00,91.8,56.8,30.06,NNW,338,0.0,0.0,31,0.00,,---,0.00,VWS V14.01,2013-06-11 17:59:00,
2013-06-11 14:00:00,91.8,56.8,30.06,NNW,338,0.0,0.0,31,0.00,,---,0.00,VWS V14.01,2013-06-11 18:00:00,
2013-06-11 14:01:00,92.1,57.2,30.06,NNW,338,0.0,0.0,31,0.00,,---,0.00,VWS V14.01,2013-06-11 18:01:00,
2013-06-11 14:02:00,91.9,56.1,30.06,NNW,338,0.0,0.0,30,0.00,,---,0.00,VWS V14.01,2013-06-11 18:02:00,
2013-06-11 14:03:00,91.9,56.1,30.06,NNW,338,0.0,0.0,30,0.00,,---,0.00,VWS V14.01,2013-06-11 18:03:00,
2013-06-11 14:04:00,91.9,56.1,30.06,NNW,338,0.0,0.0,30,0.00,,---,0.00,VWS V14.01,2013-06-11 18:04:00,
2013-06-11 14:05:00,91.9,56.1,30.06,NNW,338,0.0,0.0,30,0.00,,---,0.00,VWS V14.01,2013-06-11 18:05:00,
2013-06-11 14:06:00,91.9,56.1,30.06,NNW,338,0.0,0.0,30,0.00,,---,0.00,VWS V14.01,2013-06-11 18:06:00,
2013-06-11 14:07:00,91.9,56.1,30.06,NNW,338,0.0,0.0,30,0.00,,---,0.00,VWS V14.01,2013-06-11 18:07:00,
2013-06-11 14:08:00,91.9,56.1,30.06,NNW,338,0.0,0.0,30,0.00,,---,0.00,VWS V14.01,2013-06-11 18:08:00,
2013-06-11 14:09:00,91.9,56.1,30.06,NNW,338,0.0,0.0,30,0.00,,---,0.00,VWS V14.01,2013-06-11 18:09:00,
2013-06-11 14:10:00,91.9,56.1,30.06,NNW,338,0.0,0.0,30,0.00,,---,0.00,VWS V14.01,2013-06-11 18:10:00,
2013-06-11 14:11:00,91.9,56.1,30.06,NNW,338,0.0,0.0,30,0.00,,---,0.00,VWS V14.01,2013-06-11 18:11:00,
2013-06-11 14:12:00,91.9,56.1,30.06,NNW,338,0.0,0.0,30,0.00,,---,0.00,VWS V14.01,2013-06-11 18:12:00,
2013-06-11 14:13:00,91.9,56.1,30.06,NNW,338,0.0,0.0,30,0.00,,---,0.00,VWS V14.01,2013-06-11 18:13:00,
2013-06-11 14:14:00,91.9,56.1,30.06,NNW,338,0.0,0.0,30,0.00,,---,0.00,VWS V14.01,2013-06-11 18:14:00,
2013-06-11 14:15:00,91.9,56.1,30.06,NNW,338,0.0,0.0,30,0.00,,---,0.00,VWS V14.01,2013-06-11 18:15:00,
2013-06-11 14:16:00,90.0,57.0,30.06,NNW,338,0.0,0.0,33,0.00,,---,0.00,VWS V14.01,2013-06-11 18:16:00,
2013-06-11 14:17:00,90.1,57.2,30.06,NNW,338,0.0,0.0,33,0.00,,---,0.00,VWS V14.01,2013-06-11 18:17:00,
2013-06-11 14:18:00,90.1,57.2,30.06,NNW,338,0.0,0.0,33,0.00,,---,0.00,VWS V14.01,2013-06-11 18:18:00,
2013-06-11 14:19:00,90.1,57.2,30.06,NNW,338,0.0,0.0,33,0.00,,---,0.00,VWS V14.01,2013-06-11 18:19:00,
2013-06-11 14:20:00,90.1,57.2,30.06,NNW,338,0.0,0.0,33,0.00,,---,0.00,VWS V14.01,2013-06-11 18:20:00,
2013-06-11 14:21:00,90.1,56.3,30.06,NNW,338,0.0,0.0,32,0.00,,---,0.00,VWS V14.01,2013-06-11 18:21:00,
2013-06-11 14:22:00,90.1,56.3,30.06,NNW,338,0.0,0.0,32,0.00,,---,0.00,VWS V14.01,2013-06-11 18:22:00,
2013-06-11 14:23:00,90.1,56.3,30.06,NNW,338,0.0,0.0,32,0.00,,---,0.00,VWS V14.01,2013-06-11 18:23:00,
2013-06-11 14:24:00,90.1,56.3,30.06,NNW,338,0.0,0.0,32,0.00,,---,0.00,VWS V14.01,2013-06-11 18:24:00,
2013-06-11 14:25:00,90.0,56.2,30.06,NNW,338,0.0,0.0,32,0.00,,---,0.00,VWS V14.01,2013-06-11 18:25:00,
2013-06-11 14:26:00,90.0,56.2,30.06,NNW,338,0.0,0.0,32,0.00,,---,0.00,VWS V14.01,2013-06-11 18:26:00,
2013-06-11 14:27:00,90.3,56.5,30.06,NNW,338,0.0,0.0,32,0.00,,---,0.00,VWS V14.01,2013-06-11 18:27:00,
2013-06-11 14:28:00,90.1,56.3,30.06,NNW,338,0.0,0.0,32,0.00,,---,0.00,VWS V14.01,2013-06-11 18:28:00,
2013-06-11 14:29:00,90.3,56.5,30.06,NNW,338,0.0,0.0,32,0.00,,---,0.00,VWS V14.01,2013-06-11 18:29:00,
2013-06-11 14:30:00,90.7,56.8,30.06,NNW,338,0.0,0.0,32,0.00,,---,0.00,VWS V14.01,2013-06-11 18:30:00,
2013-06-11 14:31:00,91.0,57.1,30.06,NNW,338,0.0,0.0,32,0.00,,---,0.00,VWS V14.01,2013-06-11 18:31:00,
2013-06-11 14:32:00,91.4,56.5,30.06,NNW,338,0.0,0.0,31,0.00,,---,0.00,VWS V14.01,2013-06-11 18:32:00,
2013-06-11 14:33:00,91.2,57.3,30.06,NNW,338,0.0,0.0,32,0.00,,---,0.00,VWS V14.01,2013-06-11 18:33:00,
2013-06-11 14:34:00,91.4,56.5,30.06,NNW,338,0.0,0.0,31,0.00,,---,0.00,VWS V14.01,2013-06-11 18:34:00,
2013-06-11 14:35:00,91.2,57.3,30.06,NNW,338,0.0,0.0,32,0.00,,---,0.00,VWS V14.01,2013-06-11 18:35:00,
2013-06-11 14:36:00,91.0,56.2,30.06,NNW,338,0.0,0.0,31,0.00,,---,0.00,VWS V14.01,2013-06-11 18:36:00,
2013-06-11 14:37:00,89.2,55.5,30.06,NNW,338,0.0,0.0,32,0.00,,---,0.00,VWS V14.01,2013-06-11 18:37:00,
2013-06-11 14:38:00,89.6,55.0,30.06,NNW,338,0.0,0.0,31,0.00,,---,0.00,VWS V14.01,2013-06-11 18:38:00,
2013-06-11 14:39:00,89.2,55.5,30.06,NNW,338,0.0,0.0,32,0.00,,---,0.00,VWS V14.01,2013-06-11 18:39:00,
2013-06-11 14:40:00,89.2,55.5,30.06,NNW,338,0.0,0.0,32,0.00,,---,0.00,VWS V14.01,2013-06-11 18:40:00,
2013-06-11 14:41:00,89.2,55.5,30.06,NNW,338,0.0,0.0,32,0.00,,---,0.00,VWS V14.01,2013-06-11 18:41:00,
2013-06-11 14:42:00,88.3,55.6,30.06,NNW,338,0.0,0.0,33,0.00,,---,0.00,VWS V14.01,2013-06-11 18:42:00,
2013-06-11 14:43:00,88.5,55.8,30.06,NNW,338,0.0,0.0,33,0.00,,---,0.00,VWS V14.01,2013-06-11 18:43:00,
2013-06-11 14:44:00,88.3,55.6,30.06,NNW,338,0.0,0.0,33,0.00,,---,0.00,VWS V14.01,2013-06-11 18:44:00,
2013-06-11 14:45:00,88.3,55.6,30.06,NNW,338,0.0,0.0,33,0.00,,---,0.00,VWS V14.01,2013-06-11 18:45:00,
2013-06-11 14:46:00,88.5,55.8,30.06,NNW,338,0.0,0.0,33,0.00,,---,0.00,VWS V14.01,2013-06-11 18:46:00,
2013-06-11 14:47:00,89.4,56.6,30.06,NNW,338,0.0,0.0,33,0.00,,---,0.00,VWS V14.01,2013-06-11 18:47:00,
2013-06-11 14:48:00,88.9,56.1,30.06,NNW,338,0.0,0.0,33,0.00,,---,0.00,VWS V14.01,2013-06-11 18:48:00,
2013-06-11 14:49:00,89.4,56.6,30.06,NNW,338,0.0,0.0,33,0.00,,---,0.00,VWS V14.01,2013-06-11 18:49:00,
2013-06-11 14:50:00,89.4,56.6,30.06,NNW,338,0.0,0.0,33,0.00,,---,0.00,VWS V14.01,2013-06-11 18:50:00,
2013-06-11 14:51:00,89.6,55.9,30.06,NNW,338,0.0,0.0,32,0.00,,---,0.00,VWS V14.01,2013-06-11 18:51:00,
2013-06-11 14:52:00,89.6,55.9,30.06,NNW,338,0.0,0.0,32,0.00,,---,0.00,VWS V14.01,2013-06-11 18:52:00,
2013-06-11 14:53:00,89.6,55.9,30.06,NNW,338,0.0,0.0,32,0.00,,---,0.00,VWS V14.01,2013-06-11 18:53:00,
2013-06-11 14:54:00,89.6,55.9,30.06,NNW,338,0.0,0.0,32,0.00,,---,0.00,VWS V14.01,2013-06-11 18:54:00,
2013-06-11 14:55:00,89.6,55.9,30.06,NNW,338,0.0,0.0,32,0.00,,---,0.00,VWS V14.01,2013-06-11 18:55:00,
2013-06-11 14:56:00,89.6,55.9,30.06,NNW,338,0.0,0.0,32,0.00,,---,0.00,VWS V14.01,2013-06-11 18:56:00,
2013-06-11 14:57:00,87.6,53.3,30.06,NNW,338,0.0,0.0,31,0.00,,---,0.00,VWS V14.01,2013-06-11 18:57:00,
2013-06-11 14:58:00,89.6,55.9,30.06,NNW,338,0.0,0.0,32,0.00,,---,0.00,VWS V14.01,2013-06-11 18:58:00,
2013-06-11 14:59:00,87.6,53.3,30.06,NNW,338,0.0,0.0,31,0.00,,---,0.00,VWS V14.01,2013-06-11 18:59:00,
2013-06-11 15:00:00,87.3,53.0,30.06,NNW,338,0.0,0.0,31,0.00,,---,0.00,VWS V14.01,2013-06-11 19:00:00,
2013-06-11 15:01:00,87.1,52.8,30.06,NNW,338,0.0,0.0,31,0.00,,---,0.00,VWS V14.01,2013-06-11 19:01:00,
2013-06-11 15:02:00,87.1,52.8,30.06,NNW,338,0.0,0.0,31,0.00,,---,0.00,VWS V14.01,2013-06-11 19:02:00,
2013-06-11 15:03:00,87.1,52.8,30.06,NNW,338,0.0,0.0,31,0.00,,---,0.00,VWS V14.01,2013-06-11 19:03:00,
2013-06-11 15:04:00,87.1,52.8,30.06,NNW,338,0.0,0.0,31,0.00,,---,0.00,VWS V14.01,2013-06-11 19:04:00,
2013-06-11 15:05:00,87.1,52.8,30.06,NNW,338,0.0,0.0,31,0.00,,---,0.00,VWS V14.01,2013-06-11 19:05:00,
2013-06-11 15:06:00,87.1,52.8,30.06,NNW,338,0.0,0.0,31,0.00,,---,0.00,VWS V14.01,2013-06-11 19:06:00,
2013-06-11 15:07:00,87.1,52.8,30.06,NNW,338,0.0,0.0,31,0.00,,---,0.00,VWS V14.01,2013-06-11 19:07:00,
2013-06-11 15:08:00,85.6,51.6,30.06,NNW,338,0.0,0.0,31,0.00,,---,0.00,VWS V14.01,2013-06-11 19:08:00,
2013-06-11 15:09:00,85.6,50.7,30.06,NNW,338,0.0,0.0,30,0.00,,---,0.00,VWS V14.01,2013-06-11 19:09:00,
2013-06-11 15:10:00,85.6,51.6,30.06,NNW,338,0.0,0.0,31,0.00,,---,0.00,VWS V14.01,2013-06-11 19:10:00,
2013-06-11 15:11:00,86.0,51.0,30.06,NNW,338,0.0,0.0,30,0.00,,---,0.00,VWS V14.01,2013-06-11 19:11:00,
2013-06-11 15:12:00,86.9,51.8,30.06,NNW,338,0.0,0.0,30,0.00,,---,0.00,VWS V14.01,2013-06-11 19:12:00,
2013-06-11 15:13:00,88.5,51.3,30.03,NNW,338,0.0,0.0,28,0.00,,---,0.00,VWS V14.01,2013-06-11 19:13:00,
2013-06-11 15:14:00,88.5,51.3,30.03,NNW,338,0.0,0.0,28,0.00,,---,0.00,VWS V14.01,2013-06-11 19:14:00,
2013-06-11 15:15:00,88.7,51.4,30.03,NNW,338,0.0,0.0,28,0.00,,---,0.00,VWS V14.01,2013-06-11 19:15:00,
2013-06-11 15:16:00,88.5,51.3,30.03,NNW,338,0.0,0.0,28,0.00,,---,0.00,VWS V14.01,2013-06-11 19:16:00,
2013-06-11 15:17:00,88.0,50.8,30.03,NNW,338,0.0,0.0,28,0.00,,---,0.00,VWS V14.01,2013-06-11 19:17:00,
2013-06-11 15:18:00,87.8,50.7,30.03,NNW,338,0.0,0.0,28,0.00,,---,0.00,VWS V14.01,2013-06-11 19:18:00,
2013-06-11 15:19:00,87.8,50.7,30.03,NNW,338,0.0,0.0,28,0.00,,---,0.00,VWS V14.01,2013-06-11 19:19:00,
2013-06-11 15:20:00,87.8,50.7,30.03,NNW,338,0.0,0.0,28,0.00,,---,0.00,VWS V14.01,2013-06-11 19:20:00,
2013-06-11 15:21:00,87.6,50.5,30.03,NNW,338,0.0,0.0,28,0.00,,---,0.00,VWS V14.01,2013-06-11 19:21:00,
2013-06-11 15:22:00,87.4,50.4,30.03,NNW,338,0.0,0.0,28,0.00,,---,0.00,VWS V14.01,2013-06-11 19:22:00,
2013-06-11 15:23:00,89.2,51.9,30.03,NNW,338,0.0,0.0,28,0.00,,---,0.00,VWS V14.01,2013-06-11 19:23:00,
2013-06-11 15:24:00,88.5,51.3,30.03,NNW,338,0.0,0.0,28,0.00,,---,0.00,VWS V14.01,2013-06-11 19:24:00,
2013-06-11 15:25:00,89.2,51.9,30.03,NNW,338,0.0,0.0,28,0.00,,---,0.00,VWS V14.01,2013-06-11 19:25:00,
2013-06-11 15:26:00,89.8,51.4,30.03,NNW,338,0.0,0.0,27,0.00,,---,0.00,VWS V14.01,2013-06-11 19:26:00,
2013-06-11 15:27:00,90.1,51.7,30.03,NNW,338,0.0,0.0,27,0.00,,---,0.00,VWS V14.01,2013-06-11 19:27:00,
2013-06-11 15:28:00,89.8,48.2,30.06,NNW,338,0.0,0.0,24,0.00,,---,0.00,VWS V14.01,2013-06-11 19:28:00,
2013-06-11 15:29:00,89.8,48.2,30.06,NNW,338,0.0,0.0,24,0.00,,---,0.00,VWS V14.01,2013-06-11 19:29:00,
2013-06-11 15:30:00,89.8,48.2,30.06,NNW,338,0.0,0.0,24,0.00,,---,0.00,VWS V14.01,2013-06-11 19:30:00,
2013-06-11 15:31:00,90.0,48.4,30.06,NNW,338,0.0,0.0,24,0.00,,---,0.00,VWS V14.01,2013-06-11 19:31:00,
2013-06-11 15:32:00,90.1,48.5,30.06,NNW,338,0.0,0.0,24,0.00,,---,0.00,VWS V14.01,2013-06-11 19:32:00,
2013-06-11 15:33:00,90.3,48.7,30.06,NNW,338,0.0,0.0,24,0.00,,---,0.00,VWS V14.01,2013-06-11 19:33:00,
2013-06-11 15:34:00,90.1,48.5,30.06,NNW,338,0.0,0.0,24,0.00,,---,0.00,VWS V14.01,2013-06-11 19:34:00,
2013-06-11 15:35:00,90.3,48.7,30.06,NNW,338,0.0,0.0,24,0.00,,---,0.00,VWS V14.01,2013-06-11 19:35:00,
2013-06-11 15:36:00,90.3,47.5,30.06,NNW,338,0.0,0.0,23,0.00,,---,0.00,VWS V14.01,2013-06-11 19:36:00,
2013-06-11 15:37:00,90.5,47.7,30.06,NNW,338,0.0,0.0,23,0.00,,---,0.00,VWS V14.01,2013-06-11 19:37:00,
2013-06-11 15:38:00,90.9,48.0,30.06,NNW,338,0.0,0.0,23,0.00,,---,0.00,VWS V14.01,2013-06-11 19:38:00,
2013-06-11 15:39:00,90.9,48.0,30.06,NNW,338,0.0,0.0,23,0.00,,---,0.00,VWS V14.01,2013-06-11 19:39:00,
2013-06-11 15:40:00,91.0,48.1,30.06,NNW,338,0.0,0.0,23,0.00,,---,0.00,VWS V14.01,2013-06-11 19:40:00,
2013-06-11 15:41:00,91.2,48.3,30.06,NNW,338,0.0,0.0,23,0.00,,---,0.00,VWS V14.01,2013-06-11 19:41:00,
2013-06-11 15:42:00,91.8,48.7,30.06,NNW,338,0.0,0.0,23,0.00,,---,0.00,VWS V14.01,2013-06-11 19:42:00,
2013-06-11 15:43:00,92.5,49.3,30.03,NNW,338,0.0,0.0,23,0.00,,---,0.00,VWS V14.01,2013-06-11 19:43:00,
2013-06-11 15:44:00,92.5,49.3,30.03,NNW,338,0.0,0.0,23,0.00,,---,0.00,VWS V14.01,2013-06-11 19:44:00,
2013-06-11 15:45:00,92.8,49.6,30.03,NNW,338,0.0,0.0,23,0.00,,---,0.00,VWS V14.01,2013-06-11 19:45:00,
2013-06-11 15:46:00,92.8,49.6,30.03,NNW,338,0.0,0.0,23,0.00,,---,0.00,VWS V14.01,2013-06-11 19:46:00,
2013-06-11 15:47:00,94.6,51.1,30.03,NNW,338,0.0,0.0,23,0.00,,---,0.00,VWS V14.01,2013-06-11 19:47:00,
2013-06-11 15:48:00,93.7,50.4,30.03,NNW,338,0.0,0.0,23,0.00,,---,0.00,VWS V14.01,2013-06-11 19:48:00,
2013-06-11 15:49:00,94.1,50.7,30.03,NNW,338,0.0,0.0,23,0.00,,---,0.00,VWS V14.01,2013-06-11 19:49:00,
2013-06-11 15:50:00,94.6,51.1,30.03,NNW,338,0.0,0.0,23,0.00,,---,0.00,VWS V14.01,2013-06-11 19:50:00,
2013-06-11 15:51:00,95.0,50.2,30.03,NNW,338,0.0,0.0,22,0.00,,---,0.00,VWS V14.01,2013-06-11 19:51:00,
2013-06-11 15:52:00,95.4,49.3,30.03,NNW,338,0.0,0.0,21,0.00,,---,0.00,VWS V14.01,2013-06-11 19:52:00,
2013-06-11 15:53:00,95.0,49.0,30.03,NNW,338,0.0,0.0,21,0.00,,---,0.00,VWS V14.01,2013-06-11 19:53:00,
2013-06-11 15:54:00,95.4,49.3,30.03,NNW,338,0.0,0.0,21,0.00,,---,0.00,VWS V14.01,2013-06-11 19:54:00,
2013-06-11 15:55:00,95.5,48.1,30.03,NNW,338,0.0,0.0,20,0.00,,---,0.00,VWS V14.01,2013-06-11 19:55:00,
2013-06-11 15:56:00,95.7,48.3,30.03,NNW,338,0.0,0.0,20,0.00,,---,0.00,VWS V14.01,2013-06-11 19:56:00,
2013-06-11 15:57:00,95.9,45.6,30.03,NNW,338,0.0,0.0,18,0.00,,---,0.00,VWS V14.01,2013-06-11 19:57:00,
2013-06-11 15:58:00,95.9,47.0,30.03,NNW,338,0.0,0.0,19,0.00,,---,0.00,VWS V14.01,2013-06-11 19:58:00,
2013-06-11 15:59:00,95.9,45.6,30.03,NNW,338,0.0,0.0,18,0.00,,---,0.00,VWS V14.01,2013-06-11 19:59:00,
2013-06-11 16:00:00,95.9,45.6,30.03,NNW,338,0.0,0.0,18,0.00,,---,0.00,VWS V14.01,2013-06-11 20:00:00,
2013-06-11 16:01:00,96.1,45.8,30.03,NNW,338,0.0,0.0,18,0.00,,---,0.00,VWS V14.01,2013-06-11 20:01:00,
2013-06-11 16:02:00,96.3,45.9,30.03,NNW,338,0.0,0.0,18,0.00,,---,0.00,VWS V14.01,2013-06-11 20:02:00,
2013-06-11 16:03:00,97.0,46.5,30.03,NNW,338,0.0,0.0,18,0.00,,---,0.00,VWS V14.01,2013-06-11 20:03:00,
2013-06-11 16:04:00,96.6,46.2,30.03,NNW,338,0.0,0.0,18,0.00,,---,0.00,VWS V14.01,2013-06-11 20:04:00,
2013-06-11 16:05:00,97.0,46.5,30.03,NNW,338,0.0,0.0,18,0.00,,---,0.00,VWS V14.01,2013-06-11 20:05:00,
2013-06-11 16:06:00,97.2,45.1,30.03,NNW,338,0.0,0.0,17,0.00,,---,0.00,VWS V14.01,2013-06-11 20:06:00,
2013-06-11 16:07:00,97.7,45.6,30.03,NNW,338,0.0,0.0,17,0.00,,---,0.00,VWS V14.01,2013-06-11 20:07:00,
2013-06-11 16:08:00,98.4,46.1,30.03,NNW,338,0.0,0.0,17,0.00,,---,0.00,VWS V14.01,2013-06-11 20:08:00,
2013-06-11 16:09:00,98.1,45.9,30.03,NNW,338,0.0,0.0,17,0.00,,---,0.00,VWS V14.01,2013-06-11 20:09:00,
2013-06-11 16:10:00,98.4,46.2,30.03,NNW,338,0.0,0.0,17,0.00,,---,0.00,VWS V14.01,2013-06-11 20:10:00,
2013-06-11 16:11:00,98.4,46.2,30.03,NNW,338,0.0,0.0,17,0.00,,---,0.00,VWS V14.01,2013-06-11 20:11:00,
2013-06-11 16:12:00,98.1,45.9,30.03,NNW,338,0.0,0.0,17,0.00,,---,0.00,VWS V14.01,2013-06-11 20:12:00,
2013-06-11 16:13:00,98.1,45.9,30.03,NNW,338,0.0,0.0,17,0.00,,---,0.00,VWS V14.01,2013-06-11 20:13:00,
2013-06-11 16:14:00,98.1,45.9,30.03,NNW,338,0.0,0.0,17,0.00,,---,0.00,VWS V14.01,2013-06-11 20:14:00,
2013-06-11 16:15:00,98.1,45.9,30.03,NNW,338,0.0,0.0,17,0.00,,---,0.00,VWS V14.01,2013-06-11 20:15:00,
2013-06-11 16:16:00,98.1,45.9,30.03,NNW,338,0.0,0.0,17,0.00,,---,0.00,VWS V14.01,2013-06-11 20:16:00,
2013-06-11 16:17:00,98.1,45.9,30.03,NNW,338,0.0,0.0,17,0.00,,---,0.00,VWS V14.01,2013-06-11 20:17:00,
2013-06-11 16:18:00,98.1,45.9,30.03,NNW,338,0.0,0.0,17,0.00,,---,0.00,VWS V14.01,2013-06-11 20:18:00,
2013-06-11 16:19:00,98.1,45.9,30.03,NNW,338,0.0,0.0,17,0.00,,---,0.00,VWS V14.01,2013-06-11 20:19:00,
2013-06-11 16:20:00,98.1,45.9,30.03,NNW,338,0.0,0.0,17,0.00,,---,0.00,VWS V14.01,2013-06-11 20:20:00,
2013-06-11 16:21:00,98.1,45.9,30.03,NNW,338,0.0,0.0,17,0.00,,---,0.00,VWS V14.01,2013-06-11 20:21:00,
2013-06-11 16:22:00,99.0,45.0,30.03,NNW,338,0.0,0.0,16,0.00,,---,0.00,VWS V14.01,2013-06-11 20:22:00,
2013-06-11 16:23:00,98.6,44.7,30.03,NNW,338,0.0,0.0,16,0.00,,---,0.00,VWS V14.01,2013-06-11 20:23:00,
2013-06-11 16:24:00,98.8,44.8,30.03,NNW,338,0.0,0.0,16,0.00,,---,0.00,VWS V14.01,2013-06-11 20:24:00,
2013-06-11 16:25:00,98.6,44.7,30.03,NNW,338,0.0,0.0,16,0.00,,---,0.00,VWS V14.01,2013-06-11 20:25:00,
2013-06-11 16:26:00,98.6,44.7,30.03,NNW,338,0.0,0.0,16,0.00,,---,0.00,VWS V14.01,2013-06-11 20:26:00,
2013-06-11 16:27:00,98.8,44.8,30.03,NNW,338,0.0,0.0,16,0.00,,---,0.00,VWS V14.01,2013-06-11 20:27:00,
2013-06-11 16:28:00,99.0,45.0,30.00,NNW,338,0.0,0.0,16,0.00,,---,0.00,VWS V14.01,2013-06-11 20:28:00,
2013-06-11 16:29:00,98.6,44.7,30.00,NNW,338,0.0,0.0,16,0.00,,---,0.00,VWS V14.01,2013-06-11 20:29:00,
2013-06-11 16:30:00,99.0,45.0,30.00,NNW,338,0.0,0.0,16,0.00,,---,0.00,VWS V14.01,2013-06-11 20:30:00,
2013-06-11 16:31:00,99.5,45.4,30.00,NNW,338,0.0,0.0,16,0.00,,---,0.00,VWS V14.01,2013-06-11 20:31:00,
2013-06-11 16:32:00,99.5,45.4,30.00,NNW,338,0.0,0.0,16,0.00,,---,0.00,VWS V14.01,2013-06-11 20:32:00,
2013-06-11 16:33:00,100.2,46.0,30.00,NNW,338,0.0,0.0,16,0.00,,---,0.00,VWS V14.01,2013-06-11 20:33:00,
2013-06-11 16:34:00,100.4,46.1,30.00,NNW,338,0.0,0.0,16,0.00,,---,0.00,VWS V14.01,2013-06-11 20:34:00,
2013-06-11 16:35:00,100.2,46.0,30.00,NNW,338,0.0,0.0,16,0.00,,---,0.00,VWS V14.01,2013-06-11 20:35:00,
2013-06-11 16:36:00,100.0,45.8,30.00,NNW,338,0.0,0.0,16,0.00,,---,0.00,VWS V14.01,2013-06-11 20:36:00,
2013-06-11 16:37:00,100.0,45.8,30.00,NNW,338,0.0,0.0,16,0.00,,---,0.00,VWS V14.01,2013-06-11 20:37:00,
2013-06-11 16:38:00,99.3,45.3,30.00,NNW,338,0.0,0.0,16,0.00,,---,0.00,VWS V14.01,2013-06-11 20:38:00,
2013-06-11 16:39:00,99.3,45.3,30.00,NNW,338,0.0,0.0,16,0.00,,---,0.00,VWS V14.01,2013-06-11 20:39:00,
2013-06-11 16:40:00,99.3,45.3,30.00,NNW,338,0.0,0.0,16,0.00,,---,0.00,VWS V14.01,2013-06-11 20:40:00,
2013-06-11 16:41:00,99.3,45.3,30.00,NNW,338,0.0,0.0,16,0.00,,---,0.00,VWS V14.01,2013-06-11 20:41:00,
2013-06-11 16:42:00,99.3,45.3,30.00,NNW,338,0.0,0.0,16,0.00,,---,0.00,VWS V14.01,2013-06-11 20:42:00,
2013-06-11 16:43:00,99.3,45.3,30.03,NNW,338,0.0,0.0,16,0.00,,---,0.00,VWS V14.01,2013-06-11 20:43:00,
2013-06-11 16:44:00,99.3,45.3,30.03,NNW,338,0.0,0.0,16,0.00,,---,0.00,VWS V14.01,2013-06-11 20:44:00,
2013-06-11 16:45:00,99.1,45.1,30.03,NNW,338,0.0,0.0,16,0.00,,---,0.00,VWS V14.01,2013-06-11 20:45:00,
2013-06-11 16:46:00,99.3,45.3,30.03,NNW,338,0.0,0.0,16,0.00,,---,0.00,VWS V14.01,2013-06-11 20:46:00,
2013-06-11 16:47:00,99.5,45.4,30.03,NNW,338,0.0,0.0,16,0.00,,---,0.00,VWS V14.01,2013-06-11 20:47:00,
2013-06-11 16:48:00,99.7,45.5,30.03,NNW,338,0.0,0.0,16,0.00,,---,0.00,VWS V14.01,2013-06-11 20:48:00,
2013-06-11 16:49:00,100.0,45.8,30.03,NNW,338,0.0,0.0,16,0.00,,---,0.00,VWS V14.01,2013-06-11 20:49:00,
2013-06-11 16:50:00,99.7,45.5,30.03,NNW,338,0.0,0.0,16,0.00,,---,0.00,VWS V14.01,2013-06-11 20:50:00,
2013-06-11 16:51:00,99.5,45.4,30.03,NNW,338,0.0,0.0,16,0.00,,---,0.00,VWS V14.01,2013-06-11 20:51:00,
2013-06-11 16:52:00,99.5,45.4,30.03,NNW,338,0.0,0.0,16,0.00,,---,0.00,VWS V14.01,2013-06-11 20:52:00,
2013-06-11 16:53:00,99.3,45.3,30.03,NNW,338,0.0,0.0,16,0.00,,---,0.00,VWS V14.01,2013-06-11 20:53:00,
2013-06-11 16:54:00,99.3,45.3,30.03,NNW,338,0.0,0.0,16,0.00,,---,0.00,VWS V14.01,2013-06-11 20:54:00,
2013-06-11 16:55:00,99.3,45.3,30.03,NNW,338,0.0,0.0,16,0.00,,---,0.00,VWS V14.01,2013-06-11 20:55:00,
2013-06-11 16:56:00,99.7,45.5,30.03,NNW,338,0.0,0.0,16,0.00,,---,0.00,VWS V14.01,2013-06-11 20:56:00,
2013-06-11 16:57:00,99.7,45.5,30.03,NNW,338,0.0,0.0,16,0.00,,---,0.00,VWS V14.01,2013-06-11 20:57:00,
2013-06-11 16:58:00,99.7,45.5,30.03,NNW,338,0.0,0.0,16,0.00,,---,0.00,VWS V14.01,2013-06-11 20:58:00,
2013-06-11 16:59:00,99.7,45.5,30.03,NNW,338,0.0,0.0,16,0.00,,---,0.00,VWS V14.01,2013-06-11 20:59:00,
2013-06-11 17:00:00,100.0,45.8,30.03,NNW,338,0.0,0.0,16,0.00,,---,0.00,VWS V14.01,2013-06-11 21:00:00,
2013-06-11 17:01:00,98.8,44.8,30.03,NNW,338,0.0,0.0,16,0.00,,---,0.00,VWS V14.01,2013-06-11 21:01:00,
2013-06-11 17:02:00,98.6,44.7,30.03,NNW,338,0.0,0.0,16,0.00,,---,0.00,VWS V14.01,2013-06-11 21:02:00,
2013-06-11 17:03:00,99.3,46.9,30.03,NNW,338,0.0,0.0,17,0.00,,---,0.00,VWS V14.01,2013-06-11 21:03:00,
2013-06-11 17:04:00,98.6,44.7,30.03,NNW,338,0.0,0.0,16,0.00,,---,0.00,VWS V14.01,2013-06-11 21:04:00,
2013-06-11 17:05:00,99.1,45.1,30.03,NNW,338,0.0,0.0,16,0.00,,---,0.00,VWS V14.01,2013-06-11 21:05:00,
2013-06-11 17:06:00,99.3,46.9,30.03,NNW,338,0.0,0.0,17,0.00,,---,0.00,VWS V14.01,2013-06-11 21:06:00,
2013-06-11 17:07:00,99.5,47.0,30.03,NNW,338,0.0,0.0,17,0.00,,---,0.00,VWS V14.01,2013-06-11 21:07:00,
2013-06-11 17:08:00,99.5,47.0,30.03,NNW,338,0.0,0.0,17,0.00,,---,0.00,VWS V14.01,2013-06-11 21:08:00,
2013-06-11 17:09:00,100.4,46.1,30.03,NNW,338,0.0,0.0,16,0.00,,---,0.00,VWS V14.01,2013-06-11 21:09:00,
2013-06-11 17:10:00,100.2,46.0,30.03,NNW,338,0.0,0.0,16,0.00,,---,0.00,VWS V14.01,2013-06-11 21:10:00,
2013-06-11 17:11:00,100.4,46.1,30.03,NNW,338,0.0,0.0,16,0.00,,---,0.00,VWS V14.01,2013-06-11 21:11:00,
2013-06-11 17:12:00,100.4,46.1,30.03,NNW,338,0.0,0.0,16,0.00,,---,0.00,VWS V14.01,2013-06-11 21:12:00,
2013-06-11 17:13:00,98.6,44.7,30.03,NNW,338,0.0,0.0,16,0.00,,---,0.00,VWS V14.01,2013-06-11 21:13:00,
2013-06-11 17:14:00,99.7,45.5,30.03,NNW,338,0.0,0.0,16,0.00,,---,0.00,VWS V14.01,2013-06-11 21:14:00,
2013-06-11 17:15:00,99.3,45.3,30.03,NNW,338,0.0,0.0,16,0.00,,---,0.00,VWS V14.01,2013-06-11 21:15:00,
2013-06-11 17:16:00,97.7,45.6,30.03,NNW,338,0.0,0.0,17,0.00,,---,0.00,VWS V14.01,2013-06-11 21:16:00,
2013-06-11 17:17:00,96.8,44.8,30.03,NNW,338,0.0,0.0,17,0.00,,---,0.00,VWS V14.01,2013-06-11 21:17:00,
2013-06-11 17:18:00,96.4,44.6,30.03,NNW,338,0.0,0.0,17,0.00,,---,0.00,VWS V14.01,2013-06-11 21:18:00,
2013-06-11 17:19:00,97.2,46.6,30.03,NNW,338,0.0,0.0,18,0.00,,---,0.00,VWS V14.01,2013-06-11 21:19:00,
2013-06-11 17:20:00,97.0,46.5,30.03,NNW,338,0.0,0.0,18,0.00,,---,0.00,VWS V14.01,2013-06-11 21:20:00,
2013-06-11 17:21:00,97.2,46.6,30.03,NNW,338,0.0,0.0,18,0.00,,---,0.00,VWS V14.01,2013-06-11 21:21:00,
2013-06-11 17:22:00,97.2,46.6,30.03,NNW,338,0.0,0.0,18,0.00,,---,0.00,VWS V14.01,2013-06-11 21:22:00,
2013-06-11 17:23:00,96.1,45.8,30.03,NNW,338,0.0,0.0,18,0.00,,---,0.00,VWS V14.01,2013-06-11 21:23:00,
2013-06-11 17:24:00,94.8,47.5,30.03,NNW,338,0.0,0.0,20,0.00,,---,0.00,VWS V14.01,2013-06-11 21:24:00,
2013-06-11 17:25:00,95.0,46.3,30.03,NNW,338,0.0,0.0,19,0.00,,---,0.00,VWS V14.01,2013-06-11 21:25:00,
2013-06-11 17:26:00,94.8,47.5,30.03,NNW,338,0.0,0.0,20,0.00,,---,0.00,VWS V14.01,2013-06-11 21:26:00,
2013-06-11 17:27:00,94.5,47.2,30.03,NNW,338,0.0,0.0,20,0.00,,---,0.00,VWS V14.01,2013-06-11 21:27:00,
2013-06-11 17:28:00,94.3,48.4,30.03,NNW,338,0.0,0.0,21,0.00,,---,0.00,VWS V14.01,2013-06-11 21:28:00,
2013-06-11 17:29:00,93.2,49.9,30.03,NNW,338,0.0,0.0,23,0.00,,---,0.00,VWS V14.01,2013-06-11 21:29:00,
2013-06-11 17:30:00,93.4,48.9,30.03,NNW,338,0.0,0.0,22,0.00,,---,0.00,VWS V14.01,2013-06-11 21:30:00,
2013-06-11 17:31:00,93.2,48.7,30.03,NNW,338,0.0,0.0,22,0.00,,---,0.00,VWS V14.01,2013-06-11 21:31:00,
2013-06-11 17:32:00,93.4,50.1,30.03,NNW,338,0.0,0.0,23,0.00,,---,0.00,VWS V14.01,2013-06-11 21:32:00,
2013-06-11 17:33:00,93.0,50.9,30.03,NNW,338,0.0,0.0,24,0.00,,---,0.00,VWS V14.01,2013-06-11 21:33:00,
2013-06-11 17:34:00,92.1,52.3,30.03,NNW,338,0.0,0.0,26,0.00,,---,0.00,VWS V14.01,2013-06-11 21:34:00,
2013-06-11 17:35:00,92.5,51.6,30.03,NNW,338,0.0,0.0,25,0.00,,---,0.00,VWS V14.01,2013-06-11 21:35:00,
2013-06-11 17:36:00,92.1,52.3,30.03,NNW,338,0.0,0.0,26,0.00,,---,0.00,VWS V14.01,2013-06-11 21:36:00,
2013-06-11 17:37:00,92.1,53.4,30.03,NNW,338,0.0,0.0,27,0.00,,---,0.00,VWS V14.01,2013-06-11 21:37:00,
2013-06-11 17:38:00,92.1,53.4,30.03,NNW,338,0.0,0.0,27,0.00,,---,0.00,VWS V14.01,2013-06-11 21:38:00,
2013-06-11 17:39:00,93.0,54.1,30.03,NNW,338,0.0,0.0,27,0.00,,---,0.00,VWS V14.01,2013-06-11 21:39:00,
2013-06-11 17:40:00,93.2,54.3,30.03,NNW,338,0.0,0.0,27,0.00,,---,0.00,VWS V14.01,2013-06-11 21:40:00,
2013-06-11 17:41:00,93.0,54.1,30.03,NNW,338,0.0,0.0,27,0.00,,---,0.00,VWS V14.01,2013-06-11 21:41:00,
2013-06-11 17:42:00,92.7,53.8,30.03,NNW,338,0.0,0.0,27,0.00,,---,0.00,VWS V14.01,2013-06-11 21:42:00,
2013-06-11 17:43:00,92.7,53.8,30.03,NNW,338,0.0,0.0,27,0.00,,---,0.00,VWS V14.01,2013-06-11 21:43:00,
2013-06-11 17:44:00,92.8,55.0,30.03,NNW,338,0.0,0.0,28,0.00,,---,0.00,VWS V14.01,2013-06-11 21:44:00,
2013-06-11 17:45:00,92.7,54.8,30.03,NNW,338,0.0,0.0,28,0.00,,---,0.00,VWS V14.01,2013-06-11 21:45:00,
2013-06-11 17:46:00,92.8,55.0,30.03,NNW,338,0.0,0.0,28,0.00,,---,0.00,VWS V14.01,2013-06-11 21:46:00,
2013-06-11 17:47:00,93.2,55.3,30.03,NNW,338,0.0,0.0,28,0.00,,---,0.00,VWS V14.01,2013-06-11 21:47:00,
2013-06-11 17:48:00,93.0,55.1,30.03,NNW,338,0.0,0.0,28,0.00,,---,0.00,VWS V14.01,2013-06-11 21:48:00,
2013-06-11 17:49:00,93.7,55.7,30.03,NNW,338,0.0,0.0,28,0.00,,---,0.00,VWS V14.01,2013-06-11 21:49:00,
2013-06-11 17:50:00,93.0,55.1,30.03,NNW,338,0.0,0.0,28,0.00,,---,0.00,VWS V14.01,2013-06-11 21:50:00,
2013-06-11 17:51:00,93.7,55.7,30.03,NNW,338,0.0,0.0,28,0.00,,---,0.00,VWS V14.01,2013-06-11 21:51:00,
2013-06-11 17:52:00,94.3,55.2,30.03,NNW,338,0.0,0.0,27,0.00,,---,0.00,VWS V14.01,2013-06-11 21:52:00,
2013-06-11 17:53:00,94.6,55.5,30.03,NNW,338,0.0,0.0,27,0.00,,---,0.00,VWS V14.01,2013-06-11 21:53:00,
2013-06-11 17:54:00,96.1,56.7,30.03,NNW,338,0.0,0.0,27,0.00,,---,0.00,VWS V14.01,2013-06-11 21:54:00,
2013-06-11 17:55:00,95.5,56.3,30.03,NNW,338,0.0,0.0,27,0.00,,---,0.00,VWS V14.01,2013-06-11 21:55:00,
2013-06-11 17:56:00,96.1,56.7,30.03,NNW,338,0.0,0.0,27,0.00,,---,0.00,VWS V14.01,2013-06-11 21:56:00,
2013-06-11 17:57:00,96.1,56.7,30.03,NNW,338,0.0,0.0,27,0.00,,---,0.00,VWS V14.01,2013-06-11 21:57:00,
2013-06-11 17:58:00,97.0,56.4,30.03,NNW,338,0.0,0.0,26,0.00,,---,0.00,VWS V14.01,2013-06-11 21:58:00,
2013-06-11 17:59:00,97.0,55.4,30.03,NNW,338,0.0,0.0,25,0.00,,---,0.00,VWS V14.01,2013-06-11 21:59:00,
2013-06-11 18:00:00,97.0,56.4,30.03,NNW,338,0.0,0.0,26,0.00,,---,0.00,VWS V14.01,2013-06-11 22:00:00,
2013-06-11 18:01:00,97.0,55.4,30.03,NNW,338,0.0,0.0,25,0.00,,---,0.00,VWS V14.01,2013-06-11 22:01:00,
2013-06-11 18:02:00,97.3,55.7,30.03,NNW,338,0.0,0.0,25,0.00,,---,0.00,VWS V14.01,2013-06-11 22:02:00,
2013-06-11 18:03:00,97.2,53.2,30.03,NNW,338,0.0,0.0,23,0.00,,---,0.00,VWS V14.01,2013-06-11 22:03:00,
2013-06-11 18:04:00,96.4,53.8,30.03,NNW,338,0.0,0.0,24,0.00,,---,0.00,VWS V14.01,2013-06-11 22:04:00,
2013-06-11 18:05:00,96.6,53.9,30.03,NNW,338,0.0,0.0,24,0.00,,---,0.00,VWS V14.01,2013-06-11 22:05:00,
2013-06-11 18:06:00,96.4,53.8,30.03,NNW,338,0.0,0.0,24,0.00,,---,0.00,VWS V14.01,2013-06-11 22:06:00,
2013-06-11 18:07:00,96.4,53.8,30.03,NNW,338,0.0,0.0,24,0.00,,---,0.00,VWS V14.01,2013-06-11 22:07:00,
2013-06-11 18:08:00,96.3,53.6,30.03,NNW,338,0.0,0.0,24,0.00,,---,0.00,VWS V14.01,2013-06-11 22:08:00,
2013-06-11 18:09:00,95.9,54.5,30.03,NNW,338,0.0,0.0,25,0.00,,---,0.00,VWS V14.01,2013-06-11 22:09:00,
2013-06-11 18:10:00,95.9,54.5,30.03,NNW,338,0.0,0.0,25,0.00,,---,0.00,VWS V14.01,2013-06-11 22:10:00,
2013-06-11 18:11:00,95.9,54.5,30.03,NNW,338,0.0,0.0,25,0.00,,---,0.00,VWS V14.01,2013-06-11 22:11:00,
2013-06-11 18:12:00,95.5,53.0,30.03,NNW,338,0.0,0.0,24,0.00,,---,0.00,VWS V14.01,2013-06-11 22:12:00,
2013-06-11 18:13:00,95.5,53.0,30.03,NNW,338,0.0,0.0,24,0.00,,---,0.00,VWS V14.01,2013-06-11 22:13:00,
2013-06-11 18:14:00,95.5,54.2,30.03,NNW,338,0.0,0.0,25,0.00,,---,0.00,VWS V14.01,2013-06-11 22:14:00,
2013-06-11 18:15:00,95.5,54.2,30.03,NNW,338,0.0,0.0,25,0.00,,---,0.00,VWS V14.01,2013-06-11 22:15:00,
2013-06-11 18:16:00,95.5,54.2,30.03,NNW,338,0.0,0.0,25,0.00,,---,0.00,VWS V14.01,2013-06-11 22:16:00,
2013-06-11 18:17:00,96.1,53.5,30.03,NNW,338,0.0,0.0,24,0.00,,---,0.00,VWS V14.01,2013-06-11 22:17:00,
2013-06-11 18:18:00,96.3,54.8,30.03,NNW,338,0.0,0.0,25,0.00,,---,0.00,VWS V14.01,2013-06-11 22:18:00,
2013-06-11 18:19:00,96.4,53.8,30.03,NNW,338,0.0,0.0,24,0.00,,---,0.00,VWS V14.01,2013-06-11 22:19:00,
2013-06-11 18:20:00,96.4,53.8,30.03,NNW,338,0.0,0.0,24,0.00,,---,0.00,VWS V14.01,2013-06-11 22:20:00,
2013-06-11 18:21:00,96.4,53.8,30.03,NNW,338,0.0,0.0,24,0.00,,---,0.00,VWS V14.01,2013-06-11 22:21:00,
2013-06-11 18:22:00,96.1,53.5,30.03,NNW,338,0.0,0.0,24,0.00,,---,0.00,VWS V14.01,2013-06-11 22:22:00,
2013-06-11 18:23:00,96.3,53.6,30.03,NNW,338,0.0,0.0,24,0.00,,---,0.00,VWS V14.01,2013-06-11 22:23:00,
2013-06-11 18:24:00,95.5,51.9,30.03,NNW,338,0.0,0.0,23,0.00,,---,0.00,VWS V14.01,2013-06-11 22:24:00,
2013-06-11 18:25:00,95.9,52.2,30.03,NNW,338,0.0,0.0,23,0.00,,---,0.00,VWS V14.01,2013-06-11 22:25:00,
2013-06-11 18:26:00,95.5,51.9,30.03,NNW,338,0.0,0.0,23,0.00,,---,0.00,VWS V14.01,2013-06-11 22:26:00,
2013-06-11 18:27:00,95.4,52.9,30.03,NNW,338,0.0,0.0,24,0.00,,---,0.00,VWS V14.01,2013-06-11 22:27:00,
2013-06-11 18:28:00,94.8,52.4,30.03,NNW,338,0.0,0.0,24,0.00,,---,0.00,VWS V14.01,2013-06-11 22:28:00,
2013-06-11 18:29:00,94.1,52.9,30.03,NNW,338,0.0,0.0,25,0.00,,---,0.00,VWS V14.01,2013-06-11 22:29:00,
2013-06-11 18:30:00,94.3,53.1,30.03,NNW,338,0.0,0.0,25,0.00,,---,0.00,VWS V14.01,2013-06-11 22:30:00,
2013-06-11 18:31:00,94.1,52.9,30.03,NNW,338,0.0,0.0,25,0.00,,---,0.00,VWS V14.01,2013-06-11 22:31:00,
2013-06-11 18:32:00,93.7,52.6,30.03,NNW,338,0.0,0.0,25,0.00,,---,0.00,VWS V14.01,2013-06-11 22:32:00,
2013-06-11 18:33:00,92.8,54.0,30.03,NNW,338,0.0,0.0,27,0.00,,---,0.00,VWS V14.01,2013-06-11 22:33:00,
2013-06-11 18:34:00,92.1,53.4,30.03,NNW,338,0.0,0.0,27,0.00,,---,0.00,VWS V14.01,2013-06-11 22:34:00,
2013-06-11 18:35:00,92.3,53.5,30.03,NNW,338,0.0,0.0,27,0.00,,---,0.00,VWS V14.01,2013-06-11 22:35:00,
2013-06-11 18:36:00,92.1,53.4,30.03,NNW,338,0.0,0.0,27,0.00,,---,0.00,VWS V14.01,2013-06-11 22:36:00,
2013-06-11 18:37:00,91.9,53.2,30.03,NNW,338,0.0,0.0,27,0.00,,---,0.00,VWS V14.01,2013-06-11 22:37:00,
2013-06-11 18:38:00,91.8,53.1,30.03,NNW,338,0.0,0.0,27,0.00,,---,0.00,VWS V14.01,2013-06-11 22:38:00,
2013-06-11 18:39:00,91.4,53.8,30.03,NNW,338,0.0,0.0,28,0.00,,---,0.00,VWS V14.01,2013-06-11 22:39:00,
2013-06-11 18:40:00,91.6,52.9,30.03,NNW,338,0.0,0.0,27,0.00,,---,0.00,VWS V14.01,2013-06-11 22:40:00,
2013-06-11 18:41:00,91.4,53.8,30.03,NNW,338,0.0,0.0,28,0.00,,---,0.00,VWS V14.01,2013-06-11 22:41:00,
2013-06-11 18:42:00,91.4,53.8,30.03,NNW,338,0.0,0.0,28,0.00,,---,0.00,VWS V14.01,2013-06-11 22:42:00,
2013-06-11 18:43:00,91.4,53.8,30.03,NNW,338,0.0,0.0,28,0.00,,---,0.00,VWS V14.01,2013-06-11 22:43:00,
2013-06-11 18:44:00,91.4,53.8,30.03,NNW,338,0.0,0.0,28,0.00,,---,0.00,VWS V14.01,2013-06-11 22:44:00,
2013-06-11 18:45:00,91.4,53.8,30.03,NNW,338,0.0,0.0,28,0.00,,---,0.00,VWS V14.01,2013-06-11 22:45:00,
2013-06-11 18:46:00,91.4,53.8,30.03,NNW,338,0.0,0.0,28,0.00,,---,0.00,VWS V14.01,2013-06-11 22:46:00,
2013-06-11 18:47:00,91.0,53.4,30.03,NNW,338,0.0,0.0,28,0.00,,---,0.00,VWS V14.01,2013-06-11 22:47:00,
2013-06-11 18:48:00,90.7,53.1,30.03,NNW,338,0.0,0.0,28,0.00,,---,0.00,VWS V14.01,2013-06-11 22:48:00,
2013-06-11 18:49:00,90.0,53.5,30.03,NNW,338,0.0,0.0,29,0.00,,---,0.00,VWS V14.01,2013-06-11 22:49:00,
2013-06-11 18:50:00,90.1,53.6,30.03,NNW,338,0.0,0.0,29,0.00,,---,0.00,VWS V14.01,2013-06-11 22:50:00,
2013-06-11 18:51:00,90.0,53.5,30.03,NNW,338,0.0,0.0,29,0.00,,---,0.00,VWS V14.01,2013-06-11 22:51:00,
2013-06-11 18:52:00,89.8,53.3,30.03,NNW,338,0.0,0.0,29,0.00,,---,0.00,VWS V14.01,2013-06-11 22:52:00,
2013-06-11 18:53:00,89.6,54.1,30.03,NNW,338,0.0,0.0,30,0.00,,---,0.00,VWS V14.01,2013-06-11 22:53:00,
2013-06-11 18:54:00,89.2,54.7,30.03,NNW,338,0.0,0.0,31,0.00,,---,0.00,VWS V14.01,2013-06-11 22:54:00,
2013-06-11 18:55:00,89.4,53.9,30.03,NNW,338,0.0,0.0,30,0.00,,---,0.00,VWS V14.01,2013-06-11 22:55:00,
2013-06-11 18:56:00,89.2,54.7,30.03,NNW,338,0.0,0.0,31,0.00,,---,0.00,VWS V14.01,2013-06-11 22:56:00,
2013-06-11 18:57:00,89.2,54.7,68.06,NNW,338,0.0,0.0,31,0.00,,---,0.00,VWS V14.01,2013-06-11 22:57:00,
2013-06-11 18:58:00,89.1,54.5,30.03,NNW,338,0.0,0.0,31,0.00,,---,0.00,VWS V14.01,2013-06-11 22:58:00,
2013-06-11 18:59:00,88.7,54.2,30.03,NNW,338,0.0,0.0,31,0.00,,---,0.00,VWS V14.01,2013-06-11 22:59:00,
2013-06-11 19:00:00,88.9,54.4,30.03,NNW,338,0.0,0.0,31,0.00,,---,0.00,VWS V14.01,2013-06-11 23:00:00,
2013-06-11 19:01:00,88.7,54.2,30.03,NNW,338,0.0,0.0,31,0.00,,---,0.00,VWS V14.01,2013-06-11 23:01:00,
2013-06-11 19:02:00,88.3,53.9,30.03,NNW,338,0.0,0.0,31,0.00,,---,0.00,VWS V14.01,2013-06-11 23:02:00,
2013-06-11 19:03:00,88.3,53.9,30.03,NNW,338,0.0,0.0,31,0.00,,---,0.00,VWS V14.01,2013-06-11 23:03:00,
2013-06-11 19:04:00,88.0,53.6,30.03,NNW,338,0.0,0.0,31,0.00,,---,0.00,VWS V14.01,2013-06-11 23:04:00,
2013-06-11 19:05:00,88.0,53.6,30.03,NNW,338,0.0,0.0,31,0.00,,---,0.00,VWS V14.01,2013-06-11 23:05:00,
2013-06-11 19:06:00,88.0,53.6,30.03,NNW,338,0.0,0.0,31,0.00,,---,0.00,VWS V14.01,2013-06-11 23:06:00,
2013-06-11 19:07:00,87.8,53.4,30.03,NNW,338,0.0,0.0,31,0.00,,---,0.00,VWS V14.01,2013-06-11 23:07:00,
2013-06-11 19:08:00,87.8,53.4,30.03,NNW,338,0.0,0.0,31,0.00,,---,0.00,VWS V14.01,2013-06-11 23:08:00,
2013-06-11 19:09:00,87.4,54.0,30.03,NNW,338,0.0,0.0,32,0.00,,---,0.00,VWS V14.01,2013-06-11 23:09:00,
2013-06-11 19:10:00,87.6,53.3,30.03,NNW,338,0.0,0.0,31,0.00,,---,0.00,VWS V14.01,2013-06-11 23:10:00,
2013-06-11 19:11:00,87.4,54.0,30.03,NNW,338,0.0,0.0,32,0.00,,---,0.00,VWS V14.01,2013-06-11 23:11:00,
2013-06-11 19:12:00,87.4,54.0,30.03,NNW,338,0.0,0.0,32,0.00,,---,0.00,VWS V14.01,2013-06-11 23:12:00,
2013-06-11 19:13:00,87.4,54.0,30.03,NNW,338,0.0,0.0,32,0.00,,---,0.00,VWS V14.01,2013-06-11 23:13:00,
2013-06-11 19:14:00,87.4,54.0,30.03,NNW,338,0.0,0.0,32,0.00,,---,0.00,VWS V14.01,2013-06-11 23:14:00,
2013-06-11 19:15:00,87.4,54.0,30.03,NNW,338,0.0,0.0,32,0.00,,---,0.00,VWS V14.01,2013-06-11 23:15:00,
2013-06-11 19:16:00,87.4,54.0,30.03,NNW,338,0.0,0.0,32,0.00,,---,0.00,VWS V14.01,2013-06-11 23:16:00,
2013-06-11 19:17:00,87.3,53.8,30.03,NNW,338,0.0,0.0,32,0.00,,---,0.00,VWS V14.01,2013-06-11 23:17:00,
2013-06-11 19:18:00,87.3,53.8,30.03,NNW,338,0.0,0.0,32,0.00,,---,0.00,VWS V14.01,2013-06-11 23:18:00,
2013-06-11 19:19:00,87.1,54.5,30.03,NNW,338,0.0,0.0,33,0.00,,---,0.00,VWS V14.01,2013-06-11 23:19:00,
2013-06-11 19:20:00,87.3,54.7,30.03,NNW,338,0.0,0.0,33,0.00,,---,0.00,VWS V14.01,2013-06-11 23:20:00,
2013-06-11 19:21:00,87.1,54.5,30.03,NNW,338,0.0,0.0,33,0.00,,---,0.00,VWS V14.01,2013-06-11 23:21:00,
2013-06-11 19:22:00,87.1,54.5,30.03,NNW,338,0.0,0.0,33,0.00,,---,0.00,VWS V14.01,2013-06-11 23:22:00,
2013-06-11 19:23:00,87.1,54.5,30.03,NNW,338,0.0,0.0,33,0.00,,---,0.00,VWS V14.01,2013-06-11 23:23:00,
2013-06-11 19:24:00,87.1,54.5,30.03,NNW,338,0.0,0.0,33,0.00,,---,0.00,VWS V14.01,2013-06-11 23:24:00,
2013-06-11 19:25:00,87.1,54.5,30.03,NNW,338,0.0,0.0,33,0.00,,---,0.00,VWS V14.01,2013-06-11 23:25:00,
2013-06-11 19:26:00,87.1,54.5,30.03,NNW,338,0.0,0.0,33,0.00,,---,0.00,VWS V14.01,2013-06-11 23:26:00,
2013-06-11 19:27:00,87.1,54.5,30.03,NNW,338,0.0,0.0,33,0.00,,---,0.00,VWS V14.01,2013-06-11 23:27:00,
2013-06-11 19:28:00,87.1,54.5,30.03,NNW,338,0.0,0.0,33,0.00,,---,0.00,VWS V14.01,2013-06-11 23:28:00,
2013-06-11 19:29:00,86.9,54.4,30.03,NNW,338,0.0,0.0,33,0.00,,---,0.00,VWS V14.01,2013-06-11 23:29:00,
2013-06-11 19:30:00,87.1,54.5,30.03,NNW,338,0.0,0.0,33,0.00,,---,0.00,VWS V14.01,2013-06-11 23:30:00,
2013-06-11 19:31:00,86.9,54.4,30.03,NNW,338,0.0,0.0,33,0.00,,---,0.00,VWS V14.01,2013-06-11 23:31:00,
2013-06-11 19:32:00,86.9,54.4,30.03,NNW,338,0.0,0.0,33,0.00,,---,0.00,VWS V14.01,2013-06-11 23:32:00,
2013-06-11 19:33:00,86.7,54.2,30.03,NNW,338,0.0,0.0,33,0.00,,---,0.00,VWS V14.01,2013-06-11 23:33:00,
2013-06-11 19:34:00,86.7,54.2,30.03,NNW,338,0.0,0.0,33,0.00,,---,0.00,VWS V14.01,2013-06-11 23:34:00,
2013-06-11 19:35:00,86.7,54.2,30.03,NNW,338,0.0,0.0,33,0.00,,---,0.00,VWS V14.01,2013-06-11 23:35:00,
2013-06-11 19:36:00,86.7,54.2,30.03,NNW,338,0.0,0.0,33,0.00,,---,0.00,VWS V14.01,2013-06-11 23:36:00,
2013-06-11 19:37:00,86.5,54.0,30.03,NNW,338,0.0,0.0,33,0.00,,---,0.00,VWS V14.01,2013-06-11 23:37:00,
2013-06-11 19:38:00,86.5,54.0,30.03,NNW,338,0.0,0.0,33,0.00,,---,0.00,VWS V14.01,2013-06-11 23:38:00,
2013-06-11 19:39:00,86.4,53.9,30.03,NNW,338,0.0,0.0,33,0.00,,---,0.00,VWS V14.01,2013-06-11 23:39:00,
2013-06-11 19:40:00,86.4,53.9,30.03,NNW,338,0.0,0.0,33,0.00,,---,0.00,VWS V14.01,2013-06-11 23:40:00,
2013-06-11 19:41:00,86.4,53.9,30.03,NNW,338,0.0,0.0,33,0.00,,---,0.00,VWS V14.01,2013-06-11 23:41:00,
2013-06-11 19:42:00,86.2,54.5,30.03,NNW,338,0.0,0.0,34,0.00,,---,0.00,VWS V14.01,2013-06-11 23:42:00,
2013-06-11 19:43:00,86.2,54.5,30.03,NNW,338,0.0,0.0,34,0.00,,---,0.00,VWS V14.01,2013-06-11 23:43:00,
2013-06-11 19:44:00,86.0,54.4,30.03,NNW,338,0.0,0.0,34,0.00,,---,0.00,VWS V14.01,2013-06-11 23:44:00,
2013-06-11 19:45:00,86.0,54.4,30.03,NNW,338,0.0,0.0,34,0.00,,---,0.00,VWS V14.01,2013-06-11 23:45:00,
2013-06-11 19:46:00,86.0,54.4,30.03,NNW,338,0.0,0.0,34,0.00,,---,0.00,VWS V14.01,2013-06-11 23:46:00,
2013-06-11 19:47:00,86.0,54.4,30.03,NNW,338,0.0,0.0,34,0.00,,---,0.00,VWS V14.01,2013-06-11 23:47:00,
2013-06-11 19:48:00,85.8,54.2,30.03,NNW,338,0.0,0.0,34,0.00,,---,0.00,VWS V14.01,2013-06-11 23:48:00,
2013-06-11 19:49:00,85.6,54.9,30.03,NNW,338,0.0,0.0,35,0.00,,---,0.00,VWS V14.01,2013-06-11 23:49:00,
2013-06-11 19:50:00,85.8,55.0,30.03,NNW,338,0.0,0.0,35,0.00,,---,0.00,VWS V14.01,2013-06-11 23:50:00,
2013-06-11 19:51:00,85.6,54.9,30.03,NNW,338,0.0,0.0,35,0.00,,---,0.00,VWS V14.01,2013-06-11 23:51:00,
2013-06-11 19:52:00,85.6,54.9,30.03,NNW,338,0.0,0.0,35,0.00,,---,0.00,VWS V14.01,2013-06-11 23:52:00,
2013-06-11 19:53:00,85.6,54.9,30.03,NNW,338,0.0,0.0,35,0.00,,---,0.00,VWS V14.01,2013-06-11 23:53:00,
2013-06-11 19:54:00,85.3,54.6,30.03,NNW,338,0.0,0.0,35,0.00,,---,0.00,VWS V14.01,2013-06-11 23:54:00,
2013-06-11 19:55:00,85.5,54.7,30.03,NNW,338,0.0,0.0,35,0.00,,---,0.00,VWS V14.01,2013-06-11 23:55:00,
2013-06-11 19:56:00,85.3,54.6,30.03,NNW,338,0.0,0.0,35,0.00,,---,0.00,VWS V14.01,2013-06-11 23:56:00,
2013-06-11 19:57:00,85.3,54.6,30.03,NNW,338,0.0,0.0,35,0.00,,---,0.00,VWS V14.01,2013-06-11 23:57:00,
2013-06-11 19:58:00,85.1,55.2,30.03,NNW,338,0.0,0.0,36,0.00,,---,0.00,VWS V14.01,2013-06-11 23:58:00,
2013-06-11 19:59:00,85.1,55.2,30.03,NNW,338,0.0,0.0,36,0.00,,---,0.00,VWS V14.01,2013-06-11 23:59:00,
2013-06-11 20:00:00,85.1,54.4,30.03,NNW,338,0.0,0.0,35,0.00,,---,0.00,VWS V14.01,2013-06-12 00:00:00,
2013-06-11 20:01:00,85.1,55.2,30.03,NNW,338,0.0,0.0,36,0.00,,---,0.00,VWS V14.01,2013-06-12 00:01:00,
2013-06-11 20:02:00,84.9,55.0,30.03,NNW,338,0.0,0.0,36,0.00,,---,0.00,VWS V14.01,2013-06-12 00:02:00,
2013-06-11 20:03:00,84.9,55.8,30.03,NNW,338,0.0,0.0,37,0.00,,---,0.00,VWS V14.01,2013-06-12 00:03:00,
2013-06-11 20:04:00,84.7,54.9,30.03,NNW,338,0.0,0.0,36,0.00,,---,0.00,VWS V14.01,2013-06-12 00:04:00,
2013-06-11 20:05:00,84.7,54.9,30.03,NNW,338,0.0,0.0,36,0.00,,---,0.00,VWS V14.01,2013-06-12 00:05:00,
2013-06-11 20:06:00,84.7,54.9,30.03,NNW,338,0.0,0.0,36,0.00,,---,0.00,VWS V14.01,2013-06-12 00:06:00,
2013-06-11 20:07:00,84.7,55.6,30.03,NNW,338,0.0,0.0,37,0.00,,---,0.00,VWS V14.01,2013-06-12 00:07:00,
2013-06-11 20:08:00,84.7,54.9,30.03,NNW,338,0.0,0.0,36,0.00,,---,0.00,VWS V14.01,2013-06-12 00:08:00,
2013-06-11 20:09:00,84.4,55.3,30.03,NNW,338,0.0,0.0,37,0.00,,---,0.00,VWS V14.01,2013-06-12 00:09:00,
2013-06-11 20:10:00,84.6,55.5,30.03,NNW,338,0.0,0.0,37,0.00,,---,0.00,VWS V14.01,2013-06-12 00:10:00,
2013-06-11 20:11:00,84.4,55.3,30.03,NNW,338,0.0,0.0,37,0.00,,---,0.00,VWS V14.01,2013-06-12 00:11:00,
2013-06-11 20:12:00,84.4,55.3,30.03,NNW,338,0.0,0.0,37,0.00,,---,0.00,VWS V14.01,2013-06-12 00:12:00,
2013-06-11 20:13:00,84.2,55.1,30.03,NNW,338,0.0,0.0,37,0.00,,---,0.00,VWS V14.01,2013-06-12 00:13:00,
2013-06-11 20:14:00,84.0,55.0,30.06,NNW,338,0.0,0.0,37,0.00,,---,0.00,VWS V14.01,2013-06-12 00:14:00,
2013-06-11 20:15:00,84.2,55.1,30.06,NNW,338,0.0,0.0,37,0.00,,---,0.00,VWS V14.01,2013-06-12 00:15:00,
2013-06-11 20:16:00,84.0,55.0,30.06,NNW,338,0.0,0.0,37,0.00,,---,0.00,VWS V14.01,2013-06-12 00:16:00,
2013-06-11 20:17:00,84.0,55.0,30.06,NNW,338,0.0,0.0,37,0.00,,---,0.00,VWS V14.01,2013-06-12 00:17:00,
2013-06-11 20:18:00,84.0,55.0,30.06,NNW,338,0.0,0.0,37,0.00,,---,0.00,VWS V14.01,2013-06-12 00:18:00,
2013-06-11 20:19:00,83.7,55.4,30.06,NNW,338,0.0,0.0,38,0.00,,---,0.00,VWS V14.01,2013-06-12 00:19:00,
2013-06-11 20:20:00,83.8,54.8,30.06,NNW,338,0.0,0.0,37,0.00,,---,0.00,VWS V14.01,2013-06-12 00:20:00,
2013-06-11 20:21:00,83.7,55.4,30.06,NNW,338,0.0,0.0,38,0.00,,---,0.00,VWS V14.01,2013-06-12 00:21:00,
2013-06-11 20:22:00,83.7,55.4,30.06,NNW,338,0.0,0.0,38,0.00,,---,0.00,VWS V14.01,2013-06-12 00:22:00,
2013-06-11 20:23:00,83.7,55.4,30.06,NNW,338,0.0,0.0,38,0.00,,---,0.00,VWS V14.01,2013-06-12 00:23:00,
2013-06-11 20:24:00,83.3,55.8,30.06,NNW,338,0.0,0.0,39,0.00,,---,0.00,VWS V14.01,2013-06-12 00:24:00,
2013-06-11 20:25:00,83.5,55.9,30.06,NNW,338,0.0,0.0,39,0.00,,---,0.00,VWS V14.01,2013-06-12 00:25:00,
2013-06-11 20:26:00,83.3,55.8,30.06,NNW,338,0.0,0.0,39,0.00,,---,0.00,VWS V14.01,2013-06-12 00:26:00,
2013-06-11 20:27:00,83.3,55.8,30.06,NNW,338,0.0,0.0,39,0.00,,---,0.00,VWS V14.01,2013-06-12 00:27:00,
2013-06-11 20:28:00,83.3,55.8,30.06,NNW,338,0.0,0.0,39,0.00,,---,0.00,VWS V14.01,2013-06-12 00:28:00,
2013-06-11 20:29:00,83.1,55.6,30.03,NNW,338,0.0,0.0,39,0.00,,---,0.00,VWS V14.01,2013-06-12 00:29:00,
2013-06-11 20:30:00,83.3,55.8,30.03,NNW,338,0.0,0.0,39,0.00,,---,0.00,VWS V14.01,2013-06-12 00:30:00,
2013-06-11 20:31:00,83.1,55.6,30.03,NNW,338,0.0,0.0,39,0.00,,---,0.00,VWS V14.01,2013-06-12 00:31:00,
2013-06-11 20:32:00,83.1,55.6,30.03,NNW,338,0.0,0.0,39,0.00,,---,0.00,VWS V14.01,2013-06-12 00:32:00,
2013-06-11 20:33:00,83.1,55.6,30.03,NNW,338,0.0,0.0,39,0.00,,---,0.00,VWS V14.01,2013-06-12 00:33:00,
2013-06-11 20:34:00,82.9,56.2,30.03,NNW,338,0.0,0.0,40,0.00,,---,0.00,VWS V14.01,2013-06-12 00:34:00,
2013-06-11 20:35:00,82.9,55.5,30.03,NNW,338,0.0,0.0,39,0.00,,---,0.00,VWS V14.01,2013-06-12 00:35:00,
2013-06-11 20:36:00,82.9,56.2,30.03,NNW,338,0.0,0.0,40,0.00,,---,0.00,VWS V14.01,2013-06-12 00:36:00,
2013-06-11 20:37:00,82.9,56.2,30.03,NNW,338,0.0,0.0,40,0.00,,---,0.00,VWS V14.01,2013-06-12 00:37:00,
2013-06-11 20:38:00,82.8,56.0,30.03,NNW,338,0.0,0.0,40,0.00,,---,0.00,VWS V14.01,2013-06-12 00:38:00,
2013-06-11 20:39:00,82.8,56.0,30.03,NNW,338,0.0,0.0,40,0.00,,---,0.00,VWS V14.01,2013-06-12 00:39:00,
2013-06-11 20:40:00,82.8,56.0,30.03,NNW,338,0.0,0.0,40,0.00,,---,0.00,VWS V14.01,2013-06-12 00:40:00,
2013-06-11 20:41:00,82.8,56.0,30.03,NNW,338,0.0,0.0,40,0.00,,---,0.00,VWS V14.01,2013-06-12 00:41:00,
2013-06-11 20:42:00,82.8,56.0,30.03,NNW,338,0.0,0.0,40,0.00,,---,0.00,VWS V14.01,2013-06-12 00:42:00,
2013-06-11 20:43:00,82.8,56.0,30.03,NNW,338,0.0,0.0,40,0.00,,---,0.00,VWS V14.01,2013-06-12 00:43:00,
2013-06-11 20:44:00,82.6,56.5,30.03,NNW,338,0.0,0.0,41,0.00,,---,0.00,VWS V14.01,2013-06-12 00:44:00,
2013-06-11 20:45:00,82.6,56.5,30.03,NNW,338,0.0,0.0,41,0.00,,---,0.00,VWS V14.01,2013-06-12 00:45:00,
2013-06-11 20:46:00,82.6,56.5,30.03,NNW,338,0.0,0.0,41,0.00,,---,0.00,VWS V14.01,2013-06-12 00:46:00,
2013-06-11 20:47:00,82.6,56.5,30.03,NNW,338,0.0,0.0,41,0.00,,---,0.00,VWS V14.01,2013-06-12 00:47:00,
2013-06-11 20:48:00,82.6,56.5,30.03,NNW,338,0.0,0.0,41,0.00,,---,0.00,VWS V14.01,2013-06-12 00:48:00,
2013-06-11 20:49:00,82.4,56.4,30.03,NNW,338,0.0,0.0,41,0.00,,---,0.00,VWS V14.01,2013-06-12 00:49:00,
2013-06-11 20:50:00,82.4,56.4,30.03,NNW,338,0.0,0.0,41,0.00,,---,0.00,VWS V14.01,2013-06-12 00:50:00,
2013-06-11 20:51:00,82.4,56.4,30.03,NNW,338,0.0,0.0,41,0.00,,---,0.00,VWS V14.01,2013-06-12 00:51:00,
2013-06-11 20:52:00,82.4,56.4,30.03,NNW,338,0.0,0.0,41,0.00,,---,0.00,VWS V14.01,2013-06-12 00:52:00,
2013-06-11 20:53:00,82.4,57.0,30.03,NNW,338,0.0,0.0,42,0.00,,---,0.00,VWS V14.01,2013-06-12 00:53:00,
2013-06-11 20:54:00,82.4,57.0,30.03,NNW,338,0.0,0.0,42,0.00,,---,0.00,VWS V14.01,2013-06-12 00:54:00,
2013-06-11 20:55:00,82.4,57.0,30.03,NNW,338,0.0,0.0,42,0.00,,---,0.00,VWS V14.01,2013-06-12 00:55:00,
2013-06-11 20:56:00,82.4,57.0,30.03,NNW,338,0.0,0.0,42,0.00,,---,0.00,VWS V14.01,2013-06-12 00:56:00,
2013-06-11 20:57:00,82.2,56.9,30.03,NNW,338,0.0,0.0,42,0.00,,---,0.00,VWS V14.01,2013-06-12 00:57:00,
2013-06-11 20:58:00,82.2,56.9,30.03,NNW,338,0.0,0.0,42,0.00,,---,0.00,VWS V14.01,2013-06-12 00:58:00,
2013-06-11 20:59:00,82.2,57.5,30.03,NNW,338,0.0,0.0,43,0.00,,---,0.00,VWS V14.01,2013-06-12 00:59:00,
2013-06-11 21:00:00,82.2,56.9,30.03,NNW,338,0.0,0.0,42,0.00,,---,0.00,VWS V14.01,2013-06-12 01:00:00,
2013-06-11 21:01:00,82.2,57.5,30.03,NNW,338,0.0,0.0,43,0.00,,---,0.00,VWS V14.01,2013-06-12 01:01:00,
2013-06-11 21:02:00,82.0,56.7,30.03,NNW,338,0.0,0.0,42,0.00,,---,0.00,VWS V14.01,2013-06-12 01:02:00,
2013-06-11 21:03:00,82.0,56.7,30.03,NNW,338,0.0,0.0,42,0.00,,---,0.00,VWS V14.01,2013-06-12 01:03:00,
2013-06-11 21:04:00,82.0,56.7,30.03,NNW,338,0.0,0.0,42,0.00,,---,0.00,VWS V14.01,2013-06-12 01:04:00,
2013-06-11 21:05:00,82.0,56.7,30.03,NNW,338,0.0,0.0,42,0.00,,---,0.00,VWS V14.01,2013-06-12 01:05:00,
2013-06-11 21:06:00,82.0,56.7,30.03,NNW,338,0.0,0.0,42,0.00,,---,0.00,VWS V14.01,2013-06-12 01:06:00,
2013-06-11 21:07:00,82.0,56.7,30.03,NNW,338,0.0,0.0,42,0.00,,---,0.00,VWS V14.01,2013-06-12 01:07:00,
2013-06-11 21:08:00,81.9,56.5,30.03,NNW,338,0.0,0.0,42,0.00,,---,0.00,VWS V14.01,2013-06-12 01:08:00,
2013-06-11 21:09:00,81.9,57.2,30.03,NNW,338,0.0,0.0,43,0.00,,---,0.00,VWS V14.01,2013-06-12 01:09:00,
2013-06-11 21:10:00,81.9,57.2,30.03,NNW,338,0.0,0.0,43,0.00,,---,0.00,VWS V14.01,2013-06-12 01:10:00,
2013-06-11 21:11:00,81.7,57.0,30.03,NNW,338,0.0,0.0,43,0.00,,---,0.00,VWS V14.01,2013-06-12 01:11:00,
2013-06-11 21:12:00,81.7,57.0,30.03,NNW,338,0.0,0.0,43,0.00,,---,0.00,VWS V14.01,2013-06-12 01:12:00,
2013-06-11 21:13:00,81.7,57.0,30.03,NNW,338,0.0,0.0,43,0.00,,---,0.00,VWS V14.01,2013-06-12 01:13:00,
2013-06-11 21:14:00,81.7,57.0,30.03,NNW,338,0.0,0.0,43,0.00,,---,0.00,VWS V14.01,2013-06-12 01:14:00,
2013-06-11 21:15:00,81.7,57.0,30.03,NNW,338,0.0,0.0,43,0.00,,---,0.00,VWS V14.01,2013-06-12 01:15:00,
2013-06-11 21:16:00,81.7,57.0,30.03,NNW,338,0.0,0.0,43,0.00,,---,0.00,VWS V14.01,2013-06-12 01:16:00,
2013-06-11 21:17:00,81.5,56.9,30.03,NNW,338,0.0,0.0,43,0.00,,---,0.00,VWS V14.01,2013-06-12 01:17:00,
2013-06-11 21:18:00,81.5,56.9,30.03,NNW,338,0.0,0.0,43,0.00,,---,0.00,VWS V14.01,2013-06-12 01:18:00,
2013-06-11 21:19:00,81.5,57.5,30.03,NNW,338,0.0,0.0,44,0.00,,---,0.00,VWS V14.01,2013-06-12 01:19:00,
2013-06-11 21:20:00,81.5,56.9,30.03,NNW,338,0.0,0.0,43,0.00,,---,0.00,VWS V14.01,2013-06-12 01:20:00,
2013-06-11 21:21:00,81.5,57.5,30.03,NNW,338,0.0,0.0,44,0.00,,---,0.00,VWS V14.01,2013-06-12 01:21:00,
2013-06-11 21:22:00,81.5,57.5,30.03,NNW,338,0.0,0.0,44,0.00,,---,0.00,VWS V14.01,2013-06-12 01:22:00,
2013-06-11 21:23:00,81.5,57.5,30.03,NNW,338,0.0,0.0,44,0.00,,---,0.00,VWS V14.01,2013-06-12 01:23:00,
2013-06-11 21:24:00,81.3,58.0,30.03,NNW,338,0.0,0.0,45,0.00,,---,0.00,VWS V14.01,2013-06-12 01:24:00,
2013-06-11 21:25:00,81.3,57.3,30.03,NNW,338,0.0,0.0,44,0.00,,---,0.00,VWS V14.01,2013-06-12 01:25:00,
2013-06-11 21:26:00,81.3,58.6,30.03,NNW,338,0.0,0.0,46,0.00,,---,0.00,VWS V14.01,2013-06-12 01:26:00,
2013-06-11 21:27:00,81.3,58.0,30.03,NNW,338,0.0,0.0,45,0.00,,---,0.00,VWS V14.01,2013-06-12 01:27:00,
2013-06-11 21:28:00,81.1,58.4,30.03,NNW,338,0.0,0.0,46,0.00,,---,0.00,VWS V14.01,2013-06-12 01:28:00,
2013-06-11 21:29:00,81.1,59.0,30.00,NNW,338,0.0,0.0,47,0.00,,---,0.00,VWS V14.01,2013-06-12 01:29:00,
2013-06-11 21:30:00,81.1,58.4,30.00,NNW,338,0.0,0.0,46,0.00,,---,0.00,VWS V14.01,2013-06-12 01:30:00,
2013-06-11 21:31:00,81.1,59.0,30.00,NNW,338,0.0,0.0,47,0.00,,---,0.00,VWS V14.01,2013-06-12 01:31:00,
2013-06-11 21:32:00,81.1,59.0,30.00,NNW,338,0.0,0.0,47,0.00,,---,0.00,VWS V14.01,2013-06-12 01:32:00,
2013-06-11 21:33:00,81.1,59.0,30.00,NNW,338,0.0,0.0,47,0.00,,---,0.00,VWS V14.01,2013-06-12 01:33:00,
2013-06-11 21:34:00,81.0,60.0,30.00,NNW,338,0.0,0.0,49,0.00,,---,0.00,VWS V14.01,2013-06-12 01:34:00,
2013-06-11 21:35:00,81.0,59.4,30.00,NNW,338,0.0,0.0,48,0.00,,---,0.00,VWS V14.01,2013-06-12 01:35:00,
2013-06-11 21:36:00,81.0,60.0,30.00,NNW,338,0.0,0.0,49,0.00,,---,0.00,VWS V14.01,2013-06-12 01:36:00,
2013-06-11 21:37:00,81.0,60.0,30.00,NNW,338,0.0,0.0,49,0.00,,---,0.00,VWS V14.01,2013-06-12 01:37:00,
2013-06-11 21:38:00,81.0,59.4,30.00,NNW,338,0.0,0.0,48,0.00,,---,0.00,VWS V14.01,2013-06-12 01:38:00,
2013-06-11 21:39:00,80.8,59.9,30.00,NNW,338,0.0,0.0,49,0.00,,---,0.00,VWS V14.01,2013-06-12 01:39:00,
2013-06-11 21:40:00,80.8,60.4,30.00,NNW,338,0.0,0.0,50,0.00,,---,0.00,VWS V14.01,2013-06-12 01:40:00,
2013-06-11 21:41:00,80.8,59.9,30.00,NNW,338,0.0,0.0,49,0.00,,---,0.00,VWS V14.01,2013-06-12 01:41:00,
2013-06-11 21:42:00,80.8,61.0,30.00,NNW,338,0.0,0.0,51,0.00,,---,0.00,VWS V14.01,2013-06-12 01:42:00,
2013-06-11 21:43:00,80.8,60.4,30.00,NNW,338,0.0,0.0,50,0.00,,---,0.00,VWS V14.01,2013-06-12 01:43:00,
2013-06-11 21:44:00,80.8,60.4,30.03,NNW,338,0.0,0.0,50,0.00,,---,0.00,VWS V14.01,2013-06-12 01:44:00,
2013-06-11 21:45:00,80.8,60.4,30.03,NNW,338,0.0,0.0,50,0.00,,---,0.00,VWS V14.01,2013-06-12 01:45:00,
2013-06-11 21:46:00,80.8,60.4,30.03,NNW,338,0.0,0.0,50,0.00,,---,0.00,VWS V14.01,2013-06-12 01:46:00,
2013-06-11 21:47:00,80.6,60.3,30.03,NNW,338,0.0,0.0,50,0.00,,---,0.00,VWS V14.01,2013-06-12 01:47:00,
2013-06-11 21:48:00,80.6,60.3,30.03,NNW,338,0.0,0.0,50,0.00,,---,0.00,VWS V14.01,2013-06-12 01:48:00,
2013-06-11 21:49:00,80.6,60.8,30.03,NNW,338,0.0,0.0,51,0.00,,---,0.00,VWS V14.01,2013-06-12 01:49:00,
2013-06-11 21:50:00,80.6,60.8,30.03,NNW,338,0.0,0.0,51,0.00,,---,0.00,VWS V14.01,2013-06-12 01:50:00,
2013-06-11 21:51:00,80.6,60.8,30.03,NNW,338,0.0,0.0,51,0.00,,---,0.00,VWS V14.01,2013-06-12 01:51:00,
2013-06-11 21:52:00,80.4,60.7,30.03,NNW,338,0.0,0.0,51,0.00,,---,0.00,VWS V14.01,2013-06-12 01:52:00,
2013-06-11 21:53:00,80.4,60.7,30.03,NNW,338,0.0,0.0,51,0.00,,---,0.00,VWS V14.01,2013-06-12 01:53:00,
2013-06-11 21:54:00,80.2,60.5,30.03,NNW,338,0.0,0.0,51,0.00,,---,0.00,VWS V14.01,2013-06-12 01:54:00,
2013-06-11 21:55:00,80.2,60.5,30.03,NNW,338,0.0,0.0,51,0.00,,---,0.00,VWS V14.01,2013-06-12 01:55:00,
2013-06-11 21:56:00,80.2,60.5,30.03,NNW,338,0.0,0.0,51,0.00,,---,0.00,VWS V14.01,2013-06-12 01:56:00,
2013-06-11 21:57:00,80.2,61.0,30.03,NNW,338,0.0,0.0,52,0.00,,---,0.00,VWS V14.01,2013-06-12 01:57:00,
2013-06-11 21:58:00,80.1,60.9,30.03,NNW,338,0.0,0.0,52,0.00,,---,0.00,VWS V14.01,2013-06-12 01:58:00,
2013-06-11 21:59:00,80.1,61.4,30.03,NNW,338,0.0,0.0,53,0.00,,---,0.00,VWS V14.01,2013-06-12 01:59:00,
2013-06-11 22:00:00,80.1,60.9,30.03,NNW,338,0.0,0.0,52,0.00,,---,0.00,VWS V14.01,2013-06-12 02:00:00,
2013-06-11 22:01:00,80.1,61.4,30.03,NNW,338,0.0,0.0,53,0.00,,---,0.00,VWS V14.01,2013-06-12 02:01:00,
2013-06-11 22:02:00,80.1,61.9,30.03,NNW,338,0.0,0.0,54,0.00,,---,0.00,VWS V14.01,2013-06-12 02:02:00,
2013-06-11 22:03:00,80.1,61.9,30.03,NNW,338,0.0,0.0,54,0.00,,---,0.00,VWS V14.01,2013-06-12 02:03:00,
2013-06-11 22:04:00,80.2,62.1,30.03,NNW,338,0.0,0.0,54,0.00,,---,0.00,VWS V14.01,2013-06-12 02:04:00,
2013-06-11 22:05:00,80.1,61.9,30.03,NNW,338,0.0,0.0,54,0.00,,---,0.00,VWS V14.01,2013-06-12 02:05:00,
2013-06-11 22:06:00,80.2,62.1,30.03,NNW,338,0.0,0.0,54,0.00,,---,0.00,VWS V14.01,2013-06-12 02:06:00,
2013-06-11 22:07:00,80.2,62.1,30.03,NNW,338,0.0,0.0,54,0.00,,---,0.00,VWS V14.01,2013-06-12 02:07:00,
2013-06-11 22:08:00,80.2,62.6,30.03,NNW,338,0.0,0.0,55,0.00,,---,0.00,VWS V14.01,2013-06-12 02:08:00,
2013-06-11 22:09:00,80.2,62.6,30.03,NNW,338,0.0,0.0,55,0.00,,---,0.00,VWS V14.01,2013-06-12 02:09:00,
2013-06-11 22:10:00,80.2,62.6,30.03,NNW,338,0.0,0.0,55,0.00,,---,0.00,VWS V14.01,2013-06-12 02:10:00,
2013-06-11 22:11:00,80.2,62.6,30.03,NNW,338,0.0,0.0,55,0.00,,---,0.00,VWS V14.01,2013-06-12 02:11:00,
2013-06-11 22:12:00,80.2,62.6,30.03,NNW,338,0.0,0.0,55,0.00,,---,0.00,VWS V14.01,2013-06-12 02:12:00,
2013-06-11 22:13:00,80.2,62.6,30.03,NNW,338,0.0,0.0,55,0.00,,---,0.00,VWS V14.01,2013-06-12 02:13:00,
2013-06-11 22:14:00,80.1,62.5,30.03,NNW,338,0.0,0.0,55,0.00,,---,0.00,VWS V14.01,2013-06-12 02:14:00,
2013-06-11 22:15:00,80.2,63.1,30.03,NNW,338,0.0,0.0,56,0.00,,---,0.00,VWS V14.01,2013-06-12 02:15:00,
2013-06-11 22:16:00,80.1,62.5,30.03,NNW,338,0.0,0.0,55,0.00,,---,0.00,VWS V14.01,2013-06-12 02:16:00,
2013-06-11 22:17:00,80.1,63.0,30.03,NNW,338,0.0,0.0,56,0.00,,---,0.00,VWS V14.01,2013-06-12 02:17:00,
2013-06-11 22:18:00,79.9,62.8,30.03,NNW,338,0.0,0.0,56,0.00,,---,0.00,VWS V14.01,2013-06-12 02:18:00,
2013-06-11 22:19:00,79.9,62.3,30.03,NNW,338,0.0,0.0,55,0.00,,---,0.00,VWS V14.01,2013-06-12 02:19:00,
2013-06-11 22:20:00,79.9,62.3,30.03,NNW,338,0.0,0.0,55,0.00,,---,0.00,VWS V14.01,2013-06-12 02:20:00,
2013-06-11 22:21:00,79.9,62.3,30.03,NNW,338,0.0,0.0,55,0.00,,---,0.00,VWS V14.01,2013-06-12 02:21:00,
2013-06-11 22:22:00,79.7,62.6,30.03,NNW,338,0.0,0.0,56,0.00,,---,0.00,VWS V14.01,2013-06-12 02:22:00,
2013-06-11 22:23:00,79.7,62.6,30.03,NNW,338,0.0,0.0,56,0.00,,---,0.00,VWS V14.01,2013-06-12 02:23:00,
2013-06-11 22:24:00,79.7,62.6,30.03,NNW,338,0.0,0.0,56,0.00,,---,0.00,VWS V14.01,2013-06-12 02:24:00,
2013-06-11 22:25:00,79.7,62.6,30.03,NNW,338,0.0,0.0,56,0.00,,---,0.00,VWS V14.01,2013-06-12 02:25:00,
2013-06-11 22:26:00,79.7,62.6,30.03,NNW,338,0.0,0.0,56,0.00,,---,0.00,VWS V14.01,2013-06-12 02:26:00,
2013-06-11 22:27:00,79.7,63.6,30.03,NNW,338,0.0,0.0,58,0.00,,---,0.00,VWS V14.01,2013-06-12 02:27:00,
2013-06-11 22:28:00,79.7,63.6,30.03,NNW,338,0.0,0.0,58,0.00,,---,0.00,VWS V14.01,2013-06-12 02:28:00,
2013-06-11 22:29:00,79.7,63.1,30.03,NNW,338,0.0,0.0,57,0.00,,---,0.00,VWS V14.01,2013-06-12 02:29:00,
2013-06-11 22:30:00,79.7,63.1,30.03,NNW,338,0.0,0.0,57,0.00,,---,0.00,VWS V14.01,2013-06-12 02:30:00,
2013-06-11 22:31:00,79.7,63.1,30.03,NNW,338,0.0,0.0,57,0.00,,---,0.00,VWS V14.01,2013-06-12 02:31:00,
2013-06-11 22:32:00,79.7,63.1,30.03,NNW,338,0.0,0.0,57,0.00,,---,0.00,VWS V14.01,2013-06-12 02:32:00,
2013-06-11 22:33:00,79.7,63.6,30.03,NNW,338,0.0,0.0,58,0.00,,---,0.00,VWS V14.01,2013-06-12 02:33:00,
2013-06-11 22:34:00,79.7,63.6,30.03,NNW,338,0.0,0.0,58,0.00,,---,0.00,VWS V14.01,2013-06-12 02:34:00,
2013-06-11 22:35:00,79.7,63.6,30.03,NNW,338,0.0,0.0,58,0.00,,---,0.00,VWS V14.01,2013-06-12 02:35:00,
2013-06-11 22:36:00,79.5,63.5,30.03,NNW,338,0.0,0.0,58,0.00,,---,0.00,VWS V14.01,2013-06-12 02:36:00,
2013-06-11 22:37:00,79.5,63.5,30.03,NNW,338,0.0,0.0,58,0.00,,---,0.00,VWS V14.01,2013-06-12 02:37:00,
2013-06-11 22:38:00,79.5,63.5,30.03,NNW,338,0.0,0.0,58,0.00,,---,0.00,VWS V14.01,2013-06-12 02:38:00,
2013-06-11 22:39:00,79.5,64.0,30.03,NNW,338,0.0,0.0,59,0.00,,---,0.00,VWS V14.01,2013-06-12 02:39:00,
2013-06-11 22:40:00,79.5,64.0,30.03,NNW,338,0.0,0.0,59,0.00,,---,0.00,VWS V14.01,2013-06-12 02:40:00,
2013-06-11 22:41:00,79.5,64.0,30.03,NNW,338,0.0,0.0,59,0.00,,---,0.00,VWS V14.01,2013-06-12 02:41:00,
2013-06-11 22:42:00,79.3,63.8,30.03,NNW,338,0.0,0.0,59,0.00,,---,0.00,VWS V14.01,2013-06-12 02:42:00,
2013-06-11 22:43:00,79.3,63.8,30.03,NNW,338,0.0,0.0,59,0.00,,---,0.00,VWS V14.01,2013-06-12 02:43:00,
2013-06-11 22:44:00,79.2,64.1,30.03,NNW,338,0.0,0.0,60,0.00,,---,0.00,VWS V14.01,2013-06-12 02:44:00,
2013-06-11 22:45:00,79.3,64.3,30.03,NNW,338,0.0,0.0,60,0.00,,---,0.00,VWS V14.01,2013-06-12 02:45:00,
2013-06-11 22:46:00,79.2,64.1,30.03,NNW,338,0.0,0.0,60,0.00,,---,0.00,VWS V14.01,2013-06-12 02:46:00,
2013-06-11 22:47:00,79.3,64.3,30.03,NNW,338,0.0,0.0,60,0.00,,---,0.00,VWS V14.01,2013-06-12 02:47:00,
2013-06-11 22:48:00,79.3,64.3,30.03,NNW,338,0.0,0.0,60,0.00,,---,0.00,VWS V14.01,2013-06-12 02:48:00,
2013-06-11 22:49:00,79.2,64.1,30.03,NNW,338,0.0,0.0,60,0.00,,---,0.00,VWS V14.01,2013-06-12 02:49:00,
2013-06-11 22:50:00,79.2,64.1,30.03,NNW,338,0.0,0.0,60,0.00,,---,0.00,VWS V14.01,2013-06-12 02:50:00,
2013-06-11 22:51:00,79.3,64.3,30.03,NNW,338,0.0,0.0,60,0.00,,---,0.00,VWS V14.01,2013-06-12 02:51:00,
2013-06-11 22:52:00,79.2,64.1,30.03,NNW,338,0.0,0.0,60,0.00,,---,0.00,VWS V14.01,2013-06-12 02:52:00,
2013-06-11 22:53:00,79.2,64.6,30.03,NNW,338,0.0,0.0,61,0.00,,---,0.00,VWS V14.01,2013-06-12 02:53:00,
2013-06-11 22:54:00,79.2,64.6,30.03,NNW,338,0.0,0.0,61,0.00,,---,0.00,VWS V14.01,2013-06-12 02:54:00,
2013-06-11 22:55:00,79.2,64.6,30.03,NNW,338,0.0,0.0,61,0.00,,---,0.00,VWS V14.01,2013-06-12 02:55:00,
2013-06-11 22:56:00,79.2,64.6,30.03,NNW,338,0.0,0.0,61,0.00,,---,0.00,VWS V14.01,2013-06-12 02:56:00,
2013-06-11 22:57:00,79.2,64.6,30.03,NNW,338,0.0,0.0,61,0.00,,---,0.00,VWS V14.01,2013-06-12 02:57:00,
2013-06-11 22:58:00,79.2,64.6,30.03,NNW,338,0.0,0.0,61,0.00,,---,0.00,VWS V14.01,2013-06-12 02:58:00,
2013-06-11 22:59:00,79.0,64.9,30.06,NNW,338,0.0,0.0,62,0.00,,---,0.00,VWS V14.01,2013-06-12 02:59:00,
2013-06-11 23:00:00,79.2,65.0,30.06,NNW,338,0.0,0.0,62,0.00,,---,0.00,VWS V14.01,2013-06-12 03:00:00,
2013-06-11 23:01:00,79.0,64.9,30.06,NNW,338,0.0,0.0,62,0.00,,---,0.00,VWS V14.01,2013-06-12 03:01:00,
2013-06-11 23:02:00,79.0,64.9,30.06,NNW,338,0.0,0.0,62,0.00,,---,0.00,VWS V14.01,2013-06-12 03:02:00,
2013-06-11 23:03:00,79.0,64.9,30.06,NNW,338,0.0,0.0,62,0.00,,---,0.00,VWS V14.01,2013-06-12 03:03:00,
2013-06-11 23:04:00,79.0,64.9,30.06,NNW,338,0.0,0.0,62,0.00,,---,0.00,VWS V14.01,2013-06-12 03:04:00,
2013-06-11 23:05:00,79.0,64.9,30.06,NNW,338,0.0,0.0,62,0.00,,---,0.00,VWS V14.01,2013-06-12 03:05:00,
2013-06-11 23:06:00,79.0,64.9,30.06,NNW,338,0.0,0.0,62,0.00,,---,0.00,VWS V14.01,2013-06-12 03:06:00,
2013-06-11 23:07:00,79.0,64.9,30.06,NNW,338,0.0,0.0,62,0.00,,---,0.00,VWS V14.01,2013-06-12 03:07:00,
2013-06-11 23:08:00,79.0,65.3,30.06,NNW,338,0.0,0.0,63,0.00,,---,0.00,VWS V14.01,2013-06-12 03:08:00,
2013-06-11 23:09:00,79.0,64.9,30.06,NNW,338,0.0,0.0,62,0.00,,---,0.00,VWS V14.01,2013-06-12 03:09:00,
2013-06-11 23:10:00,79.0,65.3,30.06,NNW,338,0.0,0.0,63,0.00,,---,0.00,VWS V14.01,2013-06-12 03:10:00,
2013-06-11 23:11:00,79.0,65.3,30.06,NNW,338,0.0,0.0,63,0.00,,---,0.00,VWS V14.01,2013-06-12 03:11:00,
2013-06-11 23:12:00,79.0,65.3,30.06,NNW,338,0.0,0.0,63,0.00,,---,0.00,VWS V14.01,2013-06-12 03:12:00,
2013-06-11 23:13:00,79.0,65.3,30.06,NNW,338,0.0,0.0,63,0.00,,---,0.00,VWS V14.01,2013-06-12 03:13:00,
2013-06-11 23:14:00,79.0,65.3,30.06,NNW,338,0.0,0.0,63,0.00,,---,0.00,VWS V14.01,2013-06-12 03:14:00,
2013-06-11 23:15:00,79.0,65.3,30.06,NNW,338,0.0,0.0,63,0.00,,---,0.00,VWS V14.01,2013-06-12 03:15:00,
2013-06-11 23:16:00,79.0,65.3,30.06,NNW,338,0.0,0.0,63,0.00,,---,0.00,VWS V14.01,2013-06-12 03:16:00,
2013-06-11 23:17:00,79.0,65.3,30.06,NNW,338,0.0,0.0,63,0.00,,---,0.00,VWS V14.01,2013-06-12 03:17:00,
2013-06-11 23:18:00,79.0,65.3,30.06,NNW,338,0.0,0.0,63,0.00,,---,0.00,VWS V14.01,2013-06-12 03:18:00,
2013-06-11 23:19:00,78.8,65.6,30.06,NNW,338,0.0,0.0,64,0.00,,---,0.00,VWS V14.01,2013-06-12 03:19:00,
2013-06-11 23:20:00,78.8,65.6,30.06,NNW,338,0.0,0.0,64,0.00,,---,0.00,VWS V14.01,2013-06-12 03:20:00,
2013-06-11 23:21:00,78.8,65.6,30.06,NNW,338,0.0,0.0,64,0.00,,---,0.00,VWS V14.01,2013-06-12 03:21:00,
2013-06-11 23:22:00,78.8,65.6,30.06,NNW,338,0.0,0.0,64,0.00,,---,0.00,VWS V14.01,2013-06-12 03:22:00,
2013-06-11 23:23:00,78.8,65.6,30.06,NNW,338,0.0,0.0,64,0.00,,---,0.00,VWS V14.01,2013-06-12 03:23:00,
2013-06-11 23:24:00,78.8,65.6,30.06,NNW,338,0.0,0.0,64,0.00,,---,0.00,VWS V14.01,2013-06-12 03:24:00,
2013-06-11 23:25:00,78.8,65.6,30.06,NNW,338,0.0,0.0,64,0.00,,---,0.00,VWS V14.01,2013-06-12 03:25:00,
2013-06-11 23:26:00,78.8,65.6,30.06,NNW,338,0.0,0.0,64,0.00,,---,0.00,VWS V14.01,2013-06-12 03:26:00,
2013-06-11 23:27:00,78.8,66.1,30.06,NNW,338,0.0,0.0,65,0.00,,---,0.00,VWS V14.01,2013-06-12 03:27:00,
2013-06-11 23:28:00,78.6,66.3,30.06,NNW,338,0.0,0.0,66,0.00,,---,0.00,VWS V14.01,2013-06-12 03:28:00,
2013-06-11 23:29:00,78.6,66.3,30.06,NNW,338,0.0,0.0,66,0.00,,---,0.00,VWS V14.01,2013-06-12 03:29:00,
2013-06-11 23:30:00,78.6,66.3,30.06,NNW,338,0.0,0.0,66,0.00,,---,0.00,VWS V14.01,2013-06-12 03:30:00,
2013-06-11 23:31:00,78.6,66.3,30.06,NNW,338,0.0,0.0,66,0.00,,---,0.00,VWS V14.01,2013-06-12 03:31:00,
2013-06-11 23:32:00,78.6,66.3,30.06,NNW,338,0.0,0.0,66,0.00,,---,0.00,VWS V14.01,2013-06-12 03:32:00,
2013-06-11 23:33:00,78.4,66.2,30.06,NNW,338,0.0,0.0,66,0.00,,---,0.00,VWS V14.01,2013-06-12 03:33:00,
2013-06-11 23:34:00,78.3,66.0,30.06,NNW,338,0.0,0.0,66,0.00,,---,0.00,VWS V14.01,2013-06-12 03:34:00,
2013-06-11 23:35:00,78.3,66.0,30.06,NNW,338,0.0,0.0,66,0.00,,---,0.00,VWS V14.01,2013-06-12 03:35:00,
2013-06-11 23:36:00,78.3,65.5,30.06,NNW,338,0.0,0.0,65,0.00,,---,0.00,VWS V14.01,2013-06-12 03:36:00,
2013-06-11 23:37:00,78.3,66.0,30.06,NNW,338,0.0,0.0,66,0.00,,---,0.00,VWS V14.01,2013-06-12 03:37:00,
2013-06-11 23:38:00,78.3,66.0,30.06,NNW,338,0.0,0.0,66,0.00,,---,0.00,VWS V14.01,2013-06-12 03:38:00,
2013-06-11 23:39:00,78.3,66.0,30.06,NNW,338,0.0,0.0,66,0.00,,---,0.00,VWS V14.01,2013-06-12 03:39:00,
2013-06-11 23:40:00,78.3,66.0,30.06,NNW,338,0.0,0.0,66,0.00,,---,0.00,VWS V14.01,2013-06-12 03:40:00,
2013-06-11 23:41:00,78.3,66.0,30.06,NNW,338,0.0,0.0,66,0.00,,---,0.00,VWS V14.01,2013-06-12 03:41:00,
2013-06-11 23:42:00,78.3,66.0,30.06,NNW,338,0.0,0.0,66,0.00,,---,0.00,VWS V14.01,2013-06-12 03:42:00,
2013-06-11 23:43:00,78.3,66.0,30.06,NNW,338,0.0,0.0,66,0.00,,---,0.00,VWS V14.01,2013-06-12 03:43:00,
2013-06-11 23:44:00,78.3,66.4,30.06,NNW,338,0.0,0.0,67,0.00,,---,0.00,VWS V14.01,2013-06-12 03:44:00,
2013-06-11 23:45:00,78.3,66.4,30.06,NNW,338,0.0,0.0,67,0.00,,---,0.00,VWS V14.01,2013-06-12 03:45:00,
2013-06-11 23:46:00,78.3,66.4,30.06,NNW,338,0.0,0.0,67,0.00,,---,0.00,VWS V14.01,2013-06-12 03:46:00,
2013-06-11 23:47:00,78.1,66.2,30.06,NNW,338,0.0,0.0,67,0.00,,---,0.00,VWS V14.01,2013-06-12 03:47:00,
2013-06-11 23:48:00,78.1,66.2,30.06,NNW,338,0.0,0.0,67,0.00,,---,0.00,VWS V14.01,2013-06-12 03:48:00,
2013-06-11 23:49:00,78.1,66.2,30.06,NNW,338,0.0,0.0,67,0.00,,---,0.00,VWS V14.01,2013-06-12 03:49:00,
2013-06-11 23:50:00,78.1,66.2,30.06,NNW,338,0.0,0.0,67,0.00,,---,0.00,VWS V14.01,2013-06-12 03:50:00,
2013-06-11 23:51:00,78.1,66.2,30.06,NNW,338,0.0,0.0,67,0.00,,---,0.00,VWS V14.01,2013-06-12 03:51:00,
2013-06-11 23:52:00,78.1,66.2,30.06,NNW,338,0.0,0.0,67,0.00,,---,0.00,VWS V14.01,2013-06-12 03:52:00,
2013-06-11 23:53:00,77.9,66.1,30.06,NNW,338,0.0,0.0,67,0.00,,---,0.00,VWS V14.01,2013-06-12 03:53:00,
2013-06-11 23:54:00,78.1,66.2,30.06,NNW,338,0.0,0.0,67,0.00,,---,0.00,VWS V14.01,2013-06-12 03:54:00,
2013-06-11 23:55:00,78.1,66.2,30.06,NNW,338,0.0,0.0,67,0.00,,---,0.00,VWS V14.01,2013-06-12 03:55:00,
2013-06-11 23:56:00,77.9,66.1,30.06,NNW,338,0.0,0.0,67,0.00,,---,0.00,VWS V14.01,2013-06-12 03:56:00,
2013-06-11 23:57:00,78.1,66.2,30.06,NNW,338,0.0,0.0,67,0.00,,---,0.00,VWS V14.01,2013-06-12 03:57:00,
2013-06-11 23:58:00,77.7,65.9,30.06,NNW,338,0.0,0.0,67,0.00,,---,0.00,VWS V14.01,2013-06-12 03:58:00,
2013-06-11 23:59:00,77.9,66.1,30.06,NNW,338,0.0,0.0,67,0.00,,---,0.00,VWS V14.01,2013-06-12 03:59:00,